[[{"header":{"parameterUnit":"m.s-1","parameterCategory":1,"la1":30.6,"la2":29.2853,"lo1":-89.7004,"lo2":-87.6739,"dy":0.0162,"dx":0.0183,"nx":112,"ny":82,"refTime":"2023-07-22T06:00:00:Z","depth":0,"parameterNumber":2,"parameterNumberName":"U-component_of_WINDS"},"data":[0.0,0.0,0.0,0.0,0.0,0.0,0.0,0.0,0.0,0.0,0.0,0.0,0.0,0.0,0.0,0.0,0.0,0.0,0.0,0.0,0.0,0.0,0.0,0.0,0.0,0.0,0.0,0.0,0.0,0.0,0.0,0.0,0.0,0.0,0.0,0.0,0.0,0.0,0.0,0.0,0.0,0.0,0.0,0.0,0.0,0.0,0.0,0.0,0.0,0.0,0.0,0.0,0.0,0.0,0.0,0.0,0.0,0.0,0.0,0.0,0.0,0.0,0.0,0.0,0.0,0.0,0.0,0.0,0.0,0.0,0.0,0.0,0.0,0.0,0.0,0.0,0.0,0.0,0.0,0.0,0.0,0.0,0.0,0.0,0.0,0.0,0.0,0.0,0.0,0.0,1.8487,1.9482,2.2475,2.4707,2.5436,2.469,2.3831,2.2974,0.0,0.0,0.0,0.0,0.0,0.0,0.0,0.0,0.0,0.0,0.0,0.0,0.0,0.0,0.0,0.0,0.0,0.0,0.0,0.0,0.0,0.0,0.0,0.0,0.0,0.0,0.0,0.0,0.0,0.0,0.0,0.0,0.0,0.0,0.0,0.0,0.0,0.0,0.0,0.0,0.0,0.0,0.0,0.0,0.0,0.0,0.0,0.0,0.0,0.0,0.0,0.0,0.0,0.0,0.0,0.0,0.0,0.0,0.0,0.0,0.0,0.0,0.0,0.0,0.0,0.0,0.0,0.0,0.0,0.0,0.0,0.0,0.0,0.0,0.0,0.0,0.0,0.0,0.0,0.0,0.0,0.0,0.0,0.0,0.0,0.0,0.0,0.0,0.0,0.0,0.0,0.0,0.0,0.0,0.0,0.0,0.0,0.0,0.0,0.0,0.0,0.0,0.0,0.0,1.9626,2.1229,2.32,2.4453,2.4596,2.3794,2.2955,2.2133,0.0,0.0,0.0,0.0,0.0,0.0,0.0,0.0,0.0,0.0,0.0,0.0,0.0,0.0,0.0,0.0,0.0,0.0,0.0,0.0,0.0,0.0,0.0,0.0,0.0,0.0,0.0,0.0,0.0,0.0,0.0,0.0,0.0,0.0,0.0,0.0,0.0,0.0,0.0,0.0,0.0,0.0,0.0,0.0,0.0,0.0,0.0,0.0,0.0,0.0,0.0,0.0,0.0,0.0,0.0,0.0,0.0,0.0,0.0,0.0,0.0,0.0,0.0,0.0,0.0,0.0,0.0,0.0,0.0,0.0,0.0,0.0,0.0,0.0,0.0,0.0,0.0,0.0,0.0,0.0,0.0,0.0,0.0,0.0,0.0,0.0,0.0,0.0,0.0,0.0,0.0,0.0,0.0,0.0,0.0,0.0,0.0,0.0,0.0,0.0,0.0,0.0,0.0,1.99,2.0579,2.2322,2.363,2.4394,2.4399,2.3599,2.2761,2.1946,2.1457,0.0,0.0,0.0,0.0,0.0,0.0,0.0,0.0,0.0,0.0,0.0,0.0,0.0,0.0,0.0,0.0,0.0,0.0,0.0,0.0,0.0,0.0,0.0,0.0,0.0,0.0,0.0,0.0,0.0,0.0,0.0,0.0,0.0,0.0,0.0,0.0,0.0,0.0,0.0,0.0,0.0,0.0,0.0,0.0,0.0,0.0,0.0,0.0,0.0,0.0,0.0,0.0,0.0,0.0,0.0,0.0,0.0,0.0,0.0,0.0,0.0,0.0,0.0,0.0,0.0,0.0,0.0,0.0,0.0,0.0,0.0,0.0,0.0,0.0,0.0,0.0,0.0,0.0,0.0,0.0,0.0,0.0,0.0,0.0,0.0,0.0,0.0,0.0,0.0,0.0,0.0,0.0,0.0,0.0,0.0,0.0,0.0,0.0,0.0,0.0,0.0,0.0,2.0671,2.1312,2.2654,2.3571,2.4023,2.3835,2.3208,2.247,2.1656,2.0972,0.0,0.0,0.0,0.0,0.0,0.0,0.0,0.0,0.0,0.0,0.0,0.0,0.0,0.0,0.0,0.0,0.0,0.0,0.0,0.0,0.0,0.0,0.0,0.0,0.0,0.0,0.0,0.0,0.0,0.0,0.0,0.0,0.0,0.0,0.0,0.0,0.0,0.0,0.0,0.0,0.0,0.0,0.0,0.0,0.0,0.0,0.0,0.0,0.0,0.0,0.0,0.0,0.0,0.0,0.0,0.0,0.0,0.0,0.0,0.0,0.0,0.0,0.0,0.0,0.0,0.0,0.0,0.0,0.0,0.0,0.0,0.0,0.0,0.0,0.0,0.0,0.0,0.0,0.0,0.0,0.0,0.0,0.0,0.0,0.0,0.0,0.0,0.0,0.0,0.0,0.0,0.0,0.0,0.0,0.0,0.0,0.0,0.0,0.0,0.0,0.0,0.0,2.1219,2.1767,2.1872,2.2673,2.2891,2.2137,2.2016,2.1609,2.0758,2.0621,0.0,0.0,0.0,0.0,0.0,0.0,0.0,0.0,0.0,0.0,0.0,0.0,0.0,0.0,0.0,0.0,0.0,0.0,0.0,0.0,0.0,0.0,0.0,0.0,0.0,0.0,0.0,0.0,0.0,0.0,0.0,0.0,0.0,0.0,0.0,0.0,0.0,0.0,0.0,0.0,0.0,0.0,0.0,0.0,0.0,0.0,0.0,0.0,0.0,0.0,0.0,0.0,0.0,0.0,0.0,0.0,0.0,0.0,0.0,0.0,0.0,0.0,0.0,0.0,0.0,0.0,0.0,0.0,0.0,0.0,0.0,0.0,0.0,0.0,0.0,0.0,0.0,0.0,0.0,0.0,0.0,0.0,0.0,0.0,0.0,0.0,0.0,0.0,0.0,0.0,0.0,0.0,0.0,0.0,0.0,0.0,0.0,0.0,0.0,0.0,0.0,0.0,2.0792,2.1206,0.0,2.2085,2.2167,2.1852,2.1884,2.1531,2.066,0.0,0.0,0.0,0.0,0.0,0.0,0.0,0.0,0.0,0.0,0.0,0.0,0.0,0.0,0.0,0.0,0.0,0.0,0.0,0.0,0.0,0.0,0.0,0.0,0.0,0.0,0.0,0.0,0.0,0.0,0.0,0.0,0.0,0.0,0.0,0.0,0.0,0.0,0.0,0.0,0.0,0.0,0.0,0.0,0.0,0.0,0.0,0.0,0.0,0.0,0.0,0.0,0.0,0.0,0.0,0.0,0.0,0.0,0.0,0.0,0.0,0.0,0.0,0.0,0.0,0.0,0.0,0.0,0.0,0.0,0.0,0.0,0.0,0.0,0.0,0.0,0.0,0.0,0.0,0.0,0.0,0.0,0.0,0.0,0.0,0.0,0.0,0.0,0.0,0.0,0.0,0.0,0.0,0.0,0.0,0.0,0.0,0.0,0.0,0.0,0.0,0.0,2.0508,2.0497,2.0738,0.0,2.1396,2.1383,2.1387,2.146,2.124,2.0641,0.0,0.0,0.0,0.0,0.0,0.0,0.0,0.0,0.0,0.0,0.0,0.0,0.0,0.0,0.0,0.0,0.0,0.0,0.0,0.0,0.0,0.0,0.0,0.0,0.0,0.0,0.0,0.0,0.0,0.0,0.0,0.0,0.0,0.0,0.0,0.0,0.0,0.0,0.0,0.0,0.0,0.0,0.0,0.0,0.0,0.0,0.0,0.0,0.0,0.0,0.0,0.0,0.0,0.0,0.0,0.0,0.0,0.0,0.0,0.0,0.0,0.0,0.0,0.0,0.0,0.0,0.0,0.0,0.0,0.0,0.0,0.0,0.0,0.0,0.0,0.0,0.0,0.0,0.0,0.0,0.0,0.0,0.0,0.0,0.0,0.0,0.0,0.0,0.0,0.0,0.0,0.0,0.0,0.0,0.0,0.0,0.0,0.0,0.0,0.0,0.0,0.0,2.0504,2.0501,2.0509,2.0506,2.0508,2.0494,2.0503,2.0565,2.0597,0.0,0.0,0.0,0.0,0.0,0.0,0.0,0.0,0.0,0.0,0.0,0.0,0.0,0.0,0.0,0.0,0.0,0.0,0.0,0.0,0.0,0.0,0.0,0.0,0.0,0.0,0.0,0.0,0.0,0.0,0.0,0.0,0.0,0.0,0.0,0.0,0.0,0.0,0.0,0.0,0.0,0.0,0.0,0.0,0.0,0.0,0.0,0.0,0.0,0.0,0.0,0.0,0.0,0.0,0.0,0.0,0.0,0.0,0.0,0.0,0.0,0.0,0.0,0.0,0.0,0.0,0.0,0.0,0.0,0.0,0.0,0.0,0.0,0.0,0.0,0.0,0.0,0.0,0.0,0.0,0.0,0.0,0.0,0.0,0.0,0.0,0.0,0.0,0.0,0.0,0.0,0.0,0.0,0.0,0.0,0.0,0.0,0.0,0.0,0.0,0.0,0.0,0.0,2.0504,2.0504,2.0503,2.0509,2.0501,2.051,2.0494,2.0516,2.0544,2.0602,0.0,0.0,0.0,0.0,0.0,0.0,0.0,0.0,0.0,0.0,0.0,0.0,0.0,0.0,0.0,0.0,0.0,0.0,0.0,0.0,0.0,0.0,0.0,0.0,0.0,0.0,0.0,0.0,0.0,0.0,0.0,0.0,0.0,0.0,0.0,0.0,0.0,0.0,0.0,0.0,0.0,0.0,0.0,0.0,0.0,0.0,0.0,0.0,0.0,0.0,0.0,0.0,0.0,0.0,0.0,0.0,0.0,0.0,0.0,0.0,0.0,0.0,0.0,0.0,0.0,0.0,0.0,0.0,0.0,0.0,0.0,0.0,0.0,0.0,0.0,0.0,0.0,0.0,0.0,0.0,0.0,0.0,0.0,0.0,0.0,0.0,0.0,0.0,0.0,0.0,0.0,0.0,0.0,0.0,0.0,0.0,0.0,0.0,0.0,0.0,0.0,0.0,2.0494,2.0494,2.05,2.05,2.0506,2.0509,2.0509,2.05,2.0528,2.0552,0.0,0.0,0.0,0.0,0.0,0.0,0.0,0.0,0.0,0.0,0.0,0.0,0.0,0.0,0.0,0.0,0.0,0.0,0.0,0.0,0.0,0.0,0.0,0.0,0.0,0.0,0.0,0.0,0.0,0.0,0.0,0.0,0.0,0.0,0.0,0.0,0.0,0.0,0.0,0.0,0.0,0.0,0.0,0.0,0.0,0.0,0.0,0.0,0.0,0.0,0.0,0.0,0.0,0.0,0.0,0.0,0.0,0.0,0.0,0.0,0.0,0.0,0.0,0.0,0.0,0.0,0.0,0.0,0.0,0.0,0.0,0.0,0.0,0.0,0.0,0.0,0.0,0.0,0.0,0.0,0.0,0.0,0.0,0.0,0.0,0.0,0.0,0.0,0.0,0.0,0.0,0.0,0.0,0.0,0.0,0.0,0.0,0.0,0.0,0.0,0.0,0.0,2.0506,2.05,2.05,2.05,2.0503,2.0508,2.0508,2.05,2.0502,2.0507,0.0,0.0,0.0,0.0,0.0,0.0,0.0,0.0,0.0,0.0,0.0,0.0,0.0,0.0,0.0,0.0,0.0,0.0,0.0,0.0,0.0,0.0,0.0,0.0,0.0,0.0,0.0,0.0,0.0,0.0,0.0,0.0,0.0,0.0,0.0,0.0,0.0,0.0,0.0,0.0,0.0,0.0,0.0,0.0,0.0,0.0,0.0,0.0,0.0,0.0,0.0,0.0,0.0,0.0,0.0,0.0,0.0,0.0,0.0,0.0,2.2908,0.0,0.0,0.0,0.0,0.0,0.0,0.0,0.0,0.0,0.0,0.0,0.0,0.0,0.0,0.0,0.0,0.0,0.0,0.0,0.0,0.0,0.0,0.0,0.0,0.0,0.0,0.0,0.0,0.0,0.0,0.0,0.0,0.0,0.0,0.0,0.0,0.0,0.0,0.0,0.0,0.0,2.0582,2.0509,2.05,2.05,2.0497,2.0506,2.0508,2.0491,2.0493,2.0507,2.1279,0.0,0.0,0.0,0.0,0.0,0.0,0.0,0.0,0.0,0.0,0.0,0.0,0.0,0.0,0.0,0.0,0.0,0.0,0.0,0.0,0.0,0.0,0.0,0.0,0.0,0.0,0.0,0.0,0.0,0.0,0.0,0.0,0.0,0.0,0.0,0.0,0.0,0.0,0.0,0.0,0.0,0.0,0.0,0.0,0.0,0.0,0.0,0.0,0.0,0.0,0.0,0.0,0.0,0.0,0.0,0.0,0.0,0.0,0.0,0.0,2.4768,0.0,0.0,0.0,0.0,0.0,0.0,0.0,0.0,0.0,0.0,0.0,0.0,0.0,0.0,0.0,0.0,0.0,0.0,0.0,0.0,0.0,0.0,0.0,0.0,0.0,0.0,0.0,0.0,0.0,0.0,0.0,0.0,0.0,0.0,0.0,0.0,0.0,0.0,0.0,0.0,2.0614,2.0506,2.0656,2.1084,2.1114,2.1274,2.1677,2.1328,2.1089,2.108,2.1081,0.0,0.0,0.0,0.0,0.0,0.0,0.0,0.0,0.0,0.0,0.0,0.0,0.0,0.0,0.0,0.0,0.0,0.0,0.0,0.0,0.0,0.0,0.0,0.0,0.0,0.0,0.0,0.0,0.0,0.0,0.0,0.0,0.0,0.0,0.0,0.0,0.0,0.0,0.0,0.0,0.0,0.0,0.0,0.0,0.0,0.0,0.0,0.0,0.0,0.0,0.0,0.0,0.0,2.5479,2.5473,2.5486,2.5532,2.5639,2.5808,2.572,2.5698,2.5707,2.5703,0.0,0.0,0.0,0.0,0.0,0.0,0.0,0.0,0.0,0.0,0.0,0.0,0.0,0.0,0.0,0.0,0.0,0.0,0.0,0.0,0.0,0.0,0.0,0.0,2.5709,2.568,2.5625,0.0,0.0,0.0,0.0,0.0,0.0,0.0,0.0,0.0,0.0,0.0,2.1065,2.0948,2.124,2.1958,2.2022,2.2293,2.2945,2.2341,2.1925,2.1901,2.1237,2.1159,0.0,0.0,0.0,0.0,0.0,0.0,0.0,0.0,0.0,0.0,0.0,0.0,0.0,0.0,0.0,0.0,0.0,0.0,0.0,0.0,0.0,0.0,0.0,0.0,0.0,0.0,0.0,0.0,0.0,0.0,0.0,0.0,2.4272,2.5084,0.0,0.0,0.0,0.0,0.0,0.0,0.0,0.0,0.0,0.0,0.0,0.0,0.0,2.5453,2.5324,2.5374,2.5439,2.5498,2.5382,2.5367,2.5403,2.5418,2.5874,2.6596,2.5911,0.0,2.5707,2.5707,0.0,0.0,0.0,0.0,0.0,0.0,0.0,0.0,0.0,0.0,0.0,0.0,0.0,0.0,0.0,0.0,0.0,0.0,0.0,0.0,0.0,0.0,2.5562,2.5673,2.5693,2.5696,0.0,2.5694,2.5663,2.5603,2.5641,0.0,0.0,0.0,0.0,0.0,0.0,0.0,2.2877,2.2757,2.2796,2.2913,2.2932,2.2952,2.3003,2.2882,2.2796,2.2752,2.2629,2.2655,2.2817,2.3668,0.0,0.0,0.0,0.0,0.0,0.0,0.0,0.0,0.0,0.0,0.0,0.0,0.0,0.0,0.0,0.0,0.0,0.0,0.0,0.0,0.0,0.0,0.0,0.0,0.0,0.0,0.0,0.0,0.0,2.3867,2.4637,2.5504,2.5617,2.5617,0.0,0.0,0.0,0.0,0.0,0.0,0.0,0.0,0.0,2.541,2.5909,2.6157,2.6118,2.6545,2.6766,2.6783,2.6737,2.6717,2.6747,2.6831,2.7094,2.7469,2.7176,2.7082,2.7027,2.6086,2.5705,2.5709,0.0,0.0,0.0,0.0,2.5644,2.5644,2.5643,2.568,0.0,2.566,0.0,0.0,0.0,0.0,0.0,0.0,0.0,0.0,0.0,0.0,2.5703,2.5696,2.5696,2.5693,2.569,2.5701,2.5687,0.0,2.5679,2.5684,2.5654,0.0,0.0,0.0,0.0,2.4099,2.3208,2.3108,2.3283,2.377,2.3828,2.4008,2.4422,2.4008,2.3694,2.3623,2.3171,2.3139,2.3642,2.4075,2.4536,0.0,0.0,0.0,0.0,0.0,0.0,0.0,0.0,0.0,0.0,0.0,0.0,0.0,0.0,0.0,0.0,0.0,0.0,0.0,0.0,0.0,0.0,0.0,0.0,0.0,0.0,0.0,0.0,2.4518,2.4864,2.5584,2.5598,2.5565,0.0,0.0,0.0,0.0,0.0,0.0,2.5776,2.5982,2.608,2.6014,2.663,2.6969,2.6916,2.7511,2.783,2.783,2.783,2.783,2.783,2.7952,2.8131,2.8357,2.8246,2.8329,2.842,2.6727,2.6037,2.6019,2.5785,2.5699,2.5703,2.5696,2.5814,2.5976,2.6026,2.6039,2.6039,2.6039,2.5854,2.5625,2.5625,0.0,0.0,0.0,0.0,2.5643,2.5691,2.5707,2.5707,2.5703,2.5701,2.5701,2.5696,2.5696,2.569,0.0,2.5694,2.5691,2.571,0.0,0.0,0.0,0.0,2.4491,2.3848,2.377,2.4004,2.4666,2.4721,2.4953,2.5549,2.4993,2.46,2.4551,2.3925,2.3867,2.4505,2.4571,2.49,2.5492,0.0,0.0,0.0,0.0,0.0,0.0,0.0,0.0,0.0,0.0,0.0,0.0,0.0,0.0,0.0,0.0,0.0,0.0,0.0,0.0,0.0,0.0,0.0,0.0,0.0,0.0,0.0,0.0,0.0,2.5591,2.5492,0.0,0.0,0.0,0.0,2.5402,2.6164,2.661,2.6562,2.7335,2.7748,2.7677,2.7712,2.7742,2.7742,2.7841,2.789,2.789,2.789,2.789,2.7901,2.798,2.8489,2.9298,2.8525,2.8707,2.9396,2.7659,2.6939,2.6841,2.6019,2.5709,2.5709,2.5707,2.6216,2.694,2.6939,2.6939,2.6939,2.6939,2.6373,2.5693,2.5683,2.5681,0.0,0.0,2.57,2.5709,2.5707,2.5707,2.5707,2.5707,2.5707,2.5707,2.5707,2.5707,2.5701,0.0,2.5694,2.571,2.5703,0.0,2.5699,2.564,2.5621,2.5621,2.5563,2.5563,2.5582,2.5621,2.5585,2.5561,2.5601,2.5499,2.5439,2.5434,2.5395,2.5395,2.5434,2.5434,2.5453,2.5511,2.5499,0.0,0.0,0.0,0.0,0.0,0.0,0.0,0.0,0.0,0.0,0.0,0.0,0.0,0.0,0.0,0.0,0.0,0.0,0.0,0.0,0.0,0.0,0.0,0.0,0.0,0.0,0.0,0.0,2.6237,2.5757,0.0,2.6904,2.6505,2.6395,2.6975,2.7258,2.7391,2.7381,2.767,2.7841,2.7857,2.8379,2.8629,2.8629,2.9217,2.9506,2.9506,2.9506,2.9506,2.9506,2.9531,2.9727,3.0037,2.9822,2.9925,3.0166,2.911,2.8342,2.7815,2.7483,2.7366,2.7366,2.7366,2.7561,2.7835,2.7835,2.7835,2.7835,2.7835,2.7249,2.6548,2.6535,2.6142,2.5709,2.5696,2.5693,2.5707,2.5707,2.5707,2.5707,2.5707,2.5707,2.5707,2.5703,2.5703,2.5698,2.5697,2.5697,2.5701,2.571,2.5703,2.5699,2.5707,2.5703,2.5699,2.5699,2.5699,2.5699,2.5699,2.5671,2.5654,2.5607,2.557,2.5557,2.5492,2.5511,2.5511,2.5511,2.5511,2.5511,2.5511,2.5511,2.5507,0.0,0.0,0.0,0.0,0.0,0.0,0.0,0.0,0.0,0.0,0.0,0.0,0.0,0.0,0.0,0.0,0.0,0.0,0.0,0.0,0.0,0.0,0.0,0.0,0.0,0.0,2.5499,2.6631,2.6401,2.6718,2.8162,2.7769,2.7776,2.8643,2.8941,2.909,2.9087,2.9087,2.924,2.959,2.9852,2.9967,2.9936,3.0533,3.0698,3.0398,3.0398,3.0552,3.0852,3.0849,3.1025,3.1268,3.1114,3.104,3.0989,3.0234,2.9604,2.9051,2.8513,2.8303,2.8303,2.8303,2.8498,2.8732,2.8732,2.8732,2.8693,2.8401,2.7913,2.7386,2.7095,2.6605,2.6136,2.6136,2.6136,2.6214,2.6507,2.6585,2.6507,2.6214,2.6136,2.6058,2.5761,2.5701,2.5696,2.5701,2.5701,2.5701,2.571,2.5703,2.5699,2.5707,2.5703,2.5699,2.5699,2.5699,2.5699,2.5699,2.5671,2.5654,2.5607,2.557,2.5538,2.5492,2.5511,2.5511,2.5511,2.5511,2.5511,2.5511,2.5511,2.5499,2.5503,0.0,0.0,0.0,0.0,0.0,0.0,0.0,0.0,0.0,0.0,0.0,0.0,0.0,0.0,0.0,0.0,0.0,0.0,0.0,0.0,0.0,0.0,0.0,2.5657,2.6293,2.6812,2.6776,2.7403,2.8179,2.9079,2.9113,2.9436,3.0324,3.1168,3.1642,3.1642,3.1642,3.2033,3.2878,3.2135,3.1712,3.1636,3.1712,3.1314,3.0475,3.0475,3.0929,3.1737,3.1794,3.2251,3.2966,3.2216,3.1907,3.1829,3.0962,3.0658,3.0574,2.8993,2.8381,2.8381,2.8381,2.8908,2.963,2.963,2.963,2.9494,2.8654,2.8362,2.8184,2.7327,2.7054,2.7034,2.7034,2.7034,2.7227,2.8067,2.8281,2.8067,2.7208,2.6995,2.6739,2.5881,2.5681,2.5696,2.5687,2.5697,2.5687,2.5699,2.5695,2.5695,2.5695,2.5695,0.0,2.5695,2.5695,2.5695,2.5695,2.5639,2.5595,2.5582,2.5531,2.5498,2.5484,2.5484,2.5484,2.5484,2.5511,2.5511,2.5511,2.5511,2.5503,2.5499,0.0,0.0,0.0,0.0,0.0,0.0,0.0,0.0,0.0,0.0,0.0,0.0,0.0,0.0,0.0,0.0,0.0,0.0,0.0,0.0,0.0,0.0,2.6722,2.6487,2.7063,2.775,2.8375,2.8587,2.9238,3.0708,3.0874,3.1252,3.2115,3.241,3.2526,3.2532,3.2532,3.2634,3.2818,3.2666,3.2564,3.2551,3.2571,3.2449,3.2218,3.2218,3.2333,3.2564,3.2601,3.2709,3.2894,3.2154,3.1835,3.1766,3.094,3.0976,3.1463,3.0433,3.0079,3.0118,3.0118,3.0255,3.047,3.047,3.047,3.0431,3.0196,2.9653,2.9067,2.8872,2.834,2.7799,2.7799,2.7799,2.7857,2.809,2.8149,2.7915,2.6996,2.6826,2.6592,2.569,2.5515,2.5549,2.5499,2.5486,2.5499,2.556,2.5511,2.5473,2.5473,2.5473,0.0,2.5473,2.5473,2.5493,2.554,2.554,2.5517,2.5453,2.5446,2.5387,2.5284,2.5331,2.5348,2.5348,2.5448,2.5511,2.5511,2.5511,2.5503,0.0,0.0,0.0,0.0,0.0,0.0,0.0,0.0,0.0,0.0,0.0,0.0,0.0,0.0,0.0,0.0,0.0,0.0,0.0,0.0,0.0,0.0,2.7964,2.8454,2.8769,2.8839,2.9164,3.0011,3.0394,3.1115,3.2469,3.2626,3.2999,3.3848,3.3901,3.3915,3.3906,3.358,3.3547,3.3829,3.3566,3.3388,3.336,3.3377,3.3231,3.2904,3.2897,3.3083,3.343,3.343,3.3641,3.393,3.3157,3.2806,3.2728,3.1903,3.1882,0.0,0.0,0.0,0.0,0.0,3.1027,3.0715,3.0715,3.0715,3.0715,3.0715,3.0346,2.9833,2.9516,2.9039,2.8598,2.8598,2.8598,2.8696,2.9052,2.9149,2.8909,2.8022,2.7828,2.7588,2.666,2.6207,2.5994,2.5944,2.5633,0.0,2.5403,2.5422,2.5387,2.5387,2.5387,2.5387,2.5387,2.5387,2.541,2.5453,2.5453,2.5432,2.5368,2.5371,0.0,0.0,0.0,2.5265,2.5293,2.544,0.0,0.0,0.0,2.5507,2.5505,0.0,0.0,0.0,2.5418,2.5264,0.0,0.0,0.0,0.0,0.0,0.0,0.0,0.0,0.0,0.0,0.0,0.0,0.0,0.0,0.0,0.0,2.9629,3.0923,3.1751,3.1207,3.0951,3.156,3.2403,3.3236,3.4012,3.4184,3.4529,3.5258,3.5315,3.53,3.53,0.0,0.0,0.0,0.0,3.4327,3.4282,3.4448,3.4126,3.3338,3.3423,3.3872,3.4622,3.4622,3.5007,3.5603,3.4718,3.4295,3.4122,3.3256,3.2991,3.3063,3.2333,3.2462,3.2967,3.2198,3.1351,3.0593,3.0593,0.0,0.0,3.071,3.0741,3.0618,2.9931,2.9644,2.9559,2.9559,2.9501,2.9606,3.037,3.0591,3.037,2.9486,2.9292,2.9024,2.8073,2.7321,2.6779,2.6702,2.5986,2.5408,2.5312,2.535,2.5382,2.5382,2.5382,2.5382,2.5382,2.5382,2.5382,2.5398,0.0,0.0,2.5293,2.5293,2.5253,2.519,2.5171,2.5214,2.5283,2.5404,2.5476,2.5476,2.558,2.5646,2.5646,2.5724,2.6133,2.6783,2.5723,2.5532,0.0,0.0,0.0,0.0,0.0,0.0,0.0,0.0,0.0,0.0,0.0,0.0,0.0,0.0,0.0,2.9868,3.082,3.1898,3.3423,3.3422,3.3081,3.2516,3.3249,3.3834,3.4006,3.4668,3.5143,3.5296,3.5315,3.53,3.5308,3.5155,3.543,3.6241,3.6119,3.6036,3.602,3.6776,3.6765,3.5969,0.0,0.0,3.7276,3.7276,3.6969,3.643,3.5603,3.4853,3.4122,3.3256,3.3308,3.3897,3.3209,3.2617,3.214,3.1965,3.1351,3.0593,3.0593,3.0593,3.071,3.1428,3.1615,3.1671,3.2145,3.1795,0.0,3.1237,3.0736,3.0235,3.04,3.0439,3.0216,2.9347,2.9143,2.8882,2.7942,2.7631,2.7301,2.6581,2.6309,2.5979,2.534,2.5217,2.5239,2.5239,2.5239,2.5239,2.5239,2.5239,2.5271,2.5313,2.5313,2.5293,2.5224,2.5214,2.5168,2.5057,2.5101,2.5145,2.5214,2.5293,2.5339,2.5339,2.6078,2.647,2.647,2.7174,2.7489,2.7393,2.6441,2.642,0.0,0.0,0.0,0.0,0.0,0.0,0.0,0.0,0.0,0.0,0.0,2.7989,0.0,0.0,3.1172,3.2743,3.3634,3.4515,3.5722,3.5525,3.4942,3.4098,3.4397,3.4642,3.4642,3.504,3.5289,3.5254,3.5254,3.5258,3.5261,3.5662,3.5876,3.5859,3.6659,3.6905,3.6504,3.7398,3.7641,3.7252,3.7686,3.7928,3.7959,3.7973,3.7757,3.7334,3.693,3.6257,3.5391,3.4545,3.4468,3.4828,3.4477,3.3826,3.3044,3.3044,3.2502,3.1748,3.1748,3.1748,3.1806,3.2251,3.2375,3.2428,3.2833,3.2651,3.2295,3.2295,3.1987,3.1564,3.116,3.1032,3.0777,2.9908,2.9672,2.9532,2.904,2.8606,2.8173,2.774,2.7338,2.6784,2.5925,2.6154,2.6185,2.5325,2.5191,2.5191,2.5191,2.5191,2.5214,2.525,2.5209,2.5187,2.5141,2.5487,2.5495,2.5029,2.585,2.6174,2.5765,2.6239,2.6493,2.6493,2.7036,2.7268,2.7199,2.7702,2.8065,2.8288,2.7722,2.7612,0.0,0.0,0.0,0.0,0.0,0.0,0.0,0.0,2.7697,2.8715,2.9474,3.0444,3.2061,3.3034,3.4049,3.5402,3.63,3.6964,3.7405,3.691,3.6203,3.5392,3.5277,3.5277,3.5277,3.5277,3.5261,3.5209,3.5209,3.5209,3.5209,3.6031,3.626,3.5706,3.7158,3.7636,3.7005,3.7842,3.8204,3.8068,3.8268,3.8377,3.8377,3.8443,3.8377,3.8204,3.7892,3.7353,3.6642,3.5834,3.5493,3.5493,3.5493,3.5064,3.443,3.4257,3.3641,3.2891,3.2891,3.2891,3.2929,3.3103,3.3141,3.3179,3.3353,3.3295,3.3141,3.3141,3.3026,3.2756,3.209,3.1885,3.1668,3.0957,3.063,3.0494,3.0658,2.9879,2.914,2.914,2.8504,2.7663,2.6803,2.7224,2.7186,2.5669,2.5573,2.5688,2.5688,2.5688,2.5688,2.5676,2.5621,2.5584,2.5564,2.6119,2.6186,2.5541,2.6806,2.7266,2.6561,2.7262,2.7675,2.7675,2.7972,2.8049,2.7948,2.8233,2.8664,2.9206,2.9007,2.8804,2.3715,2.4038,2.4309,2.5081,2.5957,2.6851,0.0,0.0,2.963,3.1169,3.1561,3.2092,3.3661,3.4558,3.5364,3.631,3.7086,3.7366,3.6719,3.6566,3.6184,3.5305,3.5209,3.5209,3.5209,3.5209,3.5209,3.5209,3.5209,3.5209,3.5209,3.6031,3.6776,3.7406,3.8343,3.882,3.8725,3.9584,3.9659,3.8965,3.9693,4.0055,4.0128,4.0128,3.9739,3.8984,3.7493,3.6796,3.6642,3.5834,3.5493,3.5493,3.5493,3.5449,3.5257,3.4487,3.3641,3.2891,3.2891,3.2891,3.3026,3.3795,3.4045,3.4199,3.4968,3.468,3.4045,3.4045,3.3506,3.2878,3.2795,3.2762,3.2711,3.2555,3.1914,3.158,3.2331,3.1226,3.0051,3.0051,2.9363,2.851,2.7701,2.7644,2.7377,2.6402,2.6918,2.7415,2.7415,2.7415,2.7402,2.7338,2.7306,2.7298,2.7248,2.73,2.7323,2.7228,2.7414,2.7471,2.7376,2.7518,2.7611,2.7611,2.8441,2.8874,2.8861,2.964,3.0004,2.9971,2.9766,2.9668,2.4658,2.5148,2.5717,0.0,2.7806,2.903,2.9979,3.1245,3.257,3.3751,3.4409,3.5229,3.6826,3.7353,3.7832,0.0,3.8588,3.8343,3.7999,3.668,3.5611,3.5248,3.435,3.414,3.5114,3.5209,3.5209,3.5209,3.5209,3.542,3.5935,3.6757,3.7349,3.7693,3.9049,3.9508,3.9011,3.9871,4.0119,3.9812,4.0136,4.0307,4.0325,4.0379,4.0224,3.9819,3.8623,3.812,3.804,3.6733,3.619,3.6161,3.568,3.5705,3.5937,3.5215,3.4737,3.4397,3.428,3.4309,3.4441,3.4557,3.4706,3.4829,3.5078,3.4993,3.4783,3.4783,3.4578,3.4236,3.3722,3.358,3.3422,3.2929,3.2484,3.2301,3.2664,3.2172,3.1656,3.1656,3.1355,3.0858,3.0051,2.9879,2.9574,2.8733,2.8083,2.7688,2.7656,2.7637,2.7643,2.7603,2.7556,2.7542,2.75,2.7945,2.7991,2.7532,2.837,2.8692,2.8218,2.8666,2.8943,2.8943,2.9403,2.9603,2.9512,2.9966,3.0376,3.0728,3.0644,3.0839,2.5212,2.5998,0.0,2.8195,2.973,3.1262,3.2449,3.3858,3.5213,3.6293,3.7019,3.7803,3.8942,3.9141,3.9227,3.9545,3.9049,3.8553,3.8343,3.6528,3.5114,3.4904,3.3605,3.3169,3.4388,3.4732,3.4961,3.519,3.542,3.584,3.647,3.7483,3.8056,3.8056,3.9527,4.0005,3.9355,3.9986,4.031,4.031,4.0309,4.0308,4.0308,4.0271,4.0252,4.0213,3.9352,3.9006,3.8944,3.7507,3.6878,3.6747,3.6157,3.6207,3.6501,3.5856,3.5634,3.558,3.52,3.5157,3.5223,3.4945,3.5097,3.536,3.523,3.5287,3.5396,3.5396,3.5293,3.507,3.4404,3.4203,3.402,3.3413,3.3056,3.2928,3.3137,3.2832,3.2585,3.2813,3.2661,3.2319,3.173,3.158,3.1352,3.0763,2.9437,2.8445,2.8303,2.8264,2.8256,2.8265,2.8139,2.8089,2.8154,2.866,2.8704,2.8199,2.926,2.9737,2.9396,2.9945,3.0248,3.0248,3.0345,3.0231,2.9888,3.0231,3.0668,3.1212,3.1334,3.1676,2.5284,0.0,2.8149,2.98,3.154,3.3263,3.4911,3.6023,3.716,3.8753,3.9108,3.91,3.9009,3.9011,3.8744,3.7903,3.775,3.7464,3.67,3.5783,3.4904,3.412,3.3261,3.2711,0.0,3.3547,3.435,3.5152,3.5993,3.6453,3.6491,3.8056,3.8954,3.8954,3.9833,4.0291,4.0272,4.0291,4.031,4.031,4.031,4.031,4.0272,4.004,3.992,3.9863,3.9069,3.8708,3.8651,3.7814,3.7315,3.7084,3.7046,3.7065,3.699,3.6184,3.5924,3.5871,3.4997,3.4714,3.4714,3.4694,3.5241,3.5883,3.5861,3.5883,3.5883,3.5883,3.5317,3.4694,3.4615,3.4576,3.4555,3.4475,3.3853,3.3494,3.4285,3.3154,3.2272,3.3118,3.2591,3.2008,3.1989,3.1929,3.1888,3.185,3.108,3.0396,3.0068,2.9958,2.9931,2.9931,2.9676,2.9623,2.9813,2.966,2.9661,2.9832,2.9869,3.0267,3.1099,3.1156,3.1174,3.1174,3.1156,3.0758,2.9888,3.0758,3.1174,3.1195,3.1672,3.1862,2.7258,0.0,3.1527,3.3796,3.5627,3.7326,3.9061,3.9689,3.9917,3.9923,3.8601,3.7226,3.6585,3.6031,3.5763,3.5993,3.605,3.6146,3.647,3.5286,3.4082,3.3242,3.2289,0.0,0.0,0.0,0.0,3.4331,3.5171,3.6126,3.7234,3.8381,3.9279,3.9852,4.0157,4.031,4.031,4.0118,4.0038,4.0038,3.9848,3.9781,3.9781,3.9675,3.9632,3.9614,3.9354,3.9245,3.9173,3.8361,3.7977,3.7838,3.7307,3.7347,3.7542,3.6133,3.5888,3.6087,3.4862,3.4551,3.4727,3.5016,3.5371,3.5787,3.6174,3.6397,3.6499,3.6499,3.5972,3.5534,3.6076,3.575,3.5337,3.5315,3.5086,3.4805,3.4564,3.4054,3.3754,3.4038,3.3848,3.366,3.366,3.3147,3.254,3.1915,3.1092,3.0294,2.9664,2.9551,2.9738,3.0262,2.9772,2.9863,3.1005,3.0713,3.0735,3.1318,3.1466,3.1705,3.1989,3.2008,3.2008,3.2008,3.2008,3.1857,3.1572,3.1857,3.2293,3.2861,3.3015,3.3255,2.9091,3.1366,3.403,3.6668,3.8383,3.9776,4.1189,4.1285,4.075,3.9603,3.7597,3.5687,3.4522,3.3643,3.3165,3.3375,3.3414,3.3815,3.4964,3.3865,3.2975,3.3032,3.2103,3.1504,0.0,0.0,0.0,3.383,3.5253,3.6512,3.749,3.8784,3.9624,3.9998,4.0098,4.0098,4.0015,3.9848,3.9762,3.9762,3.958,3.9452,3.935,3.935,3.935,3.935,3.935,3.9357,3.9333,3.8802,3.8534,3.8383,3.7853,3.7899,3.8081,3.6719,3.6454,3.6546,3.4729,3.4423,3.4848,3.5114,3.5687,3.6356,3.674,3.6943,3.7042,3.7042,3.631,3.5627,3.6143,3.5658,3.5075,3.5373,3.5448,3.5317,3.4796,3.4684,3.4591,3.4269,3.4213,3.4213,3.4189,3.369,3.3006,3.2096,3.1457,3.0882,3.0225,2.9909,3.0033,3.0828,3.0394,3.0483,3.1603,3.1306,3.1318,3.192,3.2164,3.243,3.2713,3.2825,3.2861,3.2861,3.2861,3.271,3.2406,3.271,3.3109,3.3563,3.3728,3.3914,3.0714,3.3072,3.5646,3.8422,3.9738,4.0521,4.1266,4.0807,3.9718,3.7884,3.6126,3.441,0.0,0.0,3.0973,3.0228,3.019,3.082,3.2504,3.1941,3.1916,0.0,0.0,0.0,0.0,0.0,0.0,3.3696,0.0,3.7528,3.737,3.9184,4.0036,3.9583,3.9758,3.98,3.9614,3.9577,3.9533,3.9533,3.9496,3.9324,3.9073,3.9073,3.9073,3.9073,3.9073,3.9073,3.9073,3.9073,3.8921,3.8707,3.8707,3.8707,3.8597,3.779,3.7507,3.7147,3.4761,3.4431,3.5064,3.51,3.6211,3.7526,3.7562,3.7551,3.7551,3.7551,3.6358,3.5064,3.5119,3.4541,3.4119,3.4862,3.5082,3.51,3.5064,3.5064,3.4797,3.3973,3.3826,3.378,3.3623,3.3585,3.3263,3.2379,3.2234,3.2092,3.1714,3.0995,3.0843,3.1635,3.144,3.1434,3.176,3.1538,3.1495,3.1784,3.207,3.2552,3.3323,3.36,3.3752,3.3752,3.3771,3.3354,3.2539,3.3336,3.362,3.3379,3.3817,3.3802,3.2943,3.5212,3.7784,4.0008,4.0718,4.0836,4.0654,3.9947,3.8495,3.5553,3.2972,3.0741,0.0,0.0,0.0,2.869,3.0032,0.0,3.294,3.4112,0.0,3.4308,0.0,3.4311,3.372,3.42,0.0,0.0,3.5713,3.6726,3.7901,3.9086,3.9905,4.0378,3.9895,4.0158,4.1278,4.0512,3.9993,3.9778,3.9187,3.8881,3.8792,3.8792,3.8792,3.8792,3.8792,3.8792,3.8792,3.8792,3.875,3.8707,3.8707,3.8707,3.8597,3.779,3.7507,3.7312,3.6083,3.5807,3.6064,3.667,3.7147,3.7606,3.8212,3.8395,3.8395,3.8395,3.7221,3.6101,3.6707,3.6201,3.5575,3.5776,3.623,3.6492,3.586,3.575,3.5677,3.5447,3.541,3.5027,3.372,3.4,3.4098,3.3212,3.2578,3.1946,3.1271,3.0998,3.118,3.1974,3.1465,3.1592,3.2866,3.2554,3.2548,3.3224,3.3536,3.3771,3.3957,3.422,3.4367,3.4367,3.4528,3.4472,3.4263,3.4239,3.4186,3.4102,3.3987,3.3742,3.47,3.6689,3.8816,4.044,4.0311,3.9603,3.8963,3.7583,3.5628,3.2667,3.0267,0.0,2.6987,2.5985,0.0,0.0,0.0,0.0,3.1411,3.282,3.3961,0.0,3.5101,0.0,3.5155,3.5483,3.5882,0.0,3.6572,3.7111,3.7895,3.8864,3.9634,4.0195,3.9556,3.9742,4.0881,3.9926,3.9571,3.9768,3.8962,3.8578,3.8578,3.8578,3.8578,3.8578,0.0,3.8578,3.8578,3.8578,3.8578,3.8578,3.8578,3.8578,3.8491,3.7872,3.7644,3.754,3.6906,3.6678,3.6779,3.7272,3.7638,3.7992,3.8449,3.8578,3.8473,3.7981,3.7153,3.6399,3.6327,3.6069,3.5864,3.624,3.6757,3.7088,3.6601,3.651,3.6419,3.6042,3.5939,3.5605,3.4667,3.4885,3.5017,3.4534,3.3773,3.3085,3.2632,3.1962,3.1818,3.2632,3.2325,3.2415,3.3321,3.313,3.3141,3.3597,3.3868,3.4023,3.4023,3.4269,3.4409,3.4325,3.4442,3.4508,3.4445,3.4269,3.4128,3.4006,3.3776,3.3514,3.5993,3.7495,3.8818,3.9862,3.8812,3.7312,3.6447,3.4408,3.2009,2.9589,0.0,2.6628,2.5836,2.5091,2.4666,2.476,0.0,2.689,2.9345,3.0323,3.1997,3.515,3.5395,3.5717,3.6657,3.6552,3.6758,3.7621,3.7959,3.7986,3.7716,3.8581,3.9201,3.9436,3.9215,3.9234,3.9604,3.8893,3.8893,3.9586,3.8765,3.8382,3.8382,3.8382,3.8382,3.8382,3.8382,3.8455,3.8547,3.8547,3.8547,3.8547,3.8547,3.8474,3.835,3.7929,3.7791,3.7738,3.734,3.7173,3.7179,3.7268,3.7735,3.8234,3.8234,3.8234,3.8023,3.705,3.6626,3.6236,3.5119,3.5046,3.55,3.6231,3.6768,3.7139,3.728,3.733,3.708,3.6186,3.6087,3.6055,3.5856,3.5892,3.5928,3.5838,3.51,3.4576,3.4576,3.3273,3.2604,3.3291,3.3364,3.3364,3.3364,3.3364,3.3364,3.3364,3.3587,3.3726,3.3726,3.3954,3.4062,3.3931,3.3956,3.3956,3.3906,3.3854,3.3715,3.3486,3.339,3.322,3.668,3.7197,3.7509,3.7968,3.6385,3.437,3.3066,3.1406,0.0,0.0,2.6097,2.5523,2.4724,2.4376,2.4431,2.515,2.6098,2.7511,2.9783,3.1524,3.3451,0.0,3.6681,3.7349,3.809,3.812,0.0,0.0,3.8232,3.8245,3.8259,3.8449,3.8546,3.8634,3.9798,4.0181,3.9604,3.9458,3.9458,3.9586,3.8765,3.8382,3.8382,3.8382,3.8382,3.8382,3.8382,0.0,3.9385,3.9385,3.9385,3.9385,3.9385,3.8984,3.835,3.7929,3.7791,3.7738,3.734,3.7152,3.7041,3.7163,3.729,3.7414,3.7414,3.7414,3.7379,3.718,3.6574,3.5828,3.4995,3.4801,3.4942,3.5413,3.6036,3.6804,3.7812,3.8041,3.7805,3.6957,3.7355,3.7359,3.6037,3.6345,3.6562,3.591,3.5069,3.4532,3.4532,3.3701,3.3178,3.3304,3.3214,3.3147,3.3147,3.3147,3.3147,3.3147,3.3208,3.3238,3.3238,3.3476,3.3625,3.3597,3.3802,3.3906,3.3906,3.3607,3.3458,3.3419,3.3129,3.2961,3.6177,3.6427,3.6349,3.609,3.422,3.2038,3.0525,0.0,0.0,0.0,2.4744,2.4557,2.4209,2.4096,0.0,2.4606,2.5461,2.6716,2.8581,3.0368,0.0,3.4623,3.5967,3.6997,0.0,3.8164,3.8354,3.8241,3.8259,3.8274,3.8289,3.8689,3.8725,3.8307,3.9434,3.9888,3.9506,3.907,3.907,3.9488,3.867,3.8289,3.8289,3.8289,3.8289,3.8307,3.8743,3.9143,3.9524,3.9924,3.9677,3.9138,3.9138,3.8492,3.7506,3.673,3.6438,3.6347,3.5518,3.518,3.5209,3.563,3.6352,3.6967,3.6579,3.6456,3.633,3.5717,3.5535,3.5405,3.4787,3.5092,3.5562,3.5776,3.6209,3.6587,3.6808,3.711,3.7197,3.6806,3.7255,3.7435,3.6647,3.7054,3.7352,3.6973,3.6167,3.5645,3.5645,3.4569,3.362,3.3219,3.3135,3.3086,3.3086,3.3086,3.3086,3.3086,3.3086,3.3086,3.3086,3.3202,3.3291,3.3232,3.3361,3.34,3.3372,3.3232,3.316,3.3129,3.2961,3.2916,3.5187,3.5435,3.5237,3.4521,3.2397,3.0115,2.8659,2.6475,0.0,2.4003,2.3876,2.3896,2.3976,0.0,2.3996,0.0,2.4566,2.5628,2.7351,2.887,3.083,0.0,3.5119,0.0,3.7253,3.7925,0.0,3.8225,3.8192,3.8192,3.8192,3.879,3.8844,3.821,3.8808,3.9134,3.9134,3.85,3.85,3.9134,3.85,3.8192,3.8192,3.8192,3.8282,3.8482,3.8993,3.9409,3.9752,4.0094,3.9656,3.8783,3.8445,3.7757,3.6773,3.5584,3.5249,3.5218,3.4168,3.3693,3.371,3.4604,3.5548,3.6289,3.5871,3.571,3.5526,3.4713,3.4957,3.5352,3.5006,3.5385,3.5814,3.5769,3.6076,3.6247,3.5692,3.5806,3.6098,3.6352,3.6717,3.7033,3.7285,3.7685,3.7899,3.7899,3.7181,3.6644,3.6557,3.522,3.4028,3.3336,3.314,3.3055,3.3055,3.3055,3.3055,3.3055,3.3055,3.3055,3.3055,3.3055,3.3024,3.2979,3.2979,3.2948,3.2916,3.2916,3.2916,3.2916,3.2916,3.2916,3.3967,3.4214,3.4049,3.3611,3.1166,2.8587,2.7725,0.0,2.3886,2.3834,2.3816,2.3816,2.3896,2.3917,2.3917,0.0,0.0,2.4926,2.7278,2.8372,3.0341,3.4235,0.0,0.0,3.8053,3.8271,3.8274,3.8225,3.8192,3.8192,3.8192,3.8264,3.8264,3.8192,3.8264,3.8301,3.8301,3.8228,3.8228,3.8301,3.8228,3.8192,3.8192,3.8192,3.859,3.9278,3.8832,3.9486,0.0,3.9734,3.923,3.9036,3.7668,3.7048,3.6733,3.5462,3.5452,3.5951,3.5318,3.47,3.4365,3.579,3.5429,3.4648,3.5307,3.5464,3.5446,3.6004,3.6239,3.629,3.6145,3.527,3.4297,3.4004,3.476,3.551,3.544,3.4934,3.4821,3.5913,3.6183,3.6541,3.7649,3.7864,3.7899,3.7899,3.7164,3.647,3.6019,3.5131,3.4384,3.3883,3.3283,3.2916,3.2916,3.2916,3.2916,3.2916,3.2916,3.2916,3.2916,3.2916,3.2916,3.2916,3.2916,3.2916,3.2916,3.2916,3.2916,3.2916,3.2916,3.2916,3.2242,3.2662,3.2389,3.1472,2.9916,2.8135,2.6367,0.0,2.3795,2.3795,2.3795,2.3774,2.3685,2.3771,2.3813,0.0,0.0,0.0,2.5859,2.6749,2.8591,3.211,3.3655,0.0,0.0,0.0,3.8122,3.7792,3.7792,3.7792,3.7792,3.8054,3.8192,3.8192,3.8192,3.8192,3.8192,3.8192,3.8054,3.7792,3.7792,3.765,3.7431,3.7856,3.8209,3.8468,3.9171,3.9845,0.0,3.9861,3.926,3.8493,3.7465,3.6603,3.5864,3.5338,3.5334,3.5543,3.5304,3.5044,3.4961,3.598,3.5914,3.5496,3.589,3.5927,3.5978,3.6248,3.6315,3.6315,3.6379,3.5626,3.4717,3.4139,3.4607,3.5111,3.4626,3.4955,3.5311,3.5394,3.5976,3.6464,3.6516,3.6741,3.69,3.69,3.6597,3.6287,3.611,3.5387,3.4817,3.4639,3.4207,3.3935,3.3935,3.4141,3.4276,3.4276,3.3865,3.3616,3.3616,3.3616,3.3384,3.2916,3.3366,3.3366,3.2916,3.2916,3.2916,3.2916,3.2916,3.2916,2.9942,3.0535,3.0498,2.9548,2.8648,2.7446,0.0,0.0,2.3584,2.3584,2.3584,2.3558,2.3417,2.3491,2.3558,0.0,0.0,2.3916,2.4703,2.5517,2.7168,0.0,0.0,3.3471,0.0,3.7252,3.7596,3.7303,3.721,3.721,3.721,3.7719,3.8008,3.7933,3.7915,3.7845,3.7721,3.7685,3.7542,3.721,3.721,3.7058,3.6821,3.7551,3.7965,3.8136,3.9311,3.9794,0.0,3.9388,3.8625,3.7585,3.682,3.6151,3.5609,3.5529,3.5616,3.5783,3.5471,3.5207,3.5191,3.6122,3.6256,3.6174,3.6837,3.6771,3.652,3.6688,3.6754,3.6721,3.6521,3.6089,3.5523,3.4808,3.493,3.5098,3.4631,3.4932,3.533,3.5404,3.5782,3.6056,3.6089,3.6174,3.6172,3.6172,3.6172,3.6147,3.602,3.5591,3.5181,3.507,3.4949,3.4783,3.4428,3.4637,3.4871,3.4995,3.4551,3.4301,3.4436,3.4436,3.4169,3.358,3.4133,3.4044,3.3241,3.3241,3.3116,3.2916,3.2916,3.3041,2.6946,2.7814,2.8369,2.8159,2.7359,2.6267,0.0,0.0,2.3091,2.3091,2.3091,2.3109,2.3091,2.3109,2.3109,2.3091,0.0,0.0,2.4171,2.4936,2.6401,0.0,0.0,3.1455,3.4813,3.6103,3.6689,3.6706,3.6609,0.0,3.6493,3.7224,3.7498,3.7323,3.7305,3.7061,3.6493,3.651,3.651,3.6493,3.6493,3.651,3.6528,3.7269,3.8034,3.8799,3.9118,3.9272,0.0,3.8014,3.7097,3.6343,3.5525,3.571,3.6348,3.6252,3.6653,3.7137,3.6142,3.5317,3.4938,3.6252,3.6184,3.5987,3.8117,3.7896,3.703,3.7547,3.7707,3.7576,3.6787,3.6659,3.6479,3.5774,3.5576,3.5611,3.5728,3.4658,3.4206,3.6279,3.552,3.5094,3.6964,3.6689,3.6172,3.6172,3.6172,3.6062,3.5661,3.5616,3.5436,3.4977,3.5299,3.512,3.3974,3.3894,3.4108,3.4579,3.4598,3.4764,3.5169,3.5204,3.5186,3.5186,3.5186,3.4847,3.4097,3.4097,3.3669,3.2916,3.2916,3.3312,2.5874,2.6495,2.6601,2.6216,2.5875,2.5242,2.3716,0.0,2.289,2.289,2.289,2.2857,2.2764,2.2857,2.2933,2.2833,2.2985,0.0,0.0,0.0,0.0,2.8688,3.1911,3.423,0.0,0.0,3.6446,3.6172,3.613,3.6088,3.6088,3.6766,3.7076,3.6768,3.7726,3.7696,3.651,3.7513,3.7343,3.6088,3.662,3.6446,3.5694,3.6441,3.714,3.7824,3.837,3.8606,3.8455,3.7586,3.712,3.6821,3.6024,3.6141,3.682,3.7283,3.7477,3.7587,3.7797,3.7695,3.7564,3.7986,3.7986,3.7796,3.7931,3.8059,3.8236,3.8395,3.81,3.7675,3.7445,3.7003,3.6577,3.6364,3.6299,3.6315,3.635,3.6383,3.6303,3.6026,3.6009,3.5843,3.5471,3.5588,3.5819,3.5914,3.5835,3.5787,3.5756,3.5324,3.4913,3.4804,3.4977,3.5086,3.5086,3.5317,3.5566,3.5688,3.5238,3.5,3.514,3.514,3.5011,3.4799,3.5275,3.4941,3.367,3.4182,3.4305,3.4058,3.4337,3.4479,0.0,2.4849,2.4838,2.4648,2.4516,0.0,0.0,0.0,2.2485,2.2485,2.2485,2.2476,2.2392,2.2493,2.2632,2.2811,2.277,0.0,0.0,0.0,0.0,2.8435,0.0,0.0,0.0,3.5385,3.589,3.5616,3.5571,3.5526,3.5526,3.6236,3.6424,3.5933,3.7504,3.7847,3.6727,3.7621,3.7347,3.5949,3.6375,3.6101,3.5168,3.5902,3.6437,3.6854,3.7851,3.7983,0.0,3.7483,3.7201,3.6704,3.6754,3.6966,3.7409,3.8064,3.8079,3.779,3.7913,3.7794,3.7568,3.7495,3.7598,3.769,3.7068,3.7515,3.827,3.827,3.7936,3.7628,3.7905,3.7432,3.6943,3.722,3.7302,3.7285,3.7355,3.7486,3.749,3.6921,3.6725,3.6462,3.5824,3.5856,3.5987,3.6105,3.5825,3.5645,3.5695,3.5103,3.4643,3.4643,3.4691,3.4883,3.5178,3.5509,3.5776,3.5977,3.5523,3.5368,3.5518,3.5518,3.5417,3.5227,3.5645,3.5296,3.4077,3.4269,3.4318,3.4262,3.4508,3.4629,0.0,2.3009,0.0,0.0,0.0,0.0,0.0,0.0,0.0,2.1998,2.1998,2.1998,2.1998,2.2032,2.23,2.3003,2.2568,2.2635,0.0,2.4377,0.0,0.0,3.15,0.0,3.2964,3.4234,3.5105,3.5105,3.4994,3.4899,3.4899,3.5595,3.5694,3.4998,3.6824,3.7547,3.7036,3.7185,3.6837,3.6009,3.6059,3.5694,3.4998,3.5694,3.6059,0.0,3.7615,3.7433,0.0,3.7597,3.7349,3.6175,3.739,3.7896,3.7974,3.8449,3.8254,3.7594,3.6769,3.6099,3.5581,3.5369,3.5599,3.5963,3.5743,3.6415,3.7282,3.7282,3.7233,3.7351,3.8036,3.7729,3.7422,3.8109,3.8303,3.8335,3.8504,3.7984,3.7731,3.8498,3.7518,3.6783,3.7474,3.7065,3.664,3.6623,3.6051,3.566,3.566,3.4972,3.4513,3.4579,3.453,3.4497,3.4497,3.4756,3.5055,3.5498,3.5526,3.5688,3.6105,3.6088,3.6088,3.6147,3.6096,3.5752,3.5108,3.4318,3.3877,3.383,3.383,3.4165,2.1878,0.0,2.2136,2.2224,2.2182,2.2102,0.0,0.0,0.0,0.0,0.0,0.0,2.1911,2.2378,2.2859,2.3056,2.3438,2.3792,2.4143,0.0,0.0,2.8465,3.1692,3.3378,3.2071,3.3752,3.4947,3.4947,3.4899,3.4899,3.4899,3.5595,3.5926,3.5744,3.6655,3.6854,3.6257,3.793,3.7831,3.6009,3.6572,3.6456,3.5744,3.5926,3.6622,3.7715,3.7959,3.7857,3.756,3.7752,3.7334,3.6593,3.686,3.6972,3.6939,3.7097,3.698,3.6661,3.6291,3.6107,3.5937,3.5719,3.5254,3.4684,3.4684,3.5374,3.6213,3.6213,3.6153,3.6198,3.6232,3.6538,3.6786,3.688,3.7271,3.7653,3.7653,3.7526,3.7303,3.7011,3.6676,3.6382,3.6275,3.65,3.6728,3.6548,3.6283,3.6186,3.6274,3.5149,3.4561,3.5132,3.4791,3.4497,3.4497,3.4546,3.4691,3.4913,3.4913,3.5008,3.5195,3.5085,3.5253,3.5732,3.5101,3.4912,3.5194,3.4408,3.4341,3.488,3.5231,3.529,2.1589,2.1664,2.1724,2.1724,2.1724,2.1724,0.0,0.0,0.0,0.0,0.0,0.0,0.0,0.0,0.0,0.0,2.3847,0.0,0.0,0.0,2.8854,2.9812,3.1988,3.3305,0.0,3.4157,3.4804,3.4804,3.4739,3.4707,3.4707,3.507,3.5284,3.5284,3.5959,3.6355,3.6406,3.7527,3.7362,3.5795,3.6206,3.6174,3.5795,3.5795,3.6421,3.7439,3.7416,3.7189,3.6929,3.7158,3.6867,3.6253,3.6526,3.6635,3.66,3.6415,3.6104,3.5804,3.5612,3.5225,3.4736,3.4389,3.3862,3.3422,3.3283,3.3656,3.424,3.4919,3.5424,3.5793,3.5692,3.6137,3.6583,3.6482,3.6939,3.7417,3.7417,3.7417,3.7306,3.6943,3.688,3.6811,3.6546,3.6842,3.7068,3.6926,3.6565,3.6428,3.6615,3.5647,3.5182,3.576,3.5503,3.5179,3.4821,3.4805,3.4758,3.4627,3.4594,3.4643,3.4691,3.4643,3.4771,3.5085,3.4655,3.4545,3.488,3.4499,3.4452,3.4785,3.5052,3.5005,2.1511,2.1542,2.1559,2.1589,2.1589,2.1603,0.0,0.0,0.0,0.0,0.0,0.0,0.0,0.0,0.0,0.0,0.0,0.0,2.6614,2.8025,2.9549,3.1361,3.2448,0.0,3.4405,3.4559,3.4578,3.4643,3.448,3.4382,3.4497,3.4382,3.4382,3.4382,3.4937,3.5607,3.6383,3.6561,3.6315,3.5594,3.5693,3.5758,3.5758,3.5754,3.6144,3.6792,0.0,0.0,3.5816,3.6479,3.6319,3.5718,3.6184,3.6291,3.6166,3.5852,3.5419,3.4861,3.4677,3.4002,3.3129,3.2561,3.2345,3.2273,3.2055,3.1982,3.2259,3.3561,3.4522,3.5265,3.5224,3.5604,3.6058,3.6153,3.6614,3.7027,3.7178,3.7238,3.7238,3.7238,3.7238,3.7298,3.7298,3.7373,3.7294,3.7133,3.6722,3.6432,3.6573,3.6063,3.587,3.6271,3.619,3.5868,3.5291,3.513,3.4961,3.4545,3.4513,3.4448,3.4448,3.4497,3.4497,3.4448,3.4448,3.4448,3.4448,3.4448,3.4399,3.425,3.425,3.4201,2.134,2.1356,2.1388,2.1559,2.1589,2.162,0.0,0.0,0.0,0.0,0.0,0.0,0.0,0.0,0.0,0.0,0.0,2.7495,0.0,0.0,3.1255,3.1543,0.0,3.3997,3.2974,3.3405,3.3986,3.4497,3.4036,3.3986,3.4497,3.4036,3.3751,3.3751,3.3761,3.3822,3.3934,3.5763,3.6315,3.5594,3.6217,3.6512,3.6528,3.6535,3.6942,3.7559,0.0,3.6565,3.6426,3.6461,3.6073,3.5428,3.5389,3.4993,3.4438,3.4332,3.4196,3.4005,3.3479,3.3044,3.2704,3.2273,3.1909,3.1703,3.1703,3.1703,3.169,3.1969,3.2318,3.2666,3.2553,3.2998,3.3596,3.4124,3.4773,3.5464,3.6243,3.6383,3.6445,3.66,3.6662,3.6739,3.6984,3.706,3.6773,3.5827,3.6121,3.6216,3.5672,3.5498,3.5656,3.6315,3.5855,3.5387,3.5276,3.4994,3.4755,3.4695,3.4441,3.4349,3.4349,3.4448,3.4399,3.4151,3.425,3.425,3.4151,3.4151,3.4151,3.4151,3.4151,3.4,2.1309,2.1309,2.1309,2.1419,2.145,2.145,0.0,0.0,0.0,0.0,0.0,0.0,0.0,0.0,0.0,0.0,0.0,2.8622,2.9568,3.0323,3.1106,0.0,0.0,3.2983,3.308,3.3315,3.3598,3.3885,3.3563,3.3495,3.3783,3.3251,3.2933,3.2933,3.2895,3.2826,3.2687,3.3707,3.4638,3.5391,3.5388,3.569,3.6302,3.598,3.6188,3.6691,0.0,3.5691,3.5627,3.519,3.4905,3.4587,3.452,3.4249,3.3937,3.3577,3.3368,3.3143,3.2489,3.22,3.2055,3.1629,3.1421,3.1272,3.1123,3.1198,3.1272,3.1123,3.1556,3.206,3.2047,3.2455,3.2989,3.3246,3.3811,3.4514,3.5335,3.5529,3.5721,3.6274,3.6414,3.6554,3.6693,3.6754,3.6583,3.6082,3.6253,3.6391,3.6272,3.6225,3.6393,3.6868,3.6616,3.6269,3.5922,3.5688,3.5243,3.441,3.4651,3.4607,3.4217,3.4624,3.454,3.3915,3.4101,3.4,3.3658,3.3797,3.3797,3.3658,3.3658,3.3607,2.1183,2.1183,2.1183,0.0,0.0,0.0,0.0,0.0,0.0,0.0,0.0,0.0,0.0,0.0,0.0,2.6858,2.8249,2.9279,2.9744,3.0163,3.0965,3.2443,3.2047,3.2098,3.3212,3.3114,3.3024,3.3145,3.2917,3.281,3.2917,3.2407,3.2089,3.2089,3.2089,3.2018,3.186,3.1972,3.2858,3.4409,3.4069,3.4388,3.5256,3.4973,3.5014,3.5341,3.4868,3.4706,3.4639,3.4142,3.3896,3.3896,3.3827,3.3744,3.3591,3.3072,3.2775,3.2489,3.185,3.1629,3.1556,3.1123,3.0986,3.0986,3.0849,3.0849,3.0911,3.0773,3.1198,3.169,3.185,3.2187,3.2519,3.2648,3.3059,3.3533,3.4394,3.4795,3.5109,3.5514,3.5885,3.6121,3.5919,3.6059,3.6122,3.5968,3.6292,3.6569,3.666,3.6784,3.6984,3.7194,3.7178,3.6971,3.6353,3.6306,3.5719,3.4458,3.4913,3.4961,3.4414,3.4913,3.4775,3.3862,3.4053,3.387,3.3309,3.3662,3.3662,3.3309,3.3467,3.3414,2.0827,2.0827,2.0827,2.0827,0.0,0.0,0.0,0.0,0.0,0.0,0.0,0.0,0.0,0.0,2.6857,2.7688,2.8535,2.977,3.1723,0.0,3.1935,3.3329,3.2851,3.247,3.2579,3.2003,3.1879,3.2437,3.1921,3.1792,3.2139,3.1607,3.1218,3.1087,3.1087,3.1087,3.1087,3.1649,3.2018,3.212,3.273,3.3066,3.313,3.3737,3.4016,3.4026,3.3989,3.3951,3.3951,3.3896,3.3896,3.3896,3.3675,3.3297,3.2775,3.2775,3.2489,3.2055,3.1703,3.1629,3.1556,3.1123,3.0986,3.0986,3.0986,3.0836,3.0773,3.0911,3.0748,3.0583,3.0973,3.1136,3.1334,3.2015,3.2218,3.2506,3.3422,3.4124,3.4514,3.3945,3.4569,3.4908,3.4184,3.4753,3.5064,3.4438,3.5615,3.6261,3.569,3.6168,3.6554,3.6554,3.6554,3.6383,3.5985,3.5923,3.5712,3.5268,3.5268,3.5268,3.5221,3.5268,3.4968,3.4273,3.4257,3.3941,3.3309,3.3941,3.3941,3.3309,3.3957,3.3763,2.0794,2.0893,2.099,2.099,0.0,0.0,0.0,0.0,0.0,0.0,0.0,0.0,0.0,0.0,2.6951,2.7648,2.8533,2.9515,3.0702,3.1139,3.1348,3.1462,3.1509,3.1426,3.102,3.1138,3.1113,3.0994,3.1111,3.1098,3.0893,3.0617,3.0493,3.0433,3.0447,3.0372,3.0269,3.051,3.0569,3.0464,3.1678,3.2482,3.2778,3.3056,3.3097,3.2992,3.3391,3.3536,3.3536,3.3536,3.3536,3.3466,3.3157,3.2917,3.2632,3.22,3.1909,3.1776,3.1347,3.1198,3.1198,3.0911,3.0849,3.0773,3.0533,3.0457,3.052,3.0457,3.0533,3.0609,3.0761,3.0849,3.0911,3.1185,3.132,3.1603,3.2448,3.2918,3.3269,3.3561,3.4324,3.4847,3.4587,3.5183,3.5491,3.4821,3.5217,3.5523,3.5309,3.5554,3.5891,3.6445,3.6492,3.6446,3.6306,3.6275,3.6228,3.604,3.6032,3.578,3.5338,3.5733,3.5581,3.4704,3.4872,3.4635,3.4048,3.4451,3.4451,3.4048,3.4312,3.3991,2.0628,2.0761,2.0893,0.0,0.0,0.0,0.0,0.0,0.0,0.0,0.0,0.0,0.0,0.0,0.0,0.0,2.8323,2.928,2.9847,3.0207,3.0297,3.006,3.0279,3.0295,2.9856,3.0207,3.028,2.9856,3.0017,2.99,2.9462,2.9432,2.9476,2.9629,2.9629,2.9652,2.9761,2.9761,2.9651,2.9477,3.0483,3.1257,3.1705,3.1895,3.1942,3.185,3.2469,3.2736,3.2764,3.296,3.3073,3.3086,3.2775,3.2561,3.2273,3.1776,3.1482,3.1347,3.1136,3.0986,3.0986,3.0773,3.0698,3.0622,3.0305,3.0216,3.0292,3.0228,3.0305,3.0394,3.047,3.0622,3.0773,3.0773,3.0911,3.1071,3.1435,3.1744,3.2034,3.2124,3.3047,3.3732,3.3465,3.4222,3.4743,3.4297,3.4401,3.4726,3.5057,3.4853,3.5082,3.5961,3.5824,3.5919,3.6476,3.6211,3.6211,3.6492,3.6487,3.6182,3.5712,3.6135,3.6013,3.5136,3.5237,3.5085,3.4475,3.4911,3.4911,3.4534,3.4691,3.4414,2.0304,2.0407,0.0,0.0,0.0,0.0,0.0,0.0,0.0,0.0,0.0,0.0,0.0,0.0,0.0,2.6525,2.7919,2.9218,2.9539,2.9068,2.8951,2.9569,2.936,2.9168,2.9168,2.9168,2.9168,2.9168,2.8568,2.814,2.8024,2.801,2.8205,2.8675,2.8689,2.8984,2.9602,2.9602,2.9415,2.9099,2.9099,2.9289,2.9631,3.0249,3.0465,3.0558,3.1204,3.1485,3.1541,3.2145,3.2542,3.269,3.2704,3.2273,3.1629,3.1629,3.1347,3.0986,3.0986,3.0986,3.0986,3.0773,3.0698,3.0698,3.0444,3.0292,3.0152,3.0368,3.0075,2.9869,3.0088,3.0533,3.0986,3.0986,3.0986,3.0817,3.0255,3.065,3.0818,2.9521,3.0405,3.1135,3.0419,3.1555,3.2528,3.2461,3.3189,3.3945,3.4795,3.4163,3.4081,3.4978,3.4351,3.4584,3.6305,3.5593,3.5514,3.6429,3.6492,3.6492,3.6492,3.6492,3.6184,3.5507,3.5491,3.5168,3.4491,3.5168,3.5153,3.4506,3.5183,3.5122,2.0304,2.0748,0.0,0.0,0.0,0.0,0.0,0.0,0.0,0.0,0.0,0.0,0.0,0.0,0.0,2.7476,2.7489,2.7603,2.8176,2.78,2.7414,2.7194,2.7783,2.805,2.754,2.7965,2.8036,2.7526,2.7781,2.7681,2.7159,2.7379,2.7792,2.8296,2.8112,2.8277,2.8908,2.8908,2.8844,2.8716,2.8716,2.878,2.8935,2.9525,2.98,2.9841,3.0445,3.0719,3.076,3.1364,3.1637,3.1758,3.1893,3.1776,3.1556,3.1272,3.1136,3.0986,3.0849,3.0773,3.0698,3.0394,3.0305,3.0241,3.0011,2.9934,2.9856,2.9934,3.0011,3.0011,3.0075,3.0305,3.052,3.0381,3.0149,2.9889,2.9722,2.9567,2.9373,2.9145,2.9854,3.0446,3.0392,3.1487,3.2281,3.1777,3.2241,3.2758,3.3149,3.3468,3.3808,3.4081,3.3922,3.4095,3.4898,3.4714,3.4795,3.535,3.535,3.5688,3.6492,3.6492,3.6399,3.6199,3.6184,3.6091,3.5891,3.6107,3.6091,3.5891,3.6107,3.583,2.0628,0.0,0.0,0.0,0.0,0.0,0.0,0.0,0.0,0.0,0.0,0.0,0.0,2.7083,0.0,2.7273,2.7202,2.7145,2.7232,2.7002,2.6686,2.6301,2.6947,2.7242,2.6849,2.7172,2.7171,2.6665,2.679,2.6635,2.6119,2.6279,2.6754,2.7618,2.7435,2.7718,2.8587,2.8587,2.8522,2.8406,2.8406,2.8327,2.821,2.8822,2.9116,2.9143,2.9509,2.9794,3.0106,3.046,3.0607,3.071,3.0847,3.0924,3.0976,3.0459,3.0377,3.0485,3.041,3.0274,3.0237,3.0165,3.0075,3.0088,2.9869,2.9792,2.9792,2.9792,2.9869,3.0011,3.0011,3.0075,3.0152,3.0228,3.0036,2.9804,2.9574,2.9087,2.8697,2.8679,2.9206,2.9714,2.9923,3.1015,3.1732,3.1293,3.1749,3.211,3.1956,3.2611,3.3125,3.3171,3.2905,3.3057,3.3998,3.3754,3.3891,3.4595,3.4528,3.4861,3.5816,3.6085,3.6163,3.6163,3.6414,3.6492,3.6492,3.6492,3.6492,3.6492,3.6492,3.6261,0.0,0.0,0.0,0.0,0.0,0.0,0.0,0.0,0.0,0.0,0.0,0.0,0.0,2.7239,2.7317,2.6337,2.7021,2.7423,2.6616,2.6457,2.6457,2.6457,2.6592,2.6722,2.6666,2.6666,2.6553,2.6268,2.5784,2.5313,2.5005,2.4948,2.5463,2.666,2.664,2.7195,2.8346,2.8414,2.8247,2.7934,2.7987,2.7868,2.7523,2.8197,2.8522,2.8522,2.8522,2.8833,2.9334,2.9388,2.951,2.9704,2.9757,2.9847,2.9993,2.947,2.9444,2.9727,2.9654,2.9545,2.9538,2.991,3.0037,3.0011,2.9869,2.9792,2.9792,2.9792,2.9792,2.9792,2.9792,2.9792,2.9869,3.0292,3.033,3.015,2.9563,2.9014,2.8536,2.8164,2.8544,2.9048,2.9203,3.0116,3.0921,3.0973,3.1529,3.1736,3.1061,3.1639,3.2124,3.2236,3.1527,3.1774,3.3352,3.2777,3.2847,3.4027,3.3754,3.3891,3.4595,3.5219,3.5578,3.5533,3.6054,3.6321,3.6337,3.6399,3.6429,3.6492,3.6414,3.6274,0.0,0.0,0.0,0.0,0.0,0.0,0.0,0.0,0.0,0.0,0.0,0.0,2.7443,2.7394,2.7155,2.6916,2.6842,2.6721,2.651,2.6258,2.6056,2.6056,2.606,2.5994,2.5786,2.58,2.5674,2.5308,2.5199,2.5075,2.5005,2.4765,2.4972,2.5648,2.5508,2.5717,2.638,2.6892,2.7051,2.7,2.7446,2.7603,2.7536,2.7656,2.7723,2.7723,2.7723,2.7802,2.7946,2.8462,2.8657,2.8746,2.9219,2.9411,2.9444,2.9158,2.9113,2.9145,2.8771,2.8918,2.9238,2.9214,2.9491,2.9869,2.9792,2.9792,2.9792,2.9792,2.9792,2.9792,2.9792,2.9792,2.9792,2.9934,2.9593,2.9227,2.9026,2.8646,2.8217,2.8333,2.8409,2.8545,2.8736,2.9327,3.0018,3.0709,3.1048,3.1198,3.0986,3.1154,3.1262,3.132,3.1154,3.1262,3.2028,3.1896,3.1969,3.2533,3.2461,3.2533,3.2676,3.3905,3.4559,3.4332,3.4951,3.5239,3.5184,3.5637,3.6085,3.6492,3.5737,3.5385,0.0,0.0,0.0,0.0,0.0,0.0,0.0,0.0,0.0,0.0,0.0,2.6937,2.6981,2.7033,2.7019,2.6864,2.6669,2.6404,2.6258,2.5893,2.5702,2.5702,2.5578,2.5397,2.5244,2.5257,2.5131,2.4765,2.4765,2.4708,2.4563,2.4376,2.4582,2.5176,2.5297,2.5654,2.6229,2.6791,2.7079,2.7092,2.7392,2.7523,2.7523,2.7523,2.7523,2.7523,2.7523,2.7523,2.7549,2.785,2.7968,2.8007,2.832,2.8608,2.8817,2.8321,2.833,2.8421,2.8137,2.829,2.8722,2.8837,2.9315,2.9792,2.9792,2.9792,2.9792,2.9792,2.9792,2.9792,2.9792,2.9792,2.9792,2.9792,2.9566,2.934,2.934,2.89,2.8573,2.872,2.8794,2.8867,2.9001,2.9622,3.0274,3.0797,3.0911,3.0986,3.0986,3.0986,3.0986,3.0986,3.0986,3.1061,3.1272,3.1347,3.1482,3.185,3.1703,3.1703,3.2055,3.2662,3.3128,3.3499,3.4004,3.4501,3.4842,3.4765,3.5059,3.5688,3.4846,3.4432,0.0,0.0,0.0,0.0,0.0,0.0,0.0,0.0,0.0,0.0,0.0,2.6674,2.6249,2.6564,2.6759,2.6457,2.6365,2.6204,2.5893,2.5592,2.5439,2.5439,2.5188,2.5005,2.4935,2.4878,2.4765,2.4478,2.4408,2.4305,2.4112,2.4112,2.4387,2.5009,2.5432,2.5955,2.6517,2.7092,2.7379,2.7379,2.7484,2.7523,2.7523,2.7523,2.7523,2.7523,2.7523,2.7523,2.7523,2.7523,2.7523,2.7523,2.7469,2.7756,2.8108,2.7437,2.7443,2.7646,2.7551,2.7801,2.8197,2.875,2.9315,2.9792,2.9792,2.9792,2.9792,2.9792,2.9792,2.9792,2.9792,2.9792,2.9792,2.9792,2.9792,2.9792,2.9792,2.9415,2.9076,2.929,2.9277,2.9365,2.9527,3.0149,3.0622,3.0836,3.0911,3.0911,3.0911,3.0986,3.0986,3.0986,3.0986,3.0986,3.0986,3.0986,3.1123,3.1482,3.1198,3.1272,3.1909,3.1629,3.1836,3.2591,3.3129,3.3779,3.4368,3.3833,3.3959,3.4662,3.3891,3.3408,0.0,0.0,0.0,0.0,0.0,0.0,0.0,0.0,0.0,0.0,2.5105,2.5885,2.6347,2.624,2.6042,2.6002,2.5798,2.5592,2.555,2.5244,2.5075,2.5075,2.5005,2.4878,2.4567,2.458,2.4478,2.4157,2.4157,2.4171,2.4112,2.4112,2.4387,2.5009,2.504,2.5354,2.5929,2.6504,2.6791,2.6791,2.7288,2.7523,2.7523,2.7523,2.7523,2.7523,2.7523,2.7523,2.7523,2.7523,2.7523,2.7456,2.7403,2.7387,2.7372,2.6956,2.6833,2.6904,2.7258,2.7645,2.8197,2.875,2.9315,2.9792,2.9792,2.9792,2.9792,2.9792,2.9792,2.9792,2.9792,2.9792,2.9792,2.9792,2.9792,2.9792,2.9792,2.9729,2.9679,2.9666,2.9756,2.9756,2.9756,2.996,3.0152,3.0228,3.0546,3.0773,3.0773,3.0911,3.0986,3.0986,3.0986,3.0986,3.0986,3.0986,3.0986,3.1061,3.1061,3.1061,3.1123,3.1136,3.1123,3.1272,3.1982,3.2343,3.2426,3.2807,3.3269,3.3808,3.2989,3.2577,0.0,0.0,0.0,0.0,0.0,0.0,0.0,0.0,0.0,2.4554,2.5208,2.5824,2.6094,2.6002,2.5839,2.5702,2.5605,2.5439,2.5257,2.4948,2.4694,2.4694,2.4607,2.4447,2.4261,2.4261,2.4216,2.4112,2.4112,2.4112,2.4112,2.4426,2.4713,2.5022,2.5651,2.5983,2.6116,2.6739,2.6959,2.684,2.7098,2.7214,2.7214,2.7214,2.7335,2.7523,2.7523,2.7523,2.7523,2.7523,2.7469,2.7403,2.7335,2.7395,2.7528,2.7265,2.7208,2.7246,2.7276,2.7645,2.8147,2.8386,2.9063,2.9729,2.9402,2.9528,2.9729,2.9402,2.9541,2.9792,2.9792,2.9792,2.9792,2.9792,2.9792,2.9792,2.9792,2.9792,2.9792,2.9792,2.9792,2.9869,2.9934,3.0011,3.0152,3.0216,3.0457,3.0533,3.0533,3.0596,3.0685,3.0849,3.0849,3.0911,3.0986,3.0986,3.0986,3.0986,3.0986,3.0986,3.0986,3.0986,3.0986,3.0986,3.1347,3.1702,3.205,3.1906,3.216,3.2763,3.2028,3.1616,0.0,0.0,0.0,0.0,0.0,0.0,0.0,0.0,0.0,0.0,2.5306,2.5798,2.5798,2.5798,2.5743,2.555,2.5369,2.5188,2.4878,2.4593,2.4421,2.4421,2.4216,2.4112,2.4112,2.4243,2.4282,2.4125,2.4387,2.4491,2.4347,2.487,2.5249,2.5331,2.6166,2.6622,2.6581,2.6994,2.7146,2.7024,2.7024,2.7024,2.7024,2.7024,2.7146,2.7403,2.7403,2.7403,2.7403,2.7403,2.7335,2.7227,2.7369,2.7541,2.7774,2.7728,2.7721,2.7746,2.7729,2.7971,2.8335,2.8486,2.9101,2.9716,2.9289,2.9453,2.9626,2.9023,2.9287,2.9702,2.9209,2.93,2.9378,2.9209,2.9131,2.9209,2.9714,2.9792,2.9792,2.9792,2.9792,2.9869,3.0011,3.0011,3.0075,3.0228,3.0292,3.0292,3.0292,3.0368,3.0444,3.0698,3.0698,3.0773,3.0986,3.0986,3.0986,3.0986,3.0986,3.0986,3.0986,3.0986,3.0986,3.0986,3.0986,3.1259,3.1809,3.1259,3.1259,3.1809,3.1259,3.0986,0.0,0.0,0.0,0.0,0.0,0.0,0.0,0.0,0.0,0.0,2.4866,2.5494,2.5494,2.5494,2.5494,2.5494,2.4948,2.458,2.4523,2.4319,2.4112,2.4112,2.4112,2.4112,2.4112,2.4609,2.47,2.4151,2.5118,2.5497,2.4949,2.5471,2.5907,2.6324,2.6401,2.6554,2.6973,2.7011,2.7024,2.7024,2.7024,2.7024,2.7024,2.7024,2.7024,2.7024,2.7024,2.7024,2.7024,2.7024,2.7024,2.7075,2.7405,2.7563,2.7652,2.7943,2.8059,2.8147,2.8662,2.8863,2.8976,2.9528,2.9741,2.9779,2.9754,2.9767,2.9624,2.8755,2.9106,2.9378,2.773,2.7891,2.8371,2.7476,2.7232,2.773,2.9456,2.9792,2.9792,2.9792,2.9792,2.9792,2.9792,2.9792,2.9792,2.9869,3.0011,3.0152,3.0152,3.0292,3.0444,3.0698,3.0698,3.0773,3.0986,3.0986,3.0986,3.0986,3.0986,3.0986,3.0986,3.0986,3.0986,3.0986,3.0986,3.0986,3.1061,3.0986,3.0986,3.1061,3.0986,3.0986,0.0,0.0,0.0,0.0,0.0,0.0,0.0,0.0,2.4067,2.3798,2.4692,2.5439,2.5244,2.5188,2.5131,2.4878,2.4637,2.4465,2.4261,2.4157,2.4112,2.4112,2.4112,2.4112,2.4112,2.4635,2.4726,2.4164,2.5049,2.5376,2.4832,2.5536,2.6065,2.6205,2.6578,2.6806,2.6794,2.6726,2.6671,2.6671,2.6671,2.6671,2.6671,2.6671,2.6671,2.6671,2.6671,2.6807,2.705,2.7383,2.7467,2.7418,2.7906,2.8265,2.8447,2.8561,2.8637,2.8575,2.8209,2.8041,2.8078,2.8362,2.8668,2.8978,2.9187,2.908,2.8797,2.812,2.8028,2.7891,2.7232,2.7313,2.7557,2.7151,2.7069,2.7313,2.7891,2.8542,2.8961,2.8961,2.9456,2.9792,2.9792,2.9792,2.9792,2.9792,2.9869,2.9934,2.9934,2.9934,3.0088,3.0305,3.0457,3.0609,3.0773,3.0911,3.0986,3.0986,3.0986,3.0986,3.0986,3.0986,3.0986,3.0986,3.0986,3.0986,3.0986,3.0986,3.0986,3.0986,3.0986,3.0986,2.0311,0.0,0.0,0.0,0.0,0.0,0.0,0.0,2.3733,2.3527,2.4395,2.5131,2.4878,2.4778,2.4664,2.4523,2.4408,2.4319,2.4112,2.4112,2.4112,2.4112,2.4112,2.4112,2.4112,2.4805,2.5014,2.4333,2.5441,0.0,2.5202,2.5935,2.6368,2.6289,2.6671,2.6739,2.6658,2.6521,2.6533,2.6533,2.6533,2.6533,2.6533,2.6533,2.6533,2.6533,2.6533,2.6602,2.6845,2.7189,2.7386,2.7569,2.8053,2.8522,2.8875,2.8822,2.8731,2.8654,2.7753,2.7427,2.7427,2.7427,2.7676,2.806,2.8276,2.8174,2.79,2.7205,2.7036,2.6823,2.6246,2.608,2.5986,2.5986,2.5986,2.5986,2.5986,2.7069,2.8051,2.8051,2.8462,2.8882,2.8882,2.8882,2.8882,2.8882,2.8882,2.8882,2.8882,2.8882,2.9118,2.9599,2.9741,3.005,3.0533,3.0761,3.0836,3.0836,3.0836,3.0836,3.0911,3.0911,3.0911,3.0986,3.0911,3.0911,3.0911,3.0986,3.0986,3.0986,3.0986,3.0986,0.0,0.0,0.0,0.0,0.0,0.0,2.1326,0.0,2.3173,2.3187,2.3849,2.4496,2.4509,2.4261,2.4157,2.4465,2.4261,2.4112,2.4112,2.4112,2.4112,2.4112,2.4112,2.4112,2.4112,2.5132,2.5452,2.4722,2.6298,2.693,2.6165,2.6637,2.6875,2.6714,2.6589,2.6533,2.6533,2.6533,2.6533,2.6533,2.6465,2.6452,2.6452,2.6452,2.6452,2.6452,2.6452,2.6452,2.6465,2.6477,2.6804,2.7344,2.7883,2.8362,2.8837,2.856,2.845,2.8303,2.7395,2.7069,2.7069,2.7069,2.7069,2.7069,2.7069,2.7069,2.6894,2.6069,2.6235,2.6329,2.4605,2.4024,2.3841,2.3841,2.3841,2.3841,2.3841,2.5495,2.6987,2.7069,2.7069,2.7069,2.7069,2.7069,2.7069,2.7069,2.7069,2.7069,2.7069,2.7069,2.7557,2.8633,2.8791,2.9184,3.0203,3.0279,3.0355,3.0368,3.0368,3.0444,3.0698,3.0698,3.0761,3.0986,3.0773,3.0698,3.0698,3.0911,3.0986,3.0986,3.0986,3.0986,2.0523,0.0,0.0,0.0,0.0,0.0,0.0,0.0,0.0,2.2883,2.3458,2.4,2.4195,2.4171,2.4112,2.4216,2.4171,2.4112,2.4112,2.4112,2.4112,2.4112,2.4112,2.4067,2.3949,2.4585,2.4874,0.0,2.5601,2.6187,2.5955,2.6354,2.6602,2.6589,2.6521,2.6533,2.6533,2.6533,2.6533,2.6465,2.5886,2.5594,2.5594,2.5594,2.5594,2.5594,2.5594,2.5594,2.57,2.6669,2.7143,2.726,2.7262,2.7566,2.79,2.7278,2.7254,2.7395,2.6483,2.6152,2.6152,2.6152,2.6152,2.6318,2.6894,2.6565,2.5902,2.5652,2.5158,2.4498,2.4013,2.3841,2.3841,2.3841,2.3841,2.3841,2.3841,2.4251,2.4914,2.5546,2.6472,2.7058,2.6894,2.6976,2.7069,2.7069,2.7069,2.7069,2.7069,2.7069,2.7232,2.7557,2.7718,2.7959,2.8267,2.8414,2.8821,2.9406,2.9484,2.9806,3.0444,3.0444,3.052,3.0596,3.052,3.0444,3.0444,3.052,3.0596,3.0596,3.0596,3.0596,0.0,0.0,0.0,0.0,0.0,0.0,2.0799,2.1449,2.2083,0.0,2.2948,2.3566,2.3681,2.3942,2.4112,2.4112,2.4112,2.4112,2.4112,2.4112,2.4112,2.4112,2.4067,2.4008,2.3891,2.4322,2.4523,2.4351,2.5319,2.5858,2.5667,2.555,2.5499,2.5499,2.5499,2.5499,2.5499,2.5499,2.5499,2.5499,2.5004,2.4791,2.4791,2.4791,2.4791,2.4791,2.4791,2.4791,2.4886,2.5624,2.6105,2.6336,2.6184,2.6529,2.7023,2.6246,2.6231,2.64,2.5589,2.5263,2.5263,2.5263,2.5263,2.5348,2.5757,2.5421,2.4925,2.4829,2.4251,2.3667,2.358,2.3493,2.3493,2.3493,2.3493,2.3493,2.3493,2.358,2.3831,2.4478,2.5158,2.5663,2.5579,2.5663,2.5746,2.5841,2.5924,2.5924,2.6008,2.6008,2.6174,2.6494,2.673,2.6976,2.7313,2.7452,2.7695,2.8199,2.8279,2.8688,2.9651,2.9729,2.9973,3.0368,3.0292,3.0228,3.0152,3.0292,3.0368,3.0368,3.005,3.0037,0.0,0.0,0.0,0.0,0.0,0.0,2.0461,2.0901,2.1264,2.1329,2.2143,2.2837,2.2915,2.3406,2.3806,2.3806,2.3865,2.3923,2.3995,2.3995,2.3995,2.3923,2.3819,2.37,2.37,2.3956,2.4077,2.3966,2.4983,2.55,2.5205,2.4492,2.4108,2.4108,2.4108,2.4108,2.4108,2.4108,2.4108,2.4108,2.4047,2.3975,2.3975,2.3975,2.3975,2.3975,2.3975,2.3975,2.3975,2.3902,2.4249,2.4895,2.482,2.5364,2.6166,2.5231,2.5256,2.5579,2.4723,2.4498,2.454,2.454,2.4454,2.4454,2.4282,2.4206,2.4024,2.3754,2.358,2.3406,2.3144,2.3135,2.3135,2.3135,2.3135,2.3135,2.3135,2.3319,2.3503,2.3667,2.3754,2.3754,2.3754,2.3754,2.3841,2.411,2.4206,2.4196,2.4454,2.4454,2.4775,2.5579,2.5663,2.5997,2.6741,2.6823,2.6823,2.6976,2.6987,2.7476,2.8554,2.8633,2.9028,3.0037,2.9896,2.9677,2.9468,2.9985,3.0203,3.0292,2.9316,2.9328,0.0,0.0,0.0,0.0,0.0,0.0,2.0233,2.0041,1.9918,0.0,2.0563,2.0779,2.1295,2.1753,2.2113,2.2113,2.2298,2.2738,2.345,2.3522,2.3378,2.2907,2.2604,2.2433,2.2322,2.2097,2.2072,2.2333,2.332,2.4003,2.4313,2.4192,2.4108,2.4108,2.4108,2.4108,2.4108,2.4108,2.4108,2.412,2.3486,2.3202,2.3202,2.3202,2.3202,2.3202,2.3202,2.3202,2.3139,2.2542,2.3012,2.4196,2.3642,2.393,2.4555,2.343,2.375,2.4648,2.421,2.424,2.454,2.454,2.4368,2.4292,2.4206,2.3937,2.359,2.3309,2.3232,2.3144,2.3135,2.3135,2.3135,2.3135,2.3135,2.3135,2.3135,2.3144,2.3232,2.3232,2.358,2.3754,2.359,2.3667,2.3841,2.3841,2.3841,2.3927,2.4206,2.4292,2.4368,2.47,2.4775,2.4775,2.5031,2.5031,2.5274,2.5986,2.6069,2.6483,2.7395,2.7395,2.7557,2.7706,2.7718,2.7637,2.7649,2.845,2.9197,2.9856,2.8211,2.7959,0.0,0.0,0.0,2.0524,0.0,0.0,0.0,1.9759,1.951,1.9768,1.9756,1.9792,2.0133,2.0759,2.1228,2.1228,2.1749,2.2113,2.2125,2.2616,2.2871,2.2408,2.2113,2.1939,2.169,2.1388,2.1562,2.2223,2.2365,2.2775,2.3514,2.318,2.2957,2.2957,2.2957,2.2957,2.2957,2.2957,2.2957,2.2957,2.2617,2.2402,2.2402,2.2402,2.2402,2.2402,2.2402,2.2402,2.2402,2.1959,2.2241,2.2894,2.2542,2.2828,2.3324,2.272,2.307,2.3867,2.3877,2.4022,2.425,2.4467,2.4368,2.4206,2.4024,2.3667,2.3232,2.3144,2.3135,2.3135,2.3135,2.3135,2.3135,2.3135,2.3135,2.3135,2.3135,2.3135,2.3135,2.3135,2.3309,2.3406,2.3319,2.3406,2.3493,2.3667,2.3667,2.3764,2.3937,2.411,2.4206,2.4378,2.4454,2.454,2.454,2.454,2.47,2.5094,2.5179,2.5505,2.6412,2.6483,2.6772,2.7447,2.7447,2.7447,2.7447,2.7529,2.7813,2.8383,2.7069,2.6905,0.0,0.0,0.0,0.0,0.0,2.0727,0.0,0.0,0.0,1.9251,1.9218,0.0,0.0,0.0,0.0,0.0,0.0,0.0,0.0,2.1409,0.0,2.1729,2.1553,2.1376,2.1071,2.0869,2.1113,2.1981,2.1552,2.1646,2.2594,2.2134,2.1807,2.1807,2.1807,2.1807,2.1807,2.1807,2.1807,2.1807,2.1807,2.1807,2.1807,2.1807,2.1807,2.1807,2.1807,2.1807,2.1807,2.1807,2.1807,2.1807,2.1807,2.2087,2.248,2.2397,2.2708,2.3225,2.3515,2.3732,2.3939,2.4206,2.4211,2.4024,2.3754,2.3406,2.3135,2.3144,2.3144,2.3135,2.3144,2.3144,2.3135,2.3135,2.3135,2.3135,2.3135,2.3135,2.3135,2.3135,2.3135,2.3135,2.3135,2.3135,2.3135,2.3406,2.3416,2.3493,2.3667,2.3937,2.412,2.411,2.4282,2.4368,2.4368,2.445,2.4502,2.4502,2.4584,2.5047,2.569,2.5764,2.6289,2.7368,2.7464,2.7464,2.7464,2.6605,2.6565,2.7069,2.5997,2.5997,0.0,0.0,0.0,0.0,2.0945,0.0,0.0,0.0,1.8669,1.8669,0.0,0.0,0.0,0.0,0.0,0.0,0.0,0.0,1.9222,1.9823,2.0355,2.0355,2.0042,1.9868,1.9802,1.9528,1.9551,2.0065,2.0334,2.0792,2.1313,2.1655,2.1807,2.1807,2.1807,2.1807,2.1807,2.1807,2.1807,2.1807,2.1807,2.1807,2.1807,2.1807,2.1807,2.1807,2.1807,2.1807,2.1807,2.1807,2.1807,2.1807,2.1807,2.2087,2.2449,2.2035,2.2439,2.3143,2.278,2.3194,2.3888,2.3678,2.3614,2.3503,2.3232,2.3144,2.3144,2.3416,2.3319,2.3135,2.3406,2.3319,2.3135,2.3135,2.3135,2.3135,2.3135,2.3135,2.3135,2.3135,2.3135,2.3135,2.3135,2.3135,2.3135,2.3144,2.3144,2.3232,2.3493,2.359,2.3677,2.3841,2.3841,2.3841,2.3841,2.4291,2.4523,2.4523,2.5076,2.547,2.556,2.572,2.592,2.6151,2.6151,2.6151,2.6151,2.5586,2.5991,2.7069,2.5432,2.5105,0.0,0.0,0.0,0.0,0.0,0.0,1.9983,0.0,1.8594,0.0,0.0,0.0,0.0,0.0,0.0,0.0,1.9101,0.0,0.0,0.0,1.9791,0.0,0.0,0.0,1.9341,1.9208,1.9261,1.9796,1.9934,2.0234,2.069,2.1155,2.1404,2.1404,2.1662,2.1807,2.1807,2.1807,2.1807,2.1807,2.1807,2.1807,2.1807,2.1807,2.1807,2.1807,2.1807,2.1807,2.1807,2.1807,2.1807,2.1807,2.1807,2.1921,2.2066,2.188,2.2056,2.2439,2.278,2.3062,2.3299,2.3483,2.3527,2.3416,2.3144,2.3135,2.3135,2.3232,2.3232,2.3144,2.3232,2.3144,2.3135,2.3135,2.3135,2.3135,2.3135,2.3135,2.3135,2.3135,2.3135,2.3135,2.3135,2.3135,2.3135,2.3135,2.3135,2.3144,2.3232,2.3406,2.3503,2.358,2.3754,2.3841,2.3841,2.4012,2.4233,2.4494,2.5007,2.5351,2.5442,2.5432,2.5645,2.6105,2.5921,2.5818,2.5818,2.5391,2.5368,2.5572,2.4815,2.47,2.0805,0.0,0.0,0.0,0.0,0.0,0.0,0.0,0.0,0.0,0.0,0.0,0.0,0.0,0.0,0.0,0.0,1.9354,0.0,1.9257,0.0,0.0,0.0,0.0,0.0,1.9075,1.921,1.9551,1.9765,1.9903,2.0224,2.0803,2.1114,2.1114,2.1569,2.1807,2.1807,2.1807,2.1807,2.1807,2.1807,2.1807,2.1807,2.1731,2.1731,2.1731,2.1655,2.1655,2.1655,2.1655,2.1655,2.1731,2.1731,2.1731,2.1807,2.1807,2.189,2.2087,2.268,2.2829,2.2907,2.3342,2.3406,2.3319,2.3144,2.3135,2.3135,2.3232,2.3144,2.3135,2.3232,2.3144,2.3135,2.3135,2.3135,2.3135,2.3135,2.3135,2.3135,2.3135,2.3135,2.3135,2.3135,2.3135,2.3135,2.3135,2.3135,2.3135,2.3135,2.3232,2.3406,2.3406,2.3493,2.358,2.358,2.369,2.4087,2.4746,2.5077,2.54,2.5716,2.5623,2.5775,2.6306,2.6108,2.6013,2.6013,2.5571,2.5189,2.4857,2.4512,2.4344,0.0,0.0,0.0,2.0737,0.0,0.0,0.0,0.0,1.909,0.0,0.0,0.0,0.0,0.0,0.0,0.0,0.0,0.0,0.0,0.0,0.0,0.0,0.0,0.0,0.0,1.9075,1.9075,1.9085,1.951,1.9837,1.9848,2.0627,2.1114,2.1114,2.1569,2.1807,2.1807,2.1807,2.1807,2.1807,2.1807,2.1807,2.1807,2.1578,2.1502,2.1502,2.1282,2.1205,2.1205,2.1205,2.1359,2.1502,2.1502,2.1655,2.1807,2.1807,2.2087,2.248,2.2176,2.2432,2.2899,2.3355,2.3319,2.3135,2.3135,2.3135,2.3135,2.3406,2.3319,2.3144,2.3416,2.3319,2.3135,2.3135,2.3135,2.3135,2.3135,2.3135,2.3135,2.3135,2.3135,2.3135,2.3135,2.3135,2.3135,2.3135,2.3135,2.3135,2.3135,2.3144,2.3135,2.3135,2.3135,2.3135,2.3135,2.3525,2.4313,2.5367,2.5436,2.5814,2.6436,2.6456,2.6466,2.6476,2.6476,2.6476,2.6476,2.6023,2.5792,2.5752,2.4444,2.4072,0.0,0.0,1.911,1.9243,0.0,0.0,0.0,0.0,0.0,0.0,0.0,0.0,0.0,0.0,0.0,0.0,0.0,0.0,0.0,0.0,0.0,0.0,0.0,0.0,0.0,0.0,0.0,1.9075,1.9287,1.937,1.937,1.9882,2.0358,2.0648,2.1104,2.1497,2.1807,2.1655,2.1578,2.1578,2.1512,2.1425,2.1436,2.1359,2.1282,2.1282,2.1205,2.1205,2.1205,2.1205,2.1359,2.1502,2.1502,2.1655,2.1807,2.1807,2.1834,2.1896,2.21,2.2446,2.2928,2.3181,2.3135,2.3135,2.3135,2.3135,2.3135,2.3232,2.3144,2.3135,2.3232,2.3144,2.3135,2.3135,2.3135,2.3135,2.3135,2.3135,2.3135,2.3135,2.3135,2.2872,2.2236,2.2148,2.2413,2.3047,2.3135,2.3135,2.3135,2.3135,2.3135,2.3135,2.3135,2.3135,2.3135,2.3789,2.4453,2.5218,2.5447,2.5769,2.6197,2.6014,2.6014,2.6197,2.6014,2.5927,2.5927,2.5569,2.5204,2.4908,2.4372,2.4425,1.8347,1.8279,0.0,1.8414,1.8337,0.0,1.8482,0.0,1.8674,0.0,0.0,0.0,0.0,0.0,0.0,0.0,0.0,0.0,0.0,1.8808,0.0,0.0,0.0,0.0,0.0,1.9075,1.9075,1.9075,1.9075,1.9075,0.0,1.9665,2.0131,2.041,2.1031,2.1432,2.1655,2.1578,2.1425,2.1359,2.1282,2.1205,2.1205,2.1138,2.1051,2.1051,2.1051,2.0974,2.0974,2.0974,2.1128,2.1282,2.1282,2.1436,2.1578,2.1731,2.1783,2.1957,2.2436,2.2764,2.2955,2.3057,2.3135,2.3135,2.3135,2.3135,2.3135,2.3135,2.3135,2.3135,2.3135,2.3135,2.3135,2.3135,2.3135,2.3135,2.3135,2.3135,2.296,2.2687,2.2599,2.2325,2.1329,2.115,2.1329,2.1961,2.205,2.205,2.205,2.205,2.205,2.205,2.218,2.2329,2.2388,2.3626,2.4413,2.4555,2.514,2.5663,2.5907,2.583,2.583,2.5917,2.583,2.5742,2.5742,2.5449,2.5156,2.4883,2.4883,2.4977]},{"header":{"parameterUnit":"m.s-1","parameterCategory":1,"la1":30.6,"la2":29.2853,"lo1":-89.7004,"lo2":-87.6739,"dy":0.0162,"dx":0.0183,"nx":112,"ny":82,"refTime":"2023-07-22T06:00:00:Z","depth":0,"parameterNumber":3,"parameterNumberName":"V-component_of_WINDS"},"data":[0.0,0.0,0.0,0.0,0.0,0.0,0.0,0.0,0.0,0.0,0.0,0.0,0.0,0.0,0.0,0.0,0.0,0.0,0.0,0.0,0.0,0.0,0.0,0.0,0.0,0.0,0.0,0.0,0.0,0.0,0.0,0.0,0.0,0.0,0.0,0.0,0.0,0.0,0.0,0.0,0.0,0.0,0.0,0.0,0.0,0.0,0.0,0.0,0.0,0.0,0.0,0.0,0.0,0.0,0.0,0.0,0.0,0.0,0.0,0.0,0.0,0.0,0.0,0.0,0.0,0.0,0.0,0.0,0.0,0.0,0.0,0.0,0.0,0.0,0.0,0.0,0.0,0.0,0.0,0.0,0.0,0.0,0.0,0.0,0.0,0.0,0.0,0.0,0.0,0.0,-0.0565,-0.0638,-0.049,-0.0054,0.0833,0.0916,0.0884,0.0802,0.0,0.0,0.0,0.0,0.0,0.0,0.0,0.0,0.0,0.0,0.0,0.0,0.0,0.0,0.0,0.0,0.0,0.0,0.0,0.0,0.0,0.0,0.0,0.0,0.0,0.0,0.0,0.0,0.0,0.0,0.0,0.0,0.0,0.0,0.0,0.0,0.0,0.0,0.0,0.0,0.0,0.0,0.0,0.0,0.0,0.0,0.0,0.0,0.0,0.0,0.0,0.0,0.0,0.0,0.0,0.0,0.0,0.0,0.0,0.0,0.0,0.0,0.0,0.0,0.0,0.0,0.0,0.0,0.0,0.0,0.0,0.0,0.0,0.0,0.0,0.0,0.0,0.0,0.0,0.0,0.0,0.0,0.0,0.0,0.0,0.0,0.0,0.0,0.0,0.0,0.0,0.0,0.0,0.0,0.0,0.0,0.0,0.0,0.0,0.0,0.0,0.0,0.0,0.0,-0.0343,-0.0278,-0.0354,-0.0053,0.0805,0.0831,0.0802,0.0821,0.0,0.0,0.0,0.0,0.0,0.0,0.0,0.0,0.0,0.0,0.0,0.0,0.0,0.0,0.0,0.0,0.0,0.0,0.0,0.0,0.0,0.0,0.0,0.0,0.0,0.0,0.0,0.0,0.0,0.0,0.0,0.0,0.0,0.0,0.0,0.0,0.0,0.0,0.0,0.0,0.0,0.0,0.0,0.0,0.0,0.0,0.0,0.0,0.0,0.0,0.0,0.0,0.0,0.0,0.0,0.0,0.0,0.0,0.0,0.0,0.0,0.0,0.0,0.0,0.0,0.0,0.0,0.0,0.0,0.0,0.0,0.0,0.0,0.0,0.0,0.0,0.0,0.0,0.0,0.0,0.0,0.0,0.0,0.0,0.0,0.0,0.0,0.0,0.0,0.0,0.0,0.0,0.0,0.0,0.0,0.0,0.0,0.0,0.0,0.0,0.0,0.0,0.0,-0.0304,-0.0539,-0.0292,-0.0361,-0.0053,0.0852,0.0824,0.0745,0.0575,0.0562,0.0,0.0,0.0,0.0,0.0,0.0,0.0,0.0,0.0,0.0,0.0,0.0,0.0,0.0,0.0,0.0,0.0,0.0,0.0,0.0,0.0,0.0,0.0,0.0,0.0,0.0,0.0,0.0,0.0,0.0,0.0,0.0,0.0,0.0,0.0,0.0,0.0,0.0,0.0,0.0,0.0,0.0,0.0,0.0,0.0,0.0,0.0,0.0,0.0,0.0,0.0,0.0,0.0,0.0,0.0,0.0,0.0,0.0,0.0,0.0,0.0,0.0,0.0,0.0,0.0,0.0,0.0,0.0,0.0,0.0,0.0,0.0,0.0,0.0,0.0,0.0,0.0,0.0,0.0,0.0,0.0,0.0,0.0,0.0,0.0,0.0,0.0,0.0,0.0,0.0,0.0,0.0,0.0,0.0,0.0,0.0,0.0,0.0,0.0,0.0,0.0,0.0,-0.0722,-0.0837,-0.0346,-0.036,-0.0052,0.078,0.081,0.0687,0.0425,0.0412,0.0,0.0,0.0,0.0,0.0,0.0,0.0,0.0,0.0,0.0,0.0,0.0,0.0,0.0,0.0,0.0,0.0,0.0,0.0,0.0,0.0,0.0,0.0,0.0,0.0,0.0,0.0,0.0,0.0,0.0,0.0,0.0,0.0,0.0,0.0,0.0,0.0,0.0,0.0,0.0,0.0,0.0,0.0,0.0,0.0,0.0,0.0,0.0,0.0,0.0,0.0,0.0,0.0,0.0,0.0,0.0,0.0,0.0,0.0,0.0,0.0,0.0,0.0,0.0,0.0,0.0,0.0,0.0,0.0,0.0,0.0,0.0,0.0,0.0,0.0,0.0,0.0,0.0,0.0,0.0,0.0,0.0,0.0,0.0,0.0,0.0,0.0,0.0,0.0,0.0,0.0,0.0,0.0,0.0,0.0,0.0,0.0,0.0,0.0,0.0,0.0,0.0,-0.0695,-0.1141,-0.0382,-0.0346,-0.005,0.0725,0.0817,0.0707,0.0408,0.0405,0.0,0.0,0.0,0.0,0.0,0.0,0.0,0.0,0.0,0.0,0.0,0.0,0.0,0.0,0.0,0.0,0.0,0.0,0.0,0.0,0.0,0.0,0.0,0.0,0.0,0.0,0.0,0.0,0.0,0.0,0.0,0.0,0.0,0.0,0.0,0.0,0.0,0.0,0.0,0.0,0.0,0.0,0.0,0.0,0.0,0.0,0.0,0.0,0.0,0.0,0.0,0.0,0.0,0.0,0.0,0.0,0.0,0.0,0.0,0.0,0.0,0.0,0.0,0.0,0.0,0.0,0.0,0.0,0.0,0.0,0.0,0.0,0.0,0.0,0.0,0.0,0.0,0.0,0.0,0.0,0.0,0.0,0.0,0.0,0.0,0.0,0.0,0.0,0.0,0.0,0.0,0.0,0.0,0.0,0.0,0.0,0.0,0.0,0.0,0.0,0.0,0.0,-0.059,-0.1019,0.0,-0.0482,-0.0145,0.0381,0.0669,0.0705,0.0406,0.0,0.0,0.0,0.0,0.0,0.0,0.0,0.0,0.0,0.0,0.0,0.0,0.0,0.0,0.0,0.0,0.0,0.0,0.0,0.0,0.0,0.0,0.0,0.0,0.0,0.0,0.0,0.0,0.0,0.0,0.0,0.0,0.0,0.0,0.0,0.0,0.0,0.0,0.0,0.0,0.0,0.0,0.0,0.0,0.0,0.0,0.0,0.0,0.0,0.0,0.0,0.0,0.0,0.0,0.0,0.0,0.0,0.0,0.0,0.0,0.0,0.0,0.0,0.0,0.0,0.0,0.0,0.0,0.0,0.0,0.0,0.0,0.0,0.0,0.0,0.0,0.0,0.0,0.0,0.0,0.0,0.0,0.0,0.0,0.0,0.0,0.0,0.0,0.0,0.0,0.0,0.0,0.0,0.0,0.0,0.0,0.0,0.0,0.0,0.0,0.0,0.0,-0.0089,-0.0671,-0.0996,0.0,-0.0654,-0.0373,-0.0,0.0468,0.0649,0.0405,0.0,0.0,0.0,0.0,0.0,0.0,0.0,0.0,0.0,0.0,0.0,0.0,0.0,0.0,0.0,0.0,0.0,0.0,0.0,0.0,0.0,0.0,0.0,0.0,0.0,0.0,0.0,0.0,0.0,0.0,0.0,0.0,0.0,0.0,0.0,0.0,0.0,0.0,0.0,0.0,0.0,0.0,0.0,0.0,0.0,0.0,0.0,0.0,0.0,0.0,0.0,0.0,0.0,0.0,0.0,0.0,0.0,0.0,0.0,0.0,0.0,0.0,0.0,0.0,0.0,0.0,0.0,0.0,0.0,0.0,0.0,0.0,0.0,0.0,0.0,0.0,0.0,0.0,0.0,0.0,0.0,0.0,0.0,0.0,0.0,0.0,0.0,0.0,0.0,0.0,0.0,0.0,0.0,0.0,0.0,0.0,0.0,0.0,0.0,0.0,0.0,0.0,-0.0403,-0.103,-0.1254,-0.094,-0.0895,-0.076,-0.0447,0.0269,0.0584,0.0,0.0,0.0,0.0,0.0,0.0,0.0,0.0,0.0,0.0,0.0,0.0,0.0,0.0,0.0,0.0,0.0,0.0,0.0,0.0,0.0,0.0,0.0,0.0,0.0,0.0,0.0,0.0,0.0,0.0,0.0,0.0,0.0,0.0,0.0,0.0,0.0,0.0,0.0,0.0,0.0,0.0,0.0,0.0,0.0,0.0,0.0,0.0,0.0,0.0,0.0,0.0,0.0,0.0,0.0,0.0,0.0,0.0,0.0,0.0,0.0,0.0,0.0,0.0,0.0,0.0,0.0,0.0,0.0,0.0,0.0,0.0,0.0,0.0,0.0,0.0,0.0,0.0,0.0,0.0,0.0,0.0,0.0,0.0,0.0,0.0,0.0,0.0,0.0,0.0,0.0,0.0,0.0,0.0,0.0,0.0,0.0,0.0,0.0,0.0,0.0,0.0,0.0,-0.0403,-0.0985,-0.1344,-0.1254,-0.103,-0.0851,-0.076,-0.0672,-0.0359,0.036,0.0,0.0,0.0,0.0,0.0,0.0,0.0,0.0,0.0,0.0,0.0,0.0,0.0,0.0,0.0,0.0,0.0,0.0,0.0,0.0,0.0,0.0,0.0,0.0,0.0,0.0,0.0,0.0,0.0,0.0,0.0,0.0,0.0,0.0,0.0,0.0,0.0,0.0,0.0,0.0,0.0,0.0,0.0,0.0,0.0,0.0,0.0,0.0,0.0,0.0,0.0,0.0,0.0,0.0,0.0,0.0,0.0,0.0,0.0,0.0,0.0,0.0,0.0,0.0,0.0,0.0,0.0,0.0,0.0,0.0,0.0,0.0,0.0,0.0,0.0,0.0,0.0,0.0,0.0,0.0,0.0,0.0,0.0,0.0,0.0,0.0,0.0,0.0,0.0,0.0,0.0,0.0,0.0,0.0,0.0,0.0,0.0,0.0,0.0,0.0,0.0,0.0,-0.076,-0.1164,-0.1389,-0.1389,-0.1299,-0.1254,-0.1254,-0.1389,-0.1256,-0.0763,0.0,0.0,0.0,0.0,0.0,0.0,0.0,0.0,0.0,0.0,0.0,0.0,0.0,0.0,0.0,0.0,0.0,0.0,0.0,0.0,0.0,0.0,0.0,0.0,0.0,0.0,0.0,0.0,0.0,0.0,0.0,0.0,0.0,0.0,0.0,0.0,0.0,0.0,0.0,0.0,0.0,0.0,0.0,0.0,0.0,0.0,0.0,0.0,0.0,0.0,0.0,0.0,0.0,0.0,0.0,0.0,0.0,0.0,0.0,0.0,0.0,0.0,0.0,0.0,0.0,0.0,0.0,0.0,0.0,0.0,0.0,0.0,0.0,0.0,0.0,0.0,0.0,0.0,0.0,0.0,0.0,0.0,0.0,0.0,0.0,0.0,0.0,0.0,0.0,0.0,0.0,0.0,0.0,0.0,0.0,0.0,0.0,0.0,0.0,0.0,0.0,0.0,-0.1299,-0.1389,-0.1389,-0.1389,-0.1614,-0.1794,-0.1794,-0.1884,-0.2064,-0.2382,0.0,0.0,0.0,0.0,0.0,0.0,0.0,0.0,0.0,0.0,0.0,0.0,0.0,0.0,0.0,0.0,0.0,0.0,0.0,0.0,0.0,0.0,0.0,0.0,0.0,0.0,0.0,0.0,0.0,0.0,0.0,0.0,0.0,0.0,0.0,0.0,0.0,0.0,0.0,0.0,0.0,0.0,0.0,0.0,0.0,0.0,0.0,0.0,0.0,0.0,0.0,0.0,0.0,0.0,0.0,0.0,0.0,0.0,0.0,0.0,-0.1,0.0,0.0,0.0,0.0,0.0,0.0,0.0,0.0,0.0,0.0,0.0,0.0,0.0,0.0,0.0,0.0,0.0,0.0,0.0,0.0,0.0,0.0,0.0,0.0,0.0,0.0,0.0,0.0,0.0,0.0,0.0,0.0,0.0,0.0,0.0,0.0,0.0,0.0,0.0,0.0,0.0,-0.0989,-0.1254,-0.1389,-0.1389,-0.1433,-0.1569,-0.1794,-0.1973,-0.2154,-0.2382,-0.233,0.0,0.0,0.0,0.0,0.0,0.0,0.0,0.0,0.0,0.0,0.0,0.0,0.0,0.0,0.0,0.0,0.0,0.0,0.0,0.0,0.0,0.0,0.0,0.0,0.0,0.0,0.0,0.0,0.0,0.0,0.0,0.0,0.0,0.0,0.0,0.0,0.0,0.0,0.0,0.0,0.0,0.0,0.0,0.0,0.0,0.0,0.0,0.0,0.0,0.0,0.0,0.0,0.0,0.0,0.0,0.0,0.0,0.0,0.0,0.0,-0.0919,0.0,0.0,0.0,0.0,0.0,0.0,0.0,0.0,0.0,0.0,0.0,0.0,0.0,0.0,0.0,0.0,0.0,0.0,0.0,0.0,0.0,0.0,0.0,0.0,0.0,0.0,0.0,0.0,0.0,0.0,0.0,0.0,0.0,0.0,0.0,0.0,0.0,0.0,0.0,0.0,-0.1125,-0.1299,-0.1399,-0.1428,-0.1569,-0.1768,-0.2087,-0.2242,-0.2449,-0.2682,-0.2822,0.0,0.0,0.0,0.0,0.0,0.0,0.0,0.0,0.0,0.0,0.0,0.0,0.0,0.0,0.0,0.0,0.0,0.0,0.0,0.0,0.0,0.0,0.0,0.0,0.0,0.0,0.0,0.0,0.0,0.0,0.0,0.0,0.0,0.0,0.0,0.0,0.0,0.0,0.0,0.0,0.0,0.0,0.0,0.0,0.0,0.0,0.0,0.0,0.0,0.0,0.0,0.0,0.0,-0.3072,-0.3128,-0.3016,-0.2402,-0.2074,-0.1918,-0.1461,-0.1122,-0.0898,-0.101,0.0,0.0,0.0,0.0,0.0,0.0,0.0,0.0,0.0,0.0,0.0,0.0,0.0,0.0,0.0,0.0,0.0,0.0,0.0,0.0,0.0,0.0,0.0,0.0,-0.0842,-0.0448,0.0,0.0,0.0,0.0,0.0,0.0,0.0,0.0,0.0,0.0,0.0,0.0,-0.1427,-0.1419,-0.1439,-0.1535,-0.1733,-0.1999,-0.2361,-0.2496,-0.2692,-0.3029,-0.2985,-0.2974,0.0,0.0,0.0,0.0,0.0,0.0,0.0,0.0,0.0,0.0,0.0,0.0,0.0,0.0,0.0,0.0,0.0,0.0,0.0,0.0,0.0,0.0,0.0,0.0,0.0,0.0,0.0,0.0,0.0,0.0,0.0,0.0,-0.2444,-0.236,0.0,0.0,0.0,0.0,0.0,0.0,0.0,0.0,0.0,0.0,0.0,0.0,0.0,-0.2788,-0.2885,-0.3284,-0.3236,-0.2736,-0.3793,-0.4018,-0.3514,-0.3403,-0.3062,-0.2561,-0.2096,0.0,-0.0898,-0.0898,0.0,0.0,0.0,0.0,0.0,0.0,0.0,0.0,0.0,0.0,0.0,0.0,0.0,0.0,0.0,0.0,0.0,0.0,0.0,0.0,0.0,0.0,-0.1116,-0.1233,-0.1234,-0.1178,0.0,-0.0673,-0.0168,0.0335,-0.0392,0.0,0.0,0.0,0.0,0.0,0.0,0.0,-0.155,-0.1591,-0.1594,-0.1602,-0.1604,-0.1857,-0.2367,-0.2405,-0.2648,-0.3147,-0.318,-0.3134,-0.3105,-0.3221,0.0,0.0,0.0,0.0,0.0,0.0,0.0,0.0,0.0,0.0,0.0,0.0,0.0,0.0,0.0,0.0,0.0,0.0,0.0,0.0,0.0,0.0,0.0,0.0,0.0,0.0,0.0,0.0,0.0,-0.1931,-0.2101,-0.1783,-0.1847,-0.1847,0.0,0.0,0.0,0.0,0.0,0.0,0.0,0.0,0.0,-0.3458,-0.3411,-0.3618,-0.402,-0.4323,-0.4299,-0.4063,-0.4594,-0.4711,-0.4416,-0.401,-0.3687,-0.3373,-0.2437,-0.1894,-0.1535,-0.1196,-0.0954,-0.0842,0.0,0.0,0.0,0.0,0.0168,0.0168,-0.028,-0.0448,0.0,-0.0448,0.0,0.0,0.0,0.0,0.0,0.0,0.0,0.0,0.0,0.0,-0.101,-0.1178,-0.1178,-0.1234,-0.129,-0.1066,-0.0897,0.0,-0.1121,-0.1402,-0.1232,0.0,0.0,0.0,0.0,-0.1421,-0.1572,-0.1616,-0.1628,-0.1662,-0.1666,-0.1889,-0.2513,-0.2523,-0.27,-0.3267,-0.3256,-0.3201,-0.327,-0.3276,-0.2904,0.0,0.0,0.0,0.0,0.0,0.0,0.0,0.0,0.0,0.0,0.0,0.0,0.0,0.0,0.0,0.0,0.0,0.0,0.0,0.0,0.0,0.0,0.0,0.0,0.0,0.0,0.0,0.0,-0.1876,-0.1957,-0.1453,-0.1846,-0.2012,0.0,0.0,0.0,0.0,0.0,0.0,-0.3222,-0.3305,-0.3607,-0.4178,-0.4158,-0.4392,-0.4928,-0.5037,-0.5032,-0.5032,-0.5032,-0.5032,-0.5032,-0.4302,-0.3891,-0.367,-0.2533,-0.1981,-0.18,-0.1284,-0.0966,-0.0909,-0.09,-0.0449,0.0112,-0.0617,-0.0563,-0.017,-0.0682,-0.0909,-0.0909,-0.0909,-0.0508,-0.0056,0.0112,0.0,0.0,0.0,0.0,-0.0224,-0.0785,-0.0898,-0.0898,-0.101,-0.1066,-0.1066,-0.1178,-0.1178,-0.129,0.0,-0.1572,-0.1628,-0.1629,0.0,0.0,0.0,0.0,-0.1713,-0.1668,-0.1662,-0.1679,-0.1725,-0.1783,-0.2073,-0.2629,-0.2682,-0.2857,-0.3396,-0.3362,-0.3354,-0.3444,-0.3399,-0.3444,-0.3583,0.0,0.0,0.0,0.0,0.0,0.0,0.0,0.0,0.0,0.0,0.0,0.0,0.0,0.0,0.0,0.0,0.0,0.0,0.0,0.0,0.0,0.0,0.0,0.0,0.0,0.0,0.0,0.0,0.0,-0.2183,-0.2792,0.0,0.0,0.0,0.0,-0.3063,-0.327,-0.3621,-0.4088,-0.4329,-0.4706,-0.5317,-0.5136,-0.5079,-0.5079,-0.4972,-0.4918,-0.4918,-0.4918,-0.4918,-0.4857,-0.4119,-0.3561,-0.3015,-0.2245,-0.1567,-0.1027,-0.0966,-0.0882,-0.0879,-0.0909,-0.0842,-0.0842,-0.0898,-0.0858,-0.0823,-0.0882,-0.0882,-0.0882,-0.0882,-0.0863,-0.0729,-0.0168,-0.0336,0.0,0.0,-0.0393,-0.0842,-0.0898,-0.0898,-0.0898,-0.0898,-0.0898,-0.0898,-0.0898,-0.0898,-0.1066,0.0,-0.1572,-0.1629,-0.1741,0.0,-0.1797,-0.1793,-0.1792,-0.1792,-0.1788,-0.1788,-0.1789,-0.1792,-0.2014,-0.2293,-0.2691,-0.2905,-0.3236,-0.3574,-0.3569,-0.3569,-0.3574,-0.3574,-0.3577,-0.3585,-0.3527,0.0,0.0,0.0,0.0,0.0,0.0,0.0,0.0,0.0,0.0,0.0,0.0,0.0,0.0,0.0,0.0,0.0,0.0,0.0,0.0,0.0,0.0,0.0,0.0,0.0,0.0,0.0,0.0,-0.2411,-0.322,0.0,-0.3482,-0.3666,-0.3886,-0.3971,-0.4439,-0.4707,-0.4766,-0.4817,-0.4972,-0.51,-0.5068,-0.5113,-0.5113,-0.5152,-0.5203,-0.5203,-0.5203,-0.5203,-0.5203,-0.4942,-0.4708,-0.4489,-0.3266,-0.2618,-0.2308,-0.1335,-0.099,-0.0971,-0.096,-0.0956,-0.0956,-0.0956,-0.0962,-0.0972,-0.0972,-0.0972,-0.0972,-0.0972,-0.0952,-0.0869,-0.0637,-0.0742,-0.0842,-0.0617,-0.0729,-0.0898,-0.0898,-0.0898,-0.0898,-0.0898,-0.0898,-0.0898,-0.101,-0.101,-0.1122,-0.1515,-0.1515,-0.1459,-0.1629,-0.1741,-0.1797,-0.1685,-0.1741,-0.1797,-0.1797,-0.1797,-0.1797,-0.1797,-0.1908,-0.2132,-0.2635,-0.28,-0.3081,-0.3583,-0.3585,-0.3585,-0.3585,-0.3585,-0.3585,-0.3585,-0.3585,-0.3471,0.0,0.0,0.0,0.0,0.0,0.0,0.0,0.0,0.0,0.0,0.0,0.0,0.0,0.0,0.0,0.0,0.0,0.0,0.0,0.0,0.0,0.0,0.0,0.0,0.0,0.0,-0.2905,-0.2799,-0.371,-0.4232,-0.4083,-0.446,-0.4773,-0.4922,-0.5364,-0.5523,-0.5325,-0.5325,-0.5353,-0.5284,-0.5264,-0.5284,-0.5346,-0.5452,-0.5413,-0.5428,-0.5428,-0.5456,-0.544,-0.5231,-0.5122,-0.5092,-0.382,-0.3262,-0.3189,-0.218,-0.1616,-0.1332,-0.112,-0.0988,-0.0988,-0.0988,-0.0995,-0.1003,-0.1003,-0.1003,-0.1002,-0.0992,-0.0975,-0.0956,-0.0887,-0.0929,-0.0913,-0.0913,-0.0913,-0.0915,-0.0926,-0.0928,-0.0926,-0.0915,-0.0913,-0.091,-0.1012,-0.1066,-0.1178,-0.1459,-0.1459,-0.1459,-0.1629,-0.1741,-0.1797,-0.1685,-0.1741,-0.1797,-0.1797,-0.1797,-0.1797,-0.1797,-0.1908,-0.2132,-0.2635,-0.28,-0.3079,-0.3583,-0.3585,-0.3585,-0.3585,-0.3585,-0.3585,-0.3585,-0.3585,-0.3527,-0.3357,0.0,0.0,0.0,0.0,0.0,0.0,0.0,0.0,0.0,0.0,0.0,0.0,0.0,0.0,0.0,0.0,0.0,0.0,0.0,0.0,0.0,0.0,0.0,-0.2527,-0.2648,-0.2936,-0.3406,-0.4401,-0.4969,-0.4801,-0.5396,-0.5788,-0.5826,-0.5988,-0.6007,-0.5793,-0.5793,-0.5937,-0.6093,-0.5811,-0.5734,-0.5935,-0.5734,-0.5521,-0.5442,-0.5442,-0.5454,-0.5596,-0.4893,-0.4604,-0.4706,-0.3813,-0.3424,-0.3416,-0.3254,-0.275,-0.2071,-0.1329,-0.0991,-0.0991,-0.0991,-0.1009,-0.1035,-0.1035,-0.1035,-0.103,-0.1001,-0.099,-0.1046,-0.0954,-0.0945,-0.0944,-0.0944,-0.0944,-0.101,-0.1041,-0.1049,-0.1041,-0.101,-0.0943,-0.0992,-0.096,-0.1065,-0.1178,-0.1346,-0.1515,-0.1684,-0.1797,-0.1853,-0.1853,-0.1853,-0.1853,0.0,-0.1853,-0.1853,-0.1853,-0.1853,-0.2074,-0.2352,-0.2689,-0.2965,-0.3244,-0.3638,-0.3638,-0.3638,-0.3638,-0.3585,-0.3585,-0.3585,-0.3585,-0.3357,-0.2905,0.0,0.0,0.0,0.0,0.0,0.0,0.0,0.0,0.0,0.0,0.0,0.0,0.0,0.0,0.0,0.0,0.0,0.0,0.0,0.0,0.0,0.0,-0.2868,-0.2667,-0.3623,-0.4457,-0.4748,-0.5234,-0.5683,-0.59,-0.5862,-0.5863,-0.6025,-0.5934,-0.5955,-0.6029,-0.6029,-0.6122,-0.6305,-0.6054,-0.5962,-0.6033,-0.5816,-0.5722,-0.5681,-0.5681,-0.5701,-0.5742,-0.5529,-0.5474,-0.5431,-0.4591,-0.4191,-0.4112,-0.3457,-0.3119,-0.296,-0.2128,-0.1511,-0.1052,-0.1052,-0.1057,-0.1064,-0.1064,-0.1064,-0.1063,-0.1054,-0.1424,-0.1778,-0.1766,-0.2106,-0.2493,-0.2493,-0.2493,-0.2498,-0.2519,-0.2525,-0.2504,-0.2481,-0.2406,-0.2385,-0.2587,-0.2569,-0.2629,-0.2905,-0.3016,-0.2905,-0.2517,-0.2794,-0.3128,-0.3128,-0.3128,0.0,-0.3128,-0.3128,-0.2961,-0.2516,-0.2516,-0.2738,-0.3125,-0.3181,-0.3624,-0.4515,-0.4239,-0.4015,-0.4015,-0.3747,-0.3585,-0.3585,-0.3585,-0.3357,0.0,0.0,0.0,0.0,0.0,0.0,0.0,0.0,0.0,0.0,0.0,0.0,0.0,0.0,0.0,0.0,0.0,0.0,0.0,0.0,0.0,0.0,-0.3001,-0.3683,-0.3979,-0.4697,-0.5339,-0.5698,-0.5977,-0.626,-0.6459,-0.6268,-0.619,-0.6426,-0.636,-0.6286,-0.6437,-0.6375,-0.6445,-0.6729,-0.6449,-0.6339,-0.6485,-0.6186,-0.6009,-0.595,-0.5875,-0.5833,-0.5895,-0.5895,-0.5932,-0.5983,-0.54,-0.5123,-0.511,-0.4555,-0.4127,0.0,0.0,0.0,0.0,0.0,-0.2034,-0.2013,-0.2013,-0.2013,-0.2013,-0.2013,-0.2255,-0.2544,-0.2582,-0.286,-0.3132,-0.3132,-0.3132,-0.3143,-0.3118,-0.3128,-0.3166,-0.3193,-0.3171,-0.3204,-0.3392,-0.3392,-0.3365,-0.3589,-0.3831,0.0,-0.3514,-0.3516,-0.3624,-0.3624,-0.3624,-0.3624,-0.3624,-0.3624,-0.3458,-0.3125,-0.3125,-0.3292,-0.3622,-0.3735,0.0,0.0,0.0,-0.4398,-0.4233,-0.3802,0.0,0.0,0.0,-0.3471,-0.3188,0.0,0.0,0.0,-0.4196,-0.514,0.0,0.0,0.0,0.0,0.0,0.0,0.0,0.0,0.0,0.0,0.0,0.0,0.0,0.0,0.0,0.0,-0.4032,-0.4898,-0.5741,-0.5784,-0.5876,-0.6421,-0.6592,-0.6611,-0.6611,-0.6645,-0.6712,-0.6853,-0.6865,-0.6942,-0.6942,0.0,0.0,0.0,0.0,-0.6828,-0.7053,-0.6618,-0.6325,-0.6179,-0.6044,-0.5973,-0.6105,-0.6105,-0.6173,-0.6278,-0.6122,-0.6047,-0.6017,-0.5864,-0.5447,-0.472,-0.3827,-0.3555,-0.361,-0.3455,-0.3295,-0.3215,-0.3215,0.0,0.0,-0.3228,-0.3299,-0.3353,-0.3344,-0.3443,-0.3499,-0.3499,-0.3492,-0.3439,-0.346,-0.3418,-0.346,-0.362,-0.3597,-0.3692,-0.3883,-0.39,-0.3823,-0.3812,-0.4232,-0.4595,-0.4577,-0.4128,-0.3793,-0.3793,-0.3793,-0.3793,-0.3793,-0.3793,-0.3793,-0.3683,0.0,0.0,-0.4233,-0.446,-0.468,-0.5011,-0.5007,-0.4787,-0.4288,-0.391,-0.3694,-0.3694,-0.3652,-0.3604,-0.3604,-0.3615,-0.3789,-0.4063,-0.4826,-0.6012,0.0,0.0,0.0,0.0,0.0,0.0,0.0,0.0,0.0,0.0,0.0,0.0,0.0,0.0,0.0,-0.3205,-0.4537,-0.5696,-0.6044,-0.6572,-0.6881,-0.6911,-0.684,-0.6807,-0.6841,-0.6817,-0.6831,-0.6861,-0.6865,-0.6942,-0.7103,-0.7073,-0.7289,-0.7703,-0.743,-0.725,-0.7328,-0.7232,-0.698,-0.6667,0.0,0.0,-0.6573,-0.6573,-0.6519,-0.6424,-0.6278,-0.6146,-0.6017,-0.5864,-0.5798,-0.5596,-0.4225,-0.3572,-0.3449,-0.343,-0.3295,-0.3215,-0.3215,-0.3215,-0.3228,-0.3303,-0.3742,-0.424,-0.4375,-0.4752,0.0,-0.5157,-0.5075,-0.4992,-0.4951,-0.4957,-0.4989,-0.4977,-0.5008,-0.5028,-0.5179,-0.5246,-0.5307,-0.5227,-0.5293,-0.5345,-0.5156,-0.5073,-0.4963,-0.4963,-0.4963,-0.4963,-0.4963,-0.4963,-0.4798,-0.4349,-0.4349,-0.446,-0.4732,-0.4787,-0.512,-0.59,-0.5622,-0.523,-0.4787,-0.4346,-0.407,-0.407,-0.3897,-0.3779,-0.3779,-0.3819,-0.4354,-0.5449,-0.5801,-0.616,0.0,0.0,0.0,0.0,0.0,0.0,0.0,0.0,0.0,0.0,0.0,-0.208,0.0,0.0,-0.3827,-0.4748,-0.5628,-0.6475,-0.7025,-0.7308,-0.7427,-0.717,-0.7076,-0.7048,-0.7048,-0.7049,-0.7099,-0.7173,-0.7173,-0.7253,-0.7334,-0.7418,-0.7544,-0.7622,-0.7709,-0.7676,-0.7593,-0.7609,-0.7487,-0.7241,-0.7155,-0.703,-0.6864,-0.6781,-0.6658,-0.6583,-0.6512,-0.6393,-0.624,-0.6091,-0.6078,-0.6063,-0.5306,-0.4905,-0.4718,-0.4718,-0.464,-0.4533,-0.4533,-0.4533,-0.4541,-0.4604,-0.4838,-0.5136,-0.52,-0.5464,-0.5694,-0.5694,-0.564,-0.5566,-0.5494,-0.5542,-0.5635,-0.5611,-0.5701,-0.5807,-0.5974,-0.595,-0.5924,-0.5896,-0.5811,-0.5693,-0.551,-0.5559,-0.5506,-0.5325,-0.5297,-0.5297,-0.5297,-0.5297,-0.5187,-0.4908,-0.5014,-0.5124,-0.5344,-0.5592,-0.5827,-0.6182,-0.6027,-0.5743,-0.5418,-0.5041,-0.485,-0.485,-0.4464,-0.438,-0.4674,-0.4387,-0.4822,-0.5755,-0.6337,-0.6884,0.0,0.0,0.0,0.0,0.0,0.0,0.0,0.0,-0.2301,-0.2323,-0.2384,-0.273,-0.3795,-0.4203,-0.4861,-0.6402,-0.681,-0.7185,-0.7865,-0.7845,-0.7695,-0.7281,-0.7257,-0.7257,-0.7257,-0.7257,-0.7334,-0.7484,-0.7484,-0.7484,-0.7484,-0.7659,-0.7707,-0.759,-0.7898,-0.8,-0.7866,-0.7871,-0.7859,-0.7745,-0.7439,-0.7286,-0.7286,-0.7038,-0.6853,-0.6822,-0.6681,-0.6586,-0.6461,-0.6318,-0.6338,-0.6338,-0.6338,-0.6183,-0.6071,-0.604,-0.5932,-0.58,-0.58,-0.58,-0.5806,-0.5837,-0.5844,-0.585,-0.5881,-0.5871,-0.5844,-0.5844,-0.5823,-0.5776,-0.5731,-0.5766,-0.5869,-0.5947,-0.6093,-0.6273,-0.6447,-0.6351,-0.626,-0.626,-0.6059,-0.588,-0.5697,-0.5787,-0.5778,-0.5398,-0.5378,-0.5402,-0.5402,-0.5402,-0.5402,-0.5458,-0.5621,-0.5789,-0.5961,-0.6331,-0.6468,-0.6309,-0.6312,-0.6232,-0.6071,-0.5795,-0.5631,-0.5631,-0.5121,-0.5135,-0.5559,-0.5105,-0.5248,-0.5942,-0.6763,-0.7583,-0.3017,-0.2792,-0.2823,-0.3413,-0.3187,-0.2941,0.0,0.0,-0.2397,-0.3345,-0.3526,-0.3869,-0.4956,-0.5783,-0.6395,-0.6648,-0.7377,-0.7857,-0.7805,-0.7772,-0.7691,-0.7504,-0.7484,-0.7484,-0.7484,-0.7484,-0.7484,-0.7484,-0.7484,-0.7484,-0.7484,-0.7659,-0.7817,-0.7951,-0.815,-0.8251,-0.8231,-0.8414,-0.8249,-0.7839,-0.7985,-0.7967,-0.78,-0.78,-0.7545,-0.7225,-0.6695,-0.6488,-0.6461,-0.6318,-0.6338,-0.6338,-0.6338,-0.6251,-0.6217,-0.6081,-0.5932,-0.58,-0.58,-0.58,-0.5823,-0.5959,-0.6003,-0.603,-0.6166,-0.6115,-0.6003,-0.6003,-0.5908,-0.5871,-0.6004,-0.6072,-0.6136,-0.6328,-0.6348,-0.6425,-0.6651,-0.6495,-0.6388,-0.6388,-0.6241,-0.6125,-0.5888,-0.5876,-0.5819,-0.5612,-0.5722,-0.5827,-0.5827,-0.5827,-0.5887,-0.5998,-0.6054,-0.6177,-0.6479,-0.668,-0.6749,-0.6726,-0.6708,-0.6722,-0.6699,-0.6353,-0.6121,-0.6121,-0.5786,-0.5612,-0.5675,-0.5762,-0.6036,-0.6576,-0.7284,-0.7673,-0.4237,-0.4152,-0.4303,0.0,-0.4716,-0.4858,-0.4614,-0.4322,-0.4288,-0.4593,-0.4683,-0.5029,-0.608,-0.6586,-0.7012,0.0,-0.8026,-0.815,-0.8077,-0.7797,-0.7569,-0.7492,-0.7301,-0.7257,-0.7464,-0.7484,-0.7484,-0.7484,-0.7484,-0.7529,-0.7638,-0.7813,-0.7939,-0.8012,-0.83,-0.8398,-0.8292,-0.8475,-0.8528,-0.8281,-0.8257,-0.8201,-0.8113,-0.794,-0.7819,-0.765,-0.7246,-0.7065,-0.6964,-0.6725,-0.6544,-0.6376,-0.6291,-0.6698,-0.7148,-0.6447,-0.6125,-0.6143,-0.6663,-0.6514,-0.6228,-0.7266,-0.7219,-0.7007,-0.7536,-0.7279,-0.684,-0.684,-0.6565,-0.6268,-0.625,-0.6375,-0.6572,-0.655,-0.6683,-0.6792,-0.6869,-0.6838,-0.6729,-0.6729,-0.6736,-0.663,-0.6388,-0.6351,-0.6286,-0.6107,-0.5969,-0.5949,-0.6005,-0.6001,-0.6065,-0.6246,-0.6362,-0.6422,-0.6602,-0.6838,-0.6979,-0.6801,-0.7073,-0.7154,-0.7036,-0.7015,-0.6949,-0.6949,-0.6519,-0.6427,-0.6746,-0.6506,-0.6734,-0.7377,-0.764,-0.7904,-0.4901,-0.5053,0.0,-0.5417,-0.5914,-0.6218,-0.5722,-0.559,-0.5656,-0.5829,-0.5863,-0.6157,-0.713,-0.7343,-0.7625,-0.8315,-0.83,-0.8195,-0.815,-0.7764,-0.7464,-0.7419,-0.7143,-0.7126,-0.7309,-0.7382,-0.7431,-0.748,-0.7529,-0.7618,-0.7752,-0.7967,-0.8089,-0.8089,-0.8402,-0.8503,-0.8365,-0.8499,-0.8568,-0.8568,-0.8384,-0.8292,-0.8292,-0.8376,-0.8372,-0.8364,-0.8096,-0.7936,-0.7746,-0.7461,-0.7419,-0.7476,-0.7438,-0.7861,-0.8427,-0.754,-0.7169,-0.7239,-0.7804,-0.7633,-0.7326,-0.847,-0.8507,-0.8245,-0.8784,-0.8553,-0.809,-0.809,-0.7744,-0.7294,-0.7234,-0.7426,-0.762,-0.7561,-0.7632,-0.7753,-0.7803,-0.7731,-0.7673,-0.7727,-0.7691,-0.761,-0.7471,-0.7509,-0.7455,-0.7315,-0.7067,-0.6763,-0.6339,-0.6331,-0.6458,-0.6591,-0.6951,-0.7069,-0.6889,-0.7279,-0.7423,-0.7031,-0.7295,-0.7483,-0.7397,-0.7536,-0.7612,-0.7612,-0.7215,-0.7188,-0.7521,-0.7188,-0.7292,-0.7782,-0.8176,-0.8562,-0.4515,0.0,-0.5344,-0.586,-0.5917,-0.594,-0.6156,-0.5786,-0.5719,-0.6746,-0.6984,-0.7247,-0.8114,-0.8292,-0.8235,-0.8057,-0.8024,-0.7963,-0.7801,-0.7606,-0.7419,-0.7253,-0.707,-0.7027,0.0,-0.7131,-0.7301,-0.7472,-0.765,-0.7832,-0.784,-0.8089,-0.828,-0.828,-0.8467,-0.8564,-0.856,-0.8564,-0.8568,-0.8568,-0.8568,-0.8568,-0.8652,-0.9244,-0.9584,-0.957,-0.911,-0.8937,-0.8923,-0.8817,-0.9304,-1.011,-1.01,-1.0105,-1.0085,-0.9696,-0.9458,-0.9277,-0.9296,-0.9221,-0.9221,-0.9296,-0.9443,-0.9615,-0.9693,-0.9615,-0.9615,-0.9615,-0.9463,-0.9296,-0.9437,-0.9508,-0.9583,-0.9723,-0.9627,-0.9604,-0.975,-0.9585,-0.933,-0.9497,-0.9422,-0.9329,-0.9324,-0.9458,-0.9597,-0.9586,-0.9502,-0.8716,-0.6942,-0.6985,-0.7186,-0.7186,-0.7952,-0.8146,-0.7502,-0.8086,-0.8156,-0.7507,-0.7517,-0.7617,-0.7754,-0.7768,-0.7773,-0.7773,-0.7768,-0.7669,-0.7521,-0.7669,-0.7773,-0.785,-0.9157,-0.9817,-0.6607,0.0,-0.6773,-0.7183,-0.7492,-0.7764,-0.7858,-0.7805,-0.7759,-0.8032,-0.7766,-0.7574,-0.7776,-0.7659,-0.7602,-0.765,-0.7663,-0.7683,-0.7752,-0.75,-0.7244,-0.7066,-0.7306,0.0,0.0,0.0,0.0,-0.7297,-0.7476,-0.7679,-0.7914,-0.8158,-0.8349,-0.8471,-0.8536,-0.8568,-0.8568,-0.917,-0.9428,-0.9428,-1.012,-1.0381,-1.0381,-1.0631,-1.0712,-1.0707,-1.0545,-1.0424,-1.0313,-1.01,-1.0176,-1.0316,-1.0258,-1.0621,-1.121,-1.0875,-1.1143,-1.1551,-1.0492,-0.9744,-0.9549,-1.0789,-1.0898,-1.0601,-1.1406,-1.1215,-1.0811,-1.0811,-1.0315,-0.9854,-1.009,-1.0167,-1.0049,-1.0126,-1.0144,-1.0062,-0.9911,-0.9845,-0.9759,-0.976,-0.9786,-0.9732,-0.9732,-0.9818,-0.9871,-0.991,-0.9729,-0.9334,-0.8506,-0.8613,-0.8809,-0.9036,-0.9102,-0.9273,-0.9479,-0.9025,-0.8668,-0.8685,-0.8211,-0.7905,-0.7976,-0.7981,-0.7981,-0.7981,-0.7981,-0.7943,-0.7872,-0.7943,-0.8051,-0.8193,-0.8692,-0.9301,-0.7795,-0.7893,-0.8013,-0.8129,-0.8334,-0.8636,-0.8755,-0.8775,-0.8662,-0.8418,-0.7992,-0.7586,-0.7338,-0.7151,-0.7049,-0.7094,-0.7102,-0.7188,-0.7512,-0.7508,-0.7461,-0.7474,-0.8004,-0.8221,0.0,0.0,0.0,-0.7577,-0.7654,-0.7928,-0.8483,-0.8421,-0.8784,-0.951,-0.9257,-0.9257,-0.9607,-1.012,-1.0376,-1.0376,-1.0977,-1.1499,-1.1843,-1.1843,-1.1843,-1.1843,-1.1843,-1.1752,-1.1558,-1.1494,-1.1506,-1.1735,-1.1663,-1.204,-1.2557,-1.2197,-1.2552,-1.2942,-1.162,-1.0854,-1.0737,-1.2005,-1.2201,-1.1988,-1.274,-1.2631,-1.2215,-1.2215,-1.1623,-1.1062,-1.1309,-1.1158,-1.1059,-1.1153,-1.1177,-1.1135,-1.0971,-1.0936,-1.0906,-1.0887,-1.087,-1.087,-1.0944,-1.1028,-1.1044,-1.1051,-1.0985,-1.0558,-0.9748,-0.9646,-0.9831,-1.0166,-1.017,-1.0274,-1.0498,-1.0021,-0.9724,-0.9759,-0.8996,-0.8538,-0.8613,-0.8337,-0.8193,-0.8193,-0.8193,-0.8155,-0.808,-0.8155,-0.8409,-0.8836,-0.9275,-1.0046,-0.8302,-0.863,-0.9053,-0.8518,-0.8537,-0.8705,-0.8771,-0.8674,-0.8442,-0.8052,-0.7679,-0.7393,0.0,0.0,-0.6654,-0.6494,-0.6486,-0.6621,-0.7057,-0.7595,-0.8106,0.0,0.0,0.0,0.0,0.0,0.0,-0.8558,0.0,-0.8492,-0.9404,-0.9046,-0.9519,-1.1257,-1.0467,-1.0386,-1.1359,-1.1348,-1.1429,-1.1429,-1.1419,-1.1929,-1.279,-1.279,-1.279,-1.279,-1.279,-1.279,-1.279,-1.279,-1.3307,-1.4088,-1.4088,-1.4088,-1.4048,-1.3754,-1.3559,-1.352,-1.2652,-1.2532,-1.2849,-1.2862,-1.318,-1.3566,-1.3579,-1.3667,-1.3667,-1.3667,-1.3233,-1.2849,-1.2869,-1.2572,-1.2418,-1.2775,-1.2856,-1.2862,-1.2849,-1.2849,-1.2837,-1.2702,-1.2647,-1.2714,-1.2907,-1.306,-1.3186,-1.3082,-1.3023,-1.2319,-1.0534,-1.0221,-1.0245,-1.0585,-1.1211,-1.1286,-1.0704,-1.1168,-1.123,-1.0635,-0.9805,-0.9488,-0.9634,-0.8925,-0.8494,-0.8494,-0.842,-0.8316,-0.8113,-0.8389,-0.8851,-0.965,-1.0825,-1.197,-1.0545,-1.0682,-1.0656,-0.9883,-0.9776,-0.9616,-0.8827,-0.8491,-0.8182,-0.7557,-0.7385,-0.7239,0.0,0.0,0.0,-0.7554,-0.7349,0.0,-0.8672,-0.8822,0.0,-0.9595,0.0,-1.0818,-1.0551,-1.0783,0.0,0.0,-1.0156,-1.0013,-1.06,-1.0564,-1.0973,-1.1673,-1.1158,-1.1231,-1.1934,-1.2386,-1.2994,-1.3697,-1.3493,-1.3483,-1.3737,-1.3737,-1.3737,-1.3737,-1.3737,-1.3737,-1.3737,-1.3737,-1.3913,-1.4088,-1.4088,-1.4088,-1.4048,-1.3754,-1.3559,-1.3581,-1.3133,-1.3033,-1.3126,-1.3347,-1.352,-1.3687,-1.3908,-1.3975,-1.3975,-1.3975,-1.3547,-1.314,-1.336,-1.3265,-1.3212,-1.3287,-1.3636,-1.3826,-1.3676,-1.3634,-1.3606,-1.3607,-1.3593,-1.3446,-1.3198,-1.3393,-1.3518,-1.3418,-1.3162,-1.2745,-1.2004,-1.1899,-1.1969,-1.2354,-1.2315,-1.2365,-1.2699,-1.209,-1.1766,-1.1847,-1.1059,-1.0648,-1.0707,-0.9974,-0.9531,-0.9531,-0.893,-0.8595,-0.8543,-0.9335,-0.9883,-1.0101,-1.1125,-1.2198,-1.1948,-1.2098,-1.2053,-1.131,-1.0896,-1.0519,-0.9715,-0.9196,-0.8636,-0.7918,-0.7617,0.0,-0.7042,-0.7084,0.0,0.0,0.0,0.0,-0.8933,-0.9333,-0.9818,0.0,-1.149,0.0,-1.1763,-1.2131,-1.2355,0.0,-1.1443,-1.1081,-1.1857,-1.1697,-1.2117,-1.3254,-1.2567,-1.2626,-1.3481,-1.3748,-1.411,-1.477,-1.447,-1.4328,-1.4328,-1.4328,-1.4328,-1.4328,0.0,-1.4328,-1.4328,-1.4328,-1.4328,-1.4328,-1.4328,-1.4328,-1.4391,-1.4538,-1.4639,-1.4693,-1.4911,-1.5005,-1.486,-1.4028,-1.3885,-1.411,-1.428,-1.4328,-1.4384,-1.458,-1.4448,-1.4338,-1.4677,-1.4481,-1.4308,-1.4367,-1.4387,-1.4237,-1.4142,-1.4106,-1.4071,-1.4016,-1.4066,-1.4115,-1.3831,-1.3918,-1.4059,-1.3953,-1.3645,-1.3367,-1.3184,-1.2914,-1.2855,-1.3184,-1.306,-1.3097,-1.3462,-1.2884,-1.2639,-1.2813,-1.2077,-1.1632,-1.1632,-1.0887,-1.0438,-1.0576,-1.0121,-0.9895,-1.004,-1.0559,-1.1007,-1.1378,-1.2044,-1.2865,-1.2923,-1.3186,-1.3366,-1.2569,-1.1866,-1.1229,-1.071,-1.0029,-0.9254,-0.8484,0.0,-0.7824,-0.747,-0.7373,-0.7365,-0.7393,0.0,-0.7902,-0.8692,-0.9634,-1.0551,-1.1591,-1.2447,-1.2824,-1.2622,-1.3214,-1.3561,-1.3415,-1.2425,-1.2343,-1.3263,-1.2722,-1.3212,-1.504,-1.4176,-1.4183,-1.5203,-1.493,-1.493,-1.5196,-1.4881,-1.4734,-1.4734,-1.4734,-1.4734,-1.4734,-1.4734,-1.4762,-1.4797,-1.4797,-1.4797,-1.4797,-1.4797,-1.4769,-1.4817,-1.5711,-1.6041,-1.6116,-1.7017,-1.7334,-1.7041,-1.5057,-1.4674,-1.5061,-1.5061,-1.5061,-1.517,-1.5536,-1.5736,-1.585,-1.6097,-1.5787,-1.5436,-1.5566,-1.5042,-1.4536,-1.4497,-1.4423,-1.442,-1.4345,-1.4488,-1.4567,-1.4487,-1.4501,-1.4516,-1.4479,-1.4271,-1.4057,-1.4057,-1.3528,-1.3256,-1.3535,-1.3564,-1.3564,-1.3564,-1.3564,-1.3564,-1.3564,-1.2893,-1.2526,-1.2526,-1.1774,-1.1397,-1.1601,-1.1527,-1.1527,-1.1675,-1.1822,-1.2271,-1.2938,-1.3237,-1.376,-1.4264,-1.4279,-1.4117,-1.3074,-1.2086,-1.1085,-0.9952,-0.9229,0.0,0.0,-0.8228,-0.8354,-0.8033,-0.8334,-0.8711,-0.8844,-0.8543,-0.8873,-1.0328,-1.0548,-1.1192,0.0,-1.326,-1.3594,-1.3958,-1.4158,0.0,0.0,-1.458,-1.449,-1.44,-1.428,-1.4412,-1.4733,-1.5078,-1.5223,-1.5203,-1.5147,-1.5147,-1.5196,-1.4881,-1.4734,-1.4734,-1.4734,-1.4734,-1.4734,-1.4734,0.0,-1.5119,-1.5119,-1.5119,-1.5119,-1.5119,-1.4965,-1.4817,-1.5711,-1.6041,-1.6116,-1.7017,-1.7423,-1.7568,-1.6936,-1.6798,-1.6854,-1.6854,-1.6854,-1.6838,-1.6944,-1.6861,-1.6612,-1.6319,-1.632,-1.6201,-1.549,-1.5575,-1.5717,-1.5277,-1.5177,-1.5083,-1.4838,-1.4998,-1.5094,-1.456,-1.4684,-1.4772,-1.4509,-1.4347,-1.4215,-1.4215,-1.3873,-1.3658,-1.371,-1.3928,-1.3985,-1.3985,-1.3985,-1.3985,-1.3985,-1.384,-1.3768,-1.3768,-1.3018,-1.2572,-1.2645,-1.197,-1.1675,-1.1675,-1.2565,-1.3011,-1.3164,-1.3977,-1.4418,-1.4525,-1.4533,-1.441,-1.3673,-1.2709,-1.174,-1.081,0.0,0.0,0.0,-0.8823,-0.8938,-0.8692,-0.889,0.0,-0.92,-0.9079,-0.9395,-1.0615,-1.0903,0.0,-1.2859,-1.3447,-1.3925,0.0,-1.465,-1.4915,-1.5257,-1.5264,-1.5173,-1.5082,-1.524,-1.5254,-1.509,-1.5533,-1.5712,-1.5562,-1.539,-1.539,-1.5555,-1.5233,-1.5082,-1.5082,-1.5082,-1.5082,-1.509,-1.5261,-1.5419,-1.5569,-1.5727,-1.603,-1.6212,-1.6212,-1.6339,-1.6503,-1.7128,-1.738,-1.7434,-1.8098,-1.8411,-1.8525,-1.8647,-1.8224,-1.7632,-1.7447,-1.7389,-1.7426,-1.7614,-1.7717,-1.7846,-1.8109,-1.8073,-1.7925,-1.7449,-1.7271,-1.7158,-1.6678,-1.6815,-1.705,-1.6871,-1.6587,-1.6277,-1.603,-1.5728,-1.5472,-1.5315,-1.5166,-1.4947,-1.4947,-1.4585,-1.4271,-1.4015,-1.4065,-1.4129,-1.4129,-1.4129,-1.4129,-1.4129,-1.4129,-1.4129,-1.4129,-1.3753,-1.3535,-1.368,-1.331,-1.3157,-1.323,-1.368,-1.3905,-1.3977,-1.4418,-1.4569,-1.4575,-1.4587,-1.4505,-1.4035,-1.3089,-1.2167,-1.1652,-1.0697,0.0,-0.9516,-0.9465,-0.9413,-0.9263,0.0,-0.9211,0.0,-0.9307,-0.9646,-1.0499,-1.101,-1.1681,0.0,-1.3481,0.0,-1.4674,-1.4939,0.0,-1.5347,-1.5431,-1.5431,-1.5431,-1.5672,-1.5694,-1.5438,-1.5679,-1.5811,-1.5811,-1.5555,-1.5555,-1.5811,-1.5555,-1.5431,-1.5431,-1.5431,-1.5467,-1.5548,-1.6052,-1.6324,-1.6466,-1.6813,-1.7243,-1.7572,-1.7419,-1.7606,-1.8035,-1.8524,-1.8742,-1.8923,-1.9529,-1.9649,-1.9659,-2.018,-1.9503,-1.8391,-1.8179,-1.8195,-1.8297,-1.875,-1.9079,-1.9495,-2.0109,-1.9918,-1.9547,-1.9219,-1.868,-1.8171,-1.7796,-1.8048,-1.8294,-1.8224,-1.7612,-1.7171,-1.709,-1.6484,-1.6087,-1.6087,-1.5878,-1.5743,-1.5895,-1.5589,-1.5239,-1.5017,-1.4496,-1.4201,-1.4201,-1.4201,-1.4201,-1.4201,-1.4201,-1.4201,-1.4201,-1.4201,-1.4274,-1.4425,-1.4425,-1.4497,-1.4569,-1.4569,-1.4569,-1.4569,-1.4569,-1.4569,-1.4946,-1.4965,-1.4805,-1.3836,-1.2592,-1.1622,-1.1202,0.0,-0.965,-0.9569,-0.9562,-0.9562,-0.9413,-0.9361,-0.9361,0.0,0.0,-0.9568,-1.0471,-1.0891,-1.1647,-1.3056,0.0,0.0,-1.4989,-1.5075,-1.5173,-1.5347,-1.5431,-1.5431,-1.5431,-1.546,-1.546,-1.5431,-1.546,-1.5474,-1.5474,-1.5445,-1.5445,-1.5474,-1.5445,-1.5431,-1.5431,-1.5431,-1.5592,-1.587,-1.6884,-1.758,0.0,-1.8634,-1.8922,-1.8829,-1.8068,-1.787,-1.8115,-1.8757,-1.9149,-1.9621,-2.07,-2.0747,-2.0547,-2.1399,-2.0974,-2.0105,-2.0487,-2.0682,-2.0984,-2.142,-2.156,-2.159,-2.1718,-2.1088,-2.0202,-1.8946,-1.8288,-1.7898,-1.7863,-1.7608,-1.7266,-1.6938,-1.6776,-1.6652,-1.6273,-1.617,-1.6087,-1.6087,-1.5967,-1.6142,-1.6988,-1.6945,-1.705,-1.7732,-1.5875,-1.4569,-1.4569,-1.4569,-1.4569,-1.4569,-1.4569,-1.4569,-1.4569,-1.4569,-1.4569,-1.4569,-1.4569,-1.4569,-1.4569,-1.4569,-1.4569,-1.4569,-1.4569,-1.4569,-1.4355,-1.4371,-1.4167,-1.2876,-1.2087,-1.1439,-1.0653,0.0,-0.9614,-0.9614,-0.9614,-0.9666,-0.9932,-0.9725,-0.9621,0.0,0.0,0.0,-1.0186,-1.0537,-1.119,-1.2649,-1.3257,0.0,0.0,0.0,-1.5499,-1.6139,-1.6139,-1.6139,-1.6139,-1.5665,-1.5431,-1.5431,-1.5431,-1.5431,-1.5431,-1.5431,-1.5665,-1.6139,-1.6139,-1.6468,-1.696,-1.7252,-1.7513,-1.7836,-1.8683,-1.9219,0.0,-1.9765,-2.0004,-2.0252,-1.9607,-1.9565,-1.9982,-2.0198,-2.04,-2.0624,-2.1108,-2.1161,-2.111,-2.1726,-2.1686,-2.1433,-2.1459,-2.1587,-2.1617,-2.1888,-2.1928,-2.1928,-2.1859,-2.1406,-2.0757,-2.0009,-1.998,-1.9966,-1.979,-2.008,-2.0284,-1.9822,-1.9534,-1.9286,-1.8807,-1.8318,-1.7997,-1.7997,-1.7949,-1.8092,-1.8399,-1.8225,-1.8221,-1.8515,-1.7055,-1.6005,-1.6005,-1.5559,-1.5261,-1.5261,-1.5078,-1.4967,-1.4967,-1.4967,-1.4863,-1.4569,-1.4855,-1.4855,-1.4569,-1.4569,-1.4569,-1.4569,-1.4569,-1.4569,-1.4122,-1.4239,-1.3899,-1.2466,-1.2087,-1.1721,0.0,0.0,-1.0072,-1.0072,-1.0072,-1.0182,-1.0549,-1.0336,-1.0182,0.0,0.0,-1.009,-1.0486,-1.0766,-1.1323,0.0,0.0,-1.4122,0.0,-1.5812,-1.6542,-1.7098,-1.7253,-1.7253,-1.7253,-1.6794,-1.6329,-1.5906,-1.5899,-1.6064,-1.6304,-1.6386,-1.6617,-1.7253,-1.7253,-1.7577,-1.8158,-1.862,-1.8929,-1.9327,-2.0247,-2.0716,0.0,-2.0943,-2.1081,-2.1265,-2.0832,-2.0977,-2.1396,-2.1454,-2.1612,-2.1713,-2.1737,-2.1681,-2.1671,-2.2244,-2.2436,-2.2494,-2.2796,-2.2644,-2.238,-2.2592,-2.2633,-2.2613,-2.249,-2.2224,-2.1875,-2.1435,-2.1721,-2.1932,-2.1535,-2.1828,-2.2076,-2.1696,-2.1183,-2.0712,-2.0418,-1.9743,-1.9335,-1.9335,-1.9335,-1.9423,-1.9659,-1.9425,-1.9401,-1.964,-1.8681,-1.7819,-1.7353,-1.68,-1.6353,-1.6133,-1.5837,-1.5632,-1.5332,-1.5332,-1.5213,-1.4951,-1.5197,-1.5157,-1.48,-1.48,-1.4744,-1.4569,-1.4569,-1.4624,-1.4554,-1.4711,-1.4533,-1.2907,-1.2685,-1.2529,0.0,0.0,-1.12,-1.12,-1.12,-1.1209,-1.12,-1.1209,-1.1209,-1.12,0.0,0.0,-1.1659,-1.1961,-1.2381,0.0,0.0,-1.4668,-1.5591,-1.722,-1.8292,-1.8301,-1.8452,0.0,-1.8594,-1.8966,-1.8594,-1.7009,-1.7001,-1.7479,-1.8594,-1.8603,-1.8603,-1.8594,-1.8594,-1.8603,-1.8612,-1.9092,-1.9484,-1.9876,-2.1239,-2.1769,0.0,-2.228,-2.218,-2.1729,-2.1346,-2.1457,-2.1948,-2.2107,-2.2461,-2.2869,-2.2804,-2.2499,-2.2258,-2.343,-2.3498,-2.337,-2.4753,-2.4375,-2.3591,-2.4267,-2.4487,-2.4402,-2.4004,-2.3807,-2.369,-2.3232,-2.3214,-2.3126,-2.2871,-2.208,-2.1478,-2.1263,-2.0508,-1.9956,-1.9966,-1.9611,-1.9335,-1.9335,-1.9335,-1.958,-2.0382,-2.0459,-2.0769,-2.1645,-2.1001,-1.987,-1.8351,-1.8212,-1.785,-1.7052,-1.6968,-1.6581,-1.575,-1.5674,-1.5666,-1.5666,-1.5666,-1.5515,-1.5181,-1.5181,-1.499,-1.4569,-1.4569,-1.4832,-1.4195,-1.4237,-1.3996,-1.2857,-1.262,-1.2448,-1.1567,0.0,-1.1475,-1.1475,-1.1475,-1.1584,-1.185,-1.1584,-1.1434,-1.176,-1.146,0.0,0.0,0.0,0.0,-1.353,-1.5392,-1.6788,0.0,0.0,-1.8771,-1.9335,-1.9413,-1.9492,-1.9492,-1.9962,-1.9507,-1.8132,-1.8707,-1.8897,-1.8603,-1.9217,-1.9543,-1.9492,-1.978,-2.0099,-2.0401,-2.0827,-2.1335,-2.1948,-2.2715,-2.3082,-2.322,-2.3033,-2.2859,-2.2674,-2.2292,-2.2474,-2.3008,-2.341,-2.3761,-2.4061,-2.4312,-2.4363,-2.4278,-2.4668,-2.4668,-2.478,-2.5948,-2.555,-2.4713,-2.4934,-2.4743,-2.4466,-2.4317,-2.403,-2.3753,-2.3615,-2.3573,-2.3583,-2.3493,-2.3515,-2.3351,-2.2621,-2.2501,-2.2397,-2.1737,-2.1808,-2.1842,-2.1686,-2.1852,-2.1931,-2.2019,-2.1753,-2.1711,-2.1959,-2.1645,-2.0978,-1.9851,-1.9275,-1.8811,-1.8578,-1.8344,-1.8123,-1.7808,-1.7808,-1.7456,-1.6598,-1.6825,-1.6572,-1.597,-1.6304,-1.6363,-1.6245,-1.5648,-1.5713,0.0,-1.3988,-1.3768,-1.2968,-1.2967,0.0,0.0,0.0,-1.2209,-1.2209,-1.2209,-1.2267,-1.254,-1.2276,-1.2224,-1.271,-1.2299,0.0,0.0,0.0,0.0,-1.504,0.0,0.0,0.0,-1.9313,-1.9894,-2.0459,-2.0537,-2.0615,-2.0615,-2.1026,-2.0818,-1.9816,-2.0363,-2.0549,-2.0358,-2.0961,-2.113,-2.086,-2.1214,-2.1372,-2.1446,-2.1893,-2.2329,-2.2806,-2.3423,-2.3505,0.0,-2.3422,-2.3246,-2.2936,-2.3078,-2.3437,-2.3832,-2.4366,-2.4847,-2.525,-2.5452,-2.5733,-2.6062,-2.6132,-2.6326,-2.6637,-2.7429,-2.6883,-2.5935,-2.5935,-2.5348,-2.4787,-2.497,-2.4658,-2.4336,-2.4519,-2.4573,-2.4562,-2.4491,-2.4577,-2.4463,-2.3977,-2.3849,-2.3679,-2.3264,-2.3285,-2.337,-2.3224,-2.3154,-2.3037,-2.296,-2.2471,-2.2176,-2.2176,-2.2101,-2.1797,-2.1242,-2.0605,-2.0138,-1.9737,-1.9589,-1.9303,-1.8985,-1.8985,-1.8634,-1.7852,-1.8064,-1.7888,-1.727,-1.7367,-1.7486,-1.7552,-1.7018,-1.7171,0.0,-1.3962,0.0,0.0,0.0,0.0,0.0,0.0,0.0,-1.3218,-1.3218,-1.3218,-1.3218,-1.3238,-1.3399,-1.3821,-1.356,-1.36,0.0,-1.472,0.0,0.0,-1.837,0.0,-1.9807,-2.0876,-2.1512,-2.1512,-2.1655,-2.1807,-2.1807,-2.2242,-2.2304,-2.1869,-2.1799,-2.2227,-2.3143,-2.3236,-2.3018,-2.2501,-2.2532,-2.2304,-2.1869,-2.2304,-2.2532,0.0,-2.3505,-2.3391,0.0,-2.3608,-2.3452,-2.2824,-2.3935,-2.4375,-2.4543,-2.5209,-2.5924,-2.6569,-2.6348,-2.6834,-2.755,-2.7758,-2.8317,-2.8863,-2.9073,-2.8323,-2.7336,-2.7336,-2.6436,-2.5551,-2.5898,-2.5689,-2.548,-2.5826,-2.5957,-2.5979,-2.5728,-2.538,-2.5092,-2.5241,-2.4598,-2.4116,-2.4452,-2.4185,-2.3908,-2.3897,-2.3524,-2.3158,-2.3158,-2.2711,-2.2413,-2.2456,-2.2424,-2.2402,-2.2402,-2.2035,-2.1482,-2.0702,-2.0615,-2.0294,-1.9502,-1.9492,-1.9492,-1.9423,-1.9395,-1.921,-1.8963,-1.8536,-1.8489,-1.8656,-1.8656,-1.8938,-1.4005,0.0,-1.3631,-1.3486,-1.3593,-1.3611,0.0,0.0,0.0,0.0,0.0,0.0,-1.3362,-1.3646,-1.3871,-1.3922,-1.4083,-1.4366,-1.4578,0.0,0.0,-1.7358,-1.9231,-2.0254,-1.9846,-2.0989,-2.1731,-2.1731,-2.1807,-2.1807,-2.1807,-2.2242,-2.2449,-2.2335,-2.2793,-2.2917,-2.2656,-2.3701,-2.3639,-2.2501,-2.2853,-2.278,-2.2335,-2.2449,-2.2884,-2.3567,-2.395,-2.4001,-2.3813,-2.4166,-2.4594,-2.5032,-2.5333,-2.6129,-2.7209,-2.7325,-2.7614,-2.8004,-2.81,-2.821,-2.8458,-2.8668,-2.9451,-3.0417,-3.0417,-2.9551,-2.8548,-2.8548,-2.8373,-2.7901,-2.7179,-2.716,-2.722,-2.6428,-2.6585,-2.6857,-2.6857,-2.6767,-2.6608,-2.6278,-2.604,-2.5712,-2.5047,-2.5203,-2.5007,-2.419,-2.4129,-2.4064,-2.3896,-2.3154,-2.2767,-2.3144,-2.2702,-2.2402,-2.2402,-2.2327,-2.2101,-2.1711,-2.1711,-2.1558,-2.1252,-2.1395,-2.1078,-2.0216,-2.0062,-2.0156,-2.0525,-2.0167,-2.0127,-2.0444,-1.9832,-1.9966,-1.402,-1.3868,-1.3773,-1.3773,-1.3773,-1.3773,0.0,0.0,0.0,0.0,0.0,0.0,0.0,0.0,0.0,0.0,-1.4614,0.0,0.0,0.0,-1.7769,-1.8448,-1.9795,-2.071,0.0,-2.1447,-2.1959,-2.1959,-2.2025,-2.2111,-2.2111,-2.2342,-2.2478,-2.2478,-2.3019,-2.316,-2.297,-2.3792,-2.3688,-2.2804,-2.3066,-2.3045,-2.2804,-2.2804,-2.3202,-2.3966,-2.4648,-2.4849,-2.4675,-2.5658,-2.6176,-2.6461,-2.6782,-2.7357,-2.8084,-2.8323,-2.8718,-2.9123,-2.9356,-2.982,-3.0329,-3.0693,-3.1302,-3.1856,-3.2001,-3.1523,-3.083,-3.0088,-2.9462,-2.8856,-2.8264,-2.8107,-2.7945,-2.7366,-2.7209,-2.7185,-2.7185,-2.7185,-2.7105,-2.6841,-2.6795,-2.6623,-2.6189,-2.6279,-2.6197,-2.5616,-2.5485,-2.5271,-2.493,-2.4271,-2.3842,-2.3894,-2.361,-2.3285,-2.3048,-2.3037,-2.2788,-2.2273,-2.2252,-2.2176,-2.2101,-2.2176,-2.1939,-2.1395,-2.1237,-2.1377,-2.169,-2.1453,-2.1528,-2.1842,-2.1375,-2.1451,-1.4104,-1.4057,-1.4067,-1.402,-1.402,-1.3962,0.0,0.0,0.0,0.0,0.0,0.0,0.0,0.0,0.0,0.0,0.0,0.0,-1.6711,-1.7512,-1.8464,-1.9692,-2.0276,0.0,-2.1603,-2.2017,-2.2241,-2.2176,-2.2392,-2.2542,-2.2402,-2.2542,-2.2542,-2.2542,-2.3015,-2.3345,-2.3515,-2.3743,-2.3583,-2.3115,-2.3179,-2.3222,-2.3222,-2.3442,-2.381,-2.4352,0.0,0.0,-2.5665,-2.724,-2.7743,-2.7532,-2.8143,-2.8481,-2.8639,-2.9032,-2.9589,-3.0304,-3.0545,-3.1294,-3.2273,-3.2846,-3.3058,-3.3129,-3.3339,-3.3409,-3.3115,-3.1709,-3.0543,-2.9591,-2.9426,-2.909,-2.8682,-2.8373,-2.7968,-2.7649,-2.751,-2.7429,-2.7429,-2.7429,-2.7429,-2.7348,-2.7348,-2.7278,-2.7221,-2.6978,-2.668,-2.6348,-2.5847,-2.5487,-2.5116,-2.4812,-2.4757,-2.4536,-2.4029,-2.3919,-2.3471,-2.2757,-2.252,-2.2478,-2.2478,-2.2402,-2.2402,-2.2478,-2.2478,-2.2478,-2.2478,-2.2478,-2.2553,-2.2777,-2.2777,-2.2852,-1.4326,-1.4337,-1.4291,-1.4067,-1.402,-1.3973,0.0,0.0,0.0,0.0,0.0,0.0,0.0,0.0,0.0,0.0,0.0,-1.7181,0.0,0.0,-1.953,-1.9806,0.0,-2.1554,-2.0906,-2.232,-2.3032,-2.2402,-2.2957,-2.3032,-2.2402,-2.2957,-2.3305,-2.3305,-2.353,-2.3682,-2.3761,-2.3783,-2.3583,-2.3115,-2.3519,-2.3711,-2.3722,-2.4875,-2.5628,-2.6177,0.0,-2.7679,-2.7699,-2.8104,-2.8694,-2.9334,-2.9564,-3.0152,-3.0872,-3.1048,-3.1198,-3.1434,-3.1909,-3.2331,-3.2704,-3.3129,-3.3479,-3.3701,-3.3701,-3.3701,-3.3687,-3.3395,-3.303,-3.2382,-3.1436,-3.1451,-3.1329,-2.9664,-2.9568,-2.9626,-2.87,-2.8554,-2.8474,-2.8339,-2.8259,-2.8191,-2.7869,-2.78,-2.7335,-2.615,-2.6244,-2.6313,-2.5799,-2.5673,-2.5787,-2.6143,-2.5812,-2.5592,-2.5512,-2.4732,-2.4223,-2.4069,-2.323,-2.2628,-2.2628,-2.2478,-2.2553,-2.2927,-2.2777,-2.2777,-2.2927,-2.2927,-2.2927,-2.2927,-2.2927,-2.315,-1.4373,-1.4373,-1.4373,-1.4244,-1.4197,-1.4197,0.0,0.0,0.0,0.0,0.0,0.0,0.0,0.0,0.0,0.0,0.0,-1.8322,-1.9019,-1.9505,-1.9912,0.0,0.0,-2.2143,-2.2208,-2.3112,-2.3526,-2.318,-2.361,-2.3672,-2.3327,-2.4047,-2.448,-2.448,-2.4564,-2.4624,-2.4743,-2.4715,-2.4254,-2.3425,-2.4095,-2.4759,-2.5419,-2.6503,-2.727,-2.79,0.0,-2.9291,-2.9369,-2.9922,-3.0343,-3.0735,-3.081,-3.111,-3.1508,-3.1863,-3.2082,-3.2286,-3.2917,-3.3199,-3.3339,-3.377,-3.3991,-3.4128,-3.4264,-3.4196,-3.4128,-3.4264,-3.3839,-3.3199,-3.2612,-3.2455,-3.2136,-3.1275,-3.0982,-3.067,-2.9781,-2.9549,-2.9316,-2.8724,-2.8578,-2.8431,-2.8283,-2.8203,-2.7945,-2.7313,-2.7443,-2.7422,-2.6962,-2.6927,-2.693,-2.691,-2.6725,-2.6472,-2.6219,-2.581,-2.5023,-2.376,-2.3372,-2.3123,-2.2863,-2.3026,-2.3188,-2.3309,-2.3001,-2.315,-2.3677,-2.3446,-2.3446,-2.3677,-2.3677,-2.3751,-1.4558,-1.4558,-1.4558,0.0,0.0,0.0,0.0,0.0,0.0,0.0,0.0,0.0,0.0,0.0,0.0,-1.7525,-1.8433,-1.9105,-1.9501,-1.9965,-2.0593,-2.1474,-2.2335,-2.3107,-2.38,-2.4169,-2.4325,-2.4192,-2.4469,-2.4612,-2.4469,-2.5205,-2.5639,-2.5639,-2.5639,-2.5697,-2.58,-2.566,-2.5099,-2.4206,-2.498,-2.5796,-2.6688,-2.7819,-2.8608,-2.9133,-3.0177,-3.057,-3.0646,-3.1286,-3.1609,-3.1609,-3.1683,-3.1743,-3.1877,-3.2359,-3.2632,-3.2917,-3.3563,-3.377,-3.3839,-3.4264,-3.4414,-3.4414,-3.4563,-3.4563,-3.4481,-3.4631,-3.4196,-3.3687,-3.3563,-3.3185,-3.2804,-3.2648,-3.2205,-3.1683,-3.0833,-3.038,-2.9986,-2.9537,-2.8929,-2.8476,-2.8699,-2.8555,-2.8349,-2.8228,-2.8354,-2.8315,-2.7877,-2.7971,-2.7869,-2.7522,-2.751,-2.7232,-2.6655,-2.662,-2.5833,-2.3793,-2.3995,-2.4028,-2.3652,-2.3995,-2.4125,-2.3931,-2.3624,-2.3716,-2.42,-2.4011,-2.4011,-2.42,-2.4315,-2.4388,-1.5062,-1.5062,-1.5062,-1.5062,0.0,0.0,0.0,0.0,0.0,0.0,0.0,0.0,0.0,0.0,-1.7776,-1.8326,-1.8708,-1.9425,-2.0898,0.0,-2.2257,-2.3229,-2.4198,-2.4803,-2.4886,-2.5685,-2.5931,-2.5229,-2.5849,-2.5975,-2.5451,-2.6171,-2.6663,-2.6786,-2.6786,-2.6786,-2.6786,-2.6089,-2.5697,-2.5664,-2.6151,-2.642,-2.6589,-2.8434,-2.931,-2.9448,-3.0874,-3.1522,-3.1522,-3.1609,-3.1609,-3.1609,-3.1817,-3.2155,-3.2632,-3.2632,-3.2917,-3.3339,-3.3701,-3.377,-3.3839,-3.4264,-3.4414,-3.4414,-3.4414,-3.4549,-3.4631,-3.4481,-3.4601,-3.4721,-3.4399,-3.4278,-3.4045,-3.3297,-3.3073,-3.2791,-3.1856,-3.1132,-3.067,-3.1241,-2.9656,-2.8521,-2.9325,-2.8648,-2.7892,-2.7393,-2.7951,-2.833,-2.7759,-2.8131,-2.8431,-2.8431,-2.8431,-2.8044,-2.7117,-2.707,-2.6667,-2.5624,-2.5624,-2.5624,-2.5589,-2.5624,-2.5406,-2.49,-2.4889,-2.4659,-2.42,-2.4659,-2.4659,-2.42,-2.4671,-2.4869,-1.5108,-1.4971,-1.4834,-1.4834,0.0,0.0,0.0,0.0,0.0,0.0,0.0,0.0,0.0,0.0,-1.8093,-1.8561,-1.9519,-2.0571,-2.1498,-2.2832,-2.373,-2.3708,-2.5176,-2.6021,-2.5685,-2.6244,-2.6455,-2.5777,-2.6337,-2.6443,-2.5807,-2.6969,-2.7577,-2.7643,-2.7656,-2.7709,-2.7736,-2.7471,-2.7404,-2.755,-2.7416,-2.7498,-2.7995,-2.9634,-3.0461,-3.0631,-3.1548,-3.1963,-3.1963,-3.1963,-3.1963,-3.2036,-3.23,-3.2489,-3.2775,-3.3199,-3.3479,-3.3632,-3.4059,-3.4196,-3.4196,-3.4481,-3.4563,-3.4631,-3.4817,-3.4883,-3.4802,-3.4883,-3.4817,-3.475,-3.4616,-3.4563,-3.4481,-3.4182,-3.4031,-3.3742,-3.2875,-3.2349,-3.1988,-3.1709,-3.0501,-2.9631,-2.9934,-2.9262,-2.8484,-2.7946,-2.8139,-2.8256,-2.796,-2.8028,-2.8294,-2.8474,-2.851,-2.8347,-2.7985,-2.7961,-2.7798,-2.753,-2.6662,-2.6115,-2.5793,-2.6081,-2.6089,-2.5797,-2.5569,-2.5628,-2.589,-2.5843,-2.5843,-2.589,-2.6091,-2.5965,-1.5334,-1.5153,-1.4971,0.0,0.0,0.0,0.0,0.0,0.0,0.0,0.0,0.0,0.0,0.0,0.0,0.0,-2.0296,-2.1371,-2.1985,-2.3389,-2.4316,-2.4018,-2.5747,-2.6802,-2.6414,-2.6725,-2.6789,-2.6414,-2.6557,-2.657,-2.6181,-2.7088,-2.7728,-2.7994,-2.7994,-2.8139,-2.8365,-2.8365,-2.8509,-2.8716,-2.8425,-2.8392,-2.8799,-3.0003,-3.0578,-3.0758,-3.1355,-3.1612,-3.1639,-3.1829,-3.2078,-3.2372,-3.2632,-3.2846,-3.3129,-3.3632,-3.3908,-3.4059,-3.4278,-3.4414,-3.4414,-3.4631,-3.4698,-3.4765,-3.5016,-3.5067,-3.5001,-3.5082,-3.5016,-3.4964,-3.4898,-3.4765,-3.4631,-3.4631,-3.4481,-3.4206,-3.3417,-3.3016,-3.2598,-3.2124,-3.1087,-3.0372,-3.0665,-3.0144,-2.9543,-2.9163,-2.9252,-2.9139,-2.8771,-2.8987,-2.9048,-2.8991,-2.888,-2.8699,-2.8498,-2.8803,-2.8803,-2.851,-2.762,-2.7018,-2.6667,-2.6983,-2.7015,-2.6718,-2.6553,-2.6559,-2.6935,-2.6788,-2.6788,-2.686,-2.7103,-2.6887,-1.5792,-1.5659,0.0,0.0,0.0,0.0,0.0,0.0,0.0,0.0,0.0,0.0,0.0,0.0,0.0,-2.0262,-2.0848,-2.1522,-2.2462,-2.3225,-2.3865,-2.4375,-2.609,-2.72,-2.72,-2.72,-2.72,-2.72,-2.664,-2.6356,-2.6478,-2.6465,-2.6883,-2.7691,-2.7705,-2.799,-2.8587,-2.8587,-2.878,-2.9099,-2.9099,-2.8908,-2.8614,-2.9211,-2.9549,-2.9509,-3.0133,-3.0405,-3.0459,-3.1042,-3.184,-3.269,-3.2704,-3.3129,-3.377,-3.377,-3.4059,-3.4414,-3.4414,-3.4414,-3.4414,-3.4631,-3.4698,-3.4698,-3.4868,-3.5001,-3.5148,-3.4935,-3.5213,-3.5439,-3.5228,-3.4817,-3.4414,-3.4414,-3.4414,-3.4225,-3.3601,-3.2868,-3.2334,-3.25,-3.1349,-3.0596,-3.1363,-3.1144,-3.0868,-3.0939,-3.1221,-3.1241,-3.038,-3.1031,-3.1093,-3.0139,-2.973,-2.9277,-2.8621,-2.9471,-2.9537,-2.859,-2.851,-2.851,-2.851,-2.851,-2.827,-2.7741,-2.7729,-2.7476,-2.6947,-2.7476,-2.7464,-2.6959,-2.7488,-2.744,-1.5792,-1.5921,0.0,0.0,0.0,0.0,0.0,0.0,0.0,0.0,0.0,0.0,0.0,0.0,0.0,-2.0331,-2.1188,-2.2055,-2.2715,-2.4166,-2.5011,-2.4702,-2.6022,-2.6735,-2.6364,-2.6654,-2.6721,-2.635,-2.6479,-2.6499,-2.6113,-2.6671,-2.7311,-2.8051,-2.8235,-2.8649,-2.9289,-2.9289,-2.9352,-2.9477,-2.9477,-2.9415,-2.9317,-2.9914,-3.0192,-3.0234,-3.0846,-3.1124,-3.1165,-3.1777,-3.2194,-3.2458,-3.317,-3.3632,-3.3839,-3.4128,-3.4278,-3.4414,-3.4563,-3.4631,-3.4698,-3.4964,-3.5016,-3.5096,-3.5294,-3.5359,-3.5424,-3.5359,-3.5294,-3.5294,-3.5213,-3.5016,-3.4802,-3.4949,-3.453,-3.4082,-3.3891,-3.3273,-3.2765,-3.2655,-3.1874,-3.1254,-3.1335,-3.1213,-3.0902,-3.0553,-3.0999,-3.1222,-3.0777,-3.1209,-3.1389,-3.1093,-3.0948,-3.0699,-3.0203,-3.0443,-3.038,-2.9793,-2.9793,-2.9419,-2.851,-2.851,-2.8438,-2.8282,-2.827,-2.8198,-2.8041,-2.821,-2.8198,-2.8041,-2.821,-2.7993,-1.6044,0.0,0.0,0.0,0.0,0.0,0.0,0.0,0.0,0.0,0.0,0.0,0.0,-2.004,0.0,-2.1212,-2.193,-2.2677,-2.3361,-2.4419,-2.4994,-2.4633,-2.5684,-2.6307,-2.5928,-2.624,-2.6353,-2.6089,-2.6212,-2.6175,-2.5892,-2.6394,-2.7106,-2.7982,-2.8162,-2.8703,-2.9602,-2.9602,-2.9665,-2.9803,-2.9803,-2.9851,-2.9988,-3.0108,-3.015,-3.0178,-3.0558,-3.0853,-3.104,-3.1405,-3.1833,-3.2221,-3.2791,-3.3307,-3.3657,-3.368,-3.3885,-3.4155,-3.4222,-3.4369,-3.4479,-3.5008,-3.5213,-3.5228,-3.5439,-3.5504,-3.5504,-3.5504,-3.5439,-3.5294,-3.5294,-3.5213,-3.5148,-3.5082,-3.4706,-3.4286,-3.4021,-3.3461,-3.2867,-3.2416,-3.2153,-3.2004,-3.1809,-3.2117,-3.2291,-3.1983,-3.2028,-3.211,-3.2236,-3.1768,-3.1573,-3.2033,-3.1915,-3.1645,-3.1154,-3.1476,-3.1328,-3.0607,-3.0683,-3.0304,-2.9263,-2.8961,-2.8895,-2.8895,-2.8578,-2.851,-2.851,-2.851,-2.851,-2.851,-2.851,-2.833,0.0,0.0,0.0,0.0,0.0,0.0,0.0,0.0,0.0,0.0,0.0,0.0,0.0,-2.0807,-2.1535,-2.2694,-2.2976,-2.3318,-2.4176,-2.435,-2.435,-2.435,-2.5235,-2.5805,-2.5864,-2.5864,-2.598,-2.6268,-2.5784,-2.5647,-2.5893,-2.5948,-2.6483,-2.7607,-2.7708,-2.8285,-2.9482,-2.9552,-2.9766,-3.0086,-3.0144,-3.028,-3.0568,-2.9974,-2.9665,-2.9665,-2.9665,-2.9989,-3.0509,-3.0566,-3.1098,-3.1854,-3.1911,-3.2573,-3.3311,-3.273,-3.299,-3.3601,-3.3665,-3.3839,-3.413,-3.4866,-3.5169,-3.5294,-3.5439,-3.5504,-3.5504,-3.5504,-3.5504,-3.5504,-3.5504,-3.5504,-3.5439,-3.5001,-3.489,-3.4684,-3.4159,-3.3524,-3.2827,-3.2115,-3.2405,-3.2689,-3.2576,-3.3594,-3.4341,-3.4399,-3.3811,-3.3589,-3.4346,-3.2764,-3.1985,-3.2947,-3.279,-3.2333,-3.1788,-3.2492,-3.242,-3.118,-3.1476,-3.1328,-3.0607,-2.9947,-2.9459,-2.9422,-2.8937,-2.8633,-2.8518,-2.8566,-2.859,-2.851,-2.8578,-2.8724,0.0,0.0,0.0,0.0,0.0,0.0,0.0,0.0,0.0,0.0,0.0,0.0,-2.2223,-2.2683,-2.309,-2.3398,-2.3748,-2.406,-2.4292,-2.4593,-2.4835,-2.4835,-2.5057,-2.5322,-2.5562,-2.5575,-2.5674,-2.598,-2.5868,-2.5853,-2.5893,-2.6096,-2.6546,-2.7384,-2.7594,-2.8065,-2.8915,-2.9347,-2.9651,-2.9724,-3.0216,-3.0522,-3.0582,-3.0447,-3.0387,-3.0387,-3.0387,-3.0473,-3.0632,-3.1061,-3.1411,-3.1647,-3.2168,-3.2521,-3.2701,-3.2669,-3.2762,-3.2942,-3.3243,-3.371,-3.4233,-3.4509,-3.4991,-3.5439,-3.5504,-3.5504,-3.5504,-3.5504,-3.5504,-3.5504,-3.5504,-3.5504,-3.5504,-3.5359,-3.4957,-3.4524,-3.4439,-3.3839,-3.3332,-3.3028,-3.3117,-3.3129,-3.2912,-3.3588,-3.4229,-3.4558,-3.4332,-3.4196,-3.4414,-3.3998,-3.3819,-3.4031,-3.3998,-3.3819,-3.3311,-3.3465,-3.3395,-3.2818,-3.2889,-3.2818,-3.2676,-3.1341,-3.0175,-2.9452,-2.972,-2.9439,-2.8491,-2.8987,-2.8961,-2.851,-2.9328,-2.9691,0.0,0.0,0.0,0.0,0.0,0.0,0.0,0.0,0.0,0.0,0.0,-2.2804,-2.2841,-2.3293,-2.3695,-2.3872,-2.4118,-2.4408,-2.4593,-2.5005,-2.5257,-2.5257,-2.5355,-2.5508,-2.5688,-2.5702,-2.5798,-2.6096,-2.6096,-2.615,-2.634,-2.6486,-2.6827,-2.7475,-2.7972,-2.8492,-2.9131,-2.9755,-3.0074,-3.0089,-3.0422,-3.0568,-3.0568,-3.0568,-3.0568,-3.0568,-3.0568,-3.0568,-3.0597,-3.093,-3.1061,-3.1105,-3.1453,-3.1772,-3.2004,-3.1871,-3.2021,-3.2408,-3.2655,-3.327,-3.3928,-3.4367,-3.4936,-3.5504,-3.5504,-3.5504,-3.5504,-3.5504,-3.5504,-3.5504,-3.5504,-3.5504,-3.5504,-3.5504,-3.5235,-3.4966,-3.4966,-3.4442,-3.3901,-3.3776,-3.3713,-3.365,-3.3509,-3.3927,-3.4369,-3.4505,-3.4481,-3.4414,-3.4414,-3.4414,-3.4414,-3.4414,-3.4414,-3.4346,-3.4128,-3.4059,-3.3908,-3.3563,-3.3701,-3.3701,-3.3339,-3.2662,-3.1852,-3.0831,-3.0887,-3.039,-2.9366,-3.0087,-3.0075,-2.9419,-3.0291,-3.0732,0.0,0.0,0.0,0.0,0.0,0.0,0.0,0.0,0.0,0.0,0.0,-2.3496,-2.3121,-2.3502,-2.3989,-2.435,-2.4478,-2.465,-2.5005,-2.5369,-2.555,-2.555,-2.5743,-2.5893,-2.5934,-2.5988,-2.6096,-2.6365,-2.6404,-2.6525,-2.6779,-2.6779,-2.7084,-2.7654,-2.8245,-2.8826,-2.945,-3.0089,-3.0408,-3.0408,-3.0524,-3.0568,-3.0568,-3.0568,-3.0568,-3.0568,-3.0568,-3.0568,-3.0568,-3.0568,-3.0568,-3.0568,-3.0642,-3.0962,-3.1355,-3.1011,-3.1292,-3.1944,-3.2258,-3.284,-3.3604,-3.4262,-3.4936,-3.5504,-3.5504,-3.5504,-3.5504,-3.5504,-3.5504,-3.5504,-3.5504,-3.5504,-3.5504,-3.5504,-3.5504,-3.5504,-3.5504,-3.5055,-3.4651,-3.4446,-3.4431,-3.4382,-3.4268,-3.453,-3.4765,-3.4549,-3.4481,-3.4481,-3.4481,-3.4414,-3.4414,-3.4414,-3.4414,-3.4414,-3.4414,-3.4414,-3.4264,-3.3908,-3.4196,-3.4128,-3.3479,-3.377,-3.3548,-3.2733,-3.2132,-3.1362,-3.054,-3.1275,-3.1254,-3.0532,-3.1328,-3.1842,0.0,0.0,0.0,0.0,0.0,0.0,0.0,0.0,0.0,0.0,-2.3309,-2.3616,-2.4037,-2.4469,-2.4821,-2.4892,-2.5131,-2.5369,-2.5439,-2.5688,-2.5853,-2.5853,-2.5893,-2.5988,-2.6229,-2.6244,-2.6365,-2.6712,-2.6712,-2.6727,-2.6779,-2.6779,-2.7084,-2.7654,-2.781,-2.8158,-2.8797,-2.9435,-2.9755,-2.9755,-3.0306,-3.0568,-3.0568,-3.0568,-3.0568,-3.0568,-3.0568,-3.0568,-3.0568,-3.0568,-3.0568,-3.0628,-3.0702,-3.082,-3.0938,-3.1146,-3.1279,-3.15,-3.2199,-3.2946,-3.3604,-3.4262,-3.4936,-3.5504,-3.5504,-3.5504,-3.5504,-3.5504,-3.5504,-3.5504,-3.5504,-3.5504,-3.5504,-3.5504,-3.5504,-3.5504,-3.5504,-3.5429,-3.537,-3.5355,-3.5305,-3.5305,-3.5305,-3.5234,-3.5148,-3.5082,-3.4831,-3.4631,-3.4631,-3.4481,-3.4414,-3.4414,-3.4414,-3.4414,-3.4414,-3.4414,-3.4414,-3.4346,-3.4346,-3.4346,-3.4264,-3.4278,-3.4264,-3.4128,-3.3409,-3.2484,-3.1314,-3.1959,-3.1988,-3.1389,-3.2277,-3.272,0.0,0.0,0.0,0.0,0.0,0.0,0.0,0.0,0.0,-2.3608,-2.4026,-2.4399,-2.4654,-2.4892,-2.5061,-2.5257,-2.5383,-2.555,-2.5702,-2.5948,-2.6136,-2.6136,-2.6272,-2.6447,-2.6592,-2.6592,-2.6659,-2.6779,-2.6779,-2.6779,-2.6779,-2.7128,-2.7447,-2.7668,-2.8364,-2.8984,-2.9389,-2.9959,-3.0338,-3.047,-3.0763,-3.0895,-3.0895,-3.0895,-3.0762,-3.0568,-3.0568,-3.0568,-3.0568,-3.0568,-3.0642,-3.0702,-3.0762,-3.11,-3.1529,-3.1783,-3.1857,-3.1901,-3.2363,-3.2946,-3.3544,-3.3829,-3.4637,-3.5429,-3.504,-3.519,-3.5429,-3.504,-3.5205,-3.5504,-3.5504,-3.5504,-3.5504,-3.5504,-3.5504,-3.5504,-3.5504,-3.5504,-3.5504,-3.5504,-3.5504,-3.5439,-3.5359,-3.5294,-3.5148,-3.5067,-3.4883,-3.4817,-3.4817,-3.4735,-3.4683,-3.4563,-3.4563,-3.4481,-3.4414,-3.4414,-3.4414,-3.4414,-3.4414,-3.4414,-3.4414,-3.4414,-3.4414,-3.4414,-3.4059,-3.3407,-3.2472,-3.3185,-3.3157,-3.2478,-3.3311,-3.3756,0.0,0.0,0.0,0.0,0.0,0.0,0.0,0.0,0.0,0.0,-2.4545,-2.5131,-2.5131,-2.5131,-2.5188,-2.5439,-2.5592,-2.5743,-2.5988,-2.6258,-2.6418,-2.6418,-2.6659,-2.6779,-2.6779,-2.6924,-2.6968,-2.6794,-2.7084,-2.72,-2.7041,-2.7621,-2.8042,-2.8257,-2.9188,-2.9828,-3.0177,-3.0646,-3.0955,-3.1087,-3.1087,-3.1087,-3.1087,-3.1087,-3.0955,-3.0702,-3.0702,-3.0702,-3.0702,-3.0702,-3.0762,-3.091,-3.1071,-3.1543,-3.2092,-3.2466,-3.2601,-3.263,-3.29,-3.3335,-3.3769,-3.3948,-3.4681,-3.5415,-3.4906,-3.51,-3.5464,-3.5052,-3.5213,-3.5554,-3.591,-3.5861,-3.5797,-3.591,-3.5973,-3.591,-3.5569,-3.5504,-3.5504,-3.5504,-3.5504,-3.5439,-3.5294,-3.5294,-3.5213,-3.5082,-3.5001,-3.5001,-3.5001,-3.4935,-3.4868,-3.4698,-3.4698,-3.4631,-3.4414,-3.4414,-3.4414,-3.4414,-3.4414,-3.4414,-3.4414,-3.4414,-3.4414,-3.4414,-3.4414,-3.4113,-3.352,-3.4113,-3.4113,-3.352,-3.4113,-3.4414,0.0,0.0,0.0,0.0,0.0,0.0,0.0,0.0,0.0,0.0,-2.4436,-2.5494,-2.5494,-2.5494,-2.5494,-2.5494,-2.5948,-2.6244,-2.6297,-2.6539,-2.6779,-2.6779,-2.6779,-2.6779,-2.6779,-2.7331,-2.7432,-2.6823,-2.7897,-2.8318,-2.7708,-2.8289,-2.9026,-2.9753,-2.9841,-3.0279,-3.1029,-3.1073,-3.1087,-3.1087,-3.1087,-3.1087,-3.1087,-3.1087,-3.1087,-3.1087,-3.1087,-3.1087,-3.1087,-3.1087,-3.1087,-3.1146,-3.1946,-3.2273,-3.2377,-3.3154,-3.344,-3.3544,-3.4158,-3.4397,-3.4532,-3.519,-3.5444,-3.5489,-3.5459,-3.5474,-3.5619,-3.615,-3.5943,-3.5797,-3.6966,-3.6845,-3.6477,-3.7131,-3.731,-3.6966,-3.5733,-3.5504,-3.5504,-3.5504,-3.5504,-3.5504,-3.5504,-3.5504,-3.5504,-3.5439,-3.5294,-3.5148,-3.5148,-3.5001,-3.4868,-3.4698,-3.4698,-3.4631,-3.4414,-3.4414,-3.4414,-3.4414,-3.4414,-3.4414,-3.4414,-3.4414,-3.4414,-3.4414,-3.4414,-3.4414,-3.4346,-3.4414,-3.4414,-3.4346,-3.4414,-3.4414,0.0,0.0,0.0,0.0,0.0,0.0,0.0,0.0,-2.3241,-2.3489,-2.4584,-2.555,-2.5688,-2.5743,-2.5798,-2.5988,-2.619,-2.6351,-2.6592,-2.6712,-2.6779,-2.6779,-2.6779,-2.6779,-2.6779,-2.736,-2.7461,-2.6837,-2.8065,-2.8557,-2.7944,-2.899,-2.9721,-3.0013,-3.044,-3.0837,-3.1234,-3.1292,-3.1366,-3.1366,-3.1366,-3.1366,-3.1366,-3.1366,-3.1366,-3.1366,-3.1366,-3.1249,-3.1117,-3.15,-3.1737,-3.196,-3.2674,-3.324,-3.3752,-3.4038,-3.4128,-3.4205,-3.4835,-3.5095,-3.5141,-3.5338,-3.5719,-3.5946,-3.5093,-3.5435,-3.6041,-3.583,-3.6199,-3.6845,-3.731,-3.7251,-3.7071,-3.737,-3.7429,-3.7251,-3.6845,-3.6368,-3.6085,-3.6085,-3.5733,-3.5504,-3.5504,-3.5504,-3.5504,-3.5504,-3.5439,-3.5359,-3.5359,-3.5359,-3.5228,-3.5016,-3.4883,-3.475,-3.4631,-3.4481,-3.4414,-3.4414,-3.4414,-3.4414,-3.4414,-3.4414,-3.4414,-3.4414,-3.4414,-3.4414,-3.4414,-3.4414,-3.4414,-3.4414,-3.4414,-3.4414,-2.1972,0.0,0.0,0.0,0.0,0.0,0.0,0.0,-2.3527,-2.3733,-2.4824,-2.5798,-2.5988,-2.6111,-2.6218,-2.6297,-2.6404,-2.6539,-2.6779,-2.6779,-2.6779,-2.6779,-2.6779,-2.6779,-2.6779,-2.7549,-2.7781,-2.7263,-2.863,0.0,-2.8737,-2.9835,-3.0467,-3.051,-3.0954,-3.1307,-3.1351,-3.1467,-3.1482,-3.1482,-3.1482,-3.1482,-3.1482,-3.1482,-3.1482,-3.1482,-3.1482,-3.1424,-3.1293,-3.1694,-3.2065,-3.2422,-3.3138,-3.3841,-3.4565,-3.4964,-3.5165,-3.5228,-3.5843,-3.6069,-3.6069,-3.6069,-3.6395,-3.6569,-3.5707,-3.6061,-3.6691,-3.6432,-3.6873,-3.7605,-3.801,-3.8124,-3.8165,-3.8165,-3.8165,-3.8165,-3.8165,-3.7429,-3.6723,-3.6723,-3.643,-3.6148,-3.6148,-3.6148,-3.6148,-3.6148,-3.6148,-3.6148,-3.6148,-3.6148,-3.5958,-3.5589,-3.5444,-3.5184,-3.4817,-3.4616,-3.4549,-3.4549,-3.4549,-3.4549,-3.4481,-3.4481,-3.4481,-3.4414,-3.4481,-3.4481,-3.4481,-3.4414,-3.4414,-3.4414,-3.4414,-3.4414,0.0,0.0,0.0,0.0,0.0,0.0,-2.2278,0.0,-2.3997,-2.4011,-2.5242,-2.6269,-2.6283,-2.6592,-2.6712,-2.6351,-2.6592,-2.6779,-2.6779,-2.6779,-2.6779,-2.6779,-2.6779,-2.6779,-2.6779,-2.7911,-2.8516,-2.8067,-2.9724,-3.0573,-3.01,-3.0777,-3.119,-3.1278,-3.1409,-3.1482,-3.1482,-3.1482,-3.1482,-3.1482,-3.1539,-3.1524,-3.1524,-3.1524,-3.1524,-3.1524,-3.1524,-3.1524,-3.1539,-3.1554,-3.1943,-3.2587,-3.323,-3.395,-3.4673,-3.5905,-3.6415,-3.6554,-3.7191,-3.7429,-3.7429,-3.7429,-3.7429,-3.7429,-3.7429,-3.7429,-3.7531,-3.8108,-3.7994,-3.7953,-3.9185,-3.959,-3.9677,-3.9677,-3.9677,-3.9677,-3.9677,-3.8518,-3.7488,-3.7429,-3.7429,-3.7429,-3.7429,-3.7429,-3.7429,-3.7429,-3.7429,-3.7429,-3.7429,-3.7429,-3.7071,-3.6321,-3.6196,-3.5879,-3.5052,-3.4986,-3.492,-3.4935,-3.4935,-3.4868,-3.4698,-3.4698,-3.4616,-3.4414,-3.4631,-3.4698,-3.4698,-3.4481,-3.4414,-3.4414,-3.4414,-3.4414,-2.2994,0.0,0.0,0.0,0.0,0.0,0.0,0.0,0.0,-2.422,-2.5046,-2.585,-2.652,-2.6727,-2.6779,-2.6659,-2.6727,-2.6779,-2.6779,-2.6779,-2.6779,-2.6779,-2.6779,-2.6846,-2.6951,-2.7667,-2.8115,0.0,-2.9581,-3.0391,-3.0256,-3.0994,-3.1424,-3.1409,-3.1467,-3.1482,-3.1482,-3.1482,-3.1482,-3.1539,-3.1966,-3.2176,-3.2176,-3.2176,-3.2176,-3.2176,-3.2176,-3.2176,-3.2165,-3.2208,-3.2347,-3.2631,-3.3666,-3.45,-3.5232,-3.6035,-3.6664,-3.7191,-3.7822,-3.8051,-3.8051,-3.8051,-3.8051,-3.7937,-3.7531,-3.7764,-3.8222,-3.839,-3.8739,-3.9206,-3.9573,-3.9677,-3.9677,-3.9677,-3.9677,-3.9677,-3.9677,-3.9382,-3.892,-3.8414,-3.7806,-3.7413,-3.7531,-3.7472,-3.7429,-3.7429,-3.7429,-3.7429,-3.7429,-3.7429,-3.731,-3.7071,-3.6951,-3.6768,-3.6508,-3.6368,-3.6072,-3.5672,-3.5608,-3.5365,-3.4868,-3.4868,-3.4802,-3.4735,-3.4802,-3.4868,-3.4868,-3.4802,-3.4735,-3.4735,-3.4735,-3.4735,0.0,0.0,0.0,0.0,0.0,0.0,-2.2797,-2.3102,-2.3578,0.0,-2.4934,-2.5718,-2.63,-2.6591,-2.6779,-2.6779,-2.6779,-2.6779,-2.6779,-2.6779,-2.6779,-2.6779,-2.6846,-2.6899,-2.7003,-2.7612,-2.8086,-2.8261,-2.9514,-3.0544,-3.1136,-3.1835,-3.2201,-3.2201,-3.2201,-3.2201,-3.2201,-3.2201,-3.2201,-3.2201,-3.2586,-3.2749,-3.2749,-3.2749,-3.2749,-3.2749,-3.2749,-3.2749,-3.2726,-3.2798,-3.2966,-3.3257,-3.397,-3.4887,-3.5861,-3.6457,-3.7116,-3.7879,-3.8479,-3.8717,-3.8717,-3.8717,-3.8717,-3.8662,-3.8367,-3.859,-3.8936,-3.8974,-3.9382,-3.9781,-3.9833,-3.9884,-3.9884,-3.9884,-3.9884,-3.9884,-3.9884,-3.9833,-3.9661,-3.9172,-3.8739,-3.8407,-3.8463,-3.8407,-3.8351,-3.8311,-3.8254,-3.8254,-3.8197,-3.8197,-3.8084,-3.7838,-3.7648,-3.7472,-3.7251,-3.71,-3.6919,-3.6585,-3.6523,-3.6228,-3.5494,-3.5429,-3.5249,-3.4935,-3.5001,-3.5082,-3.5148,-3.5001,-3.4935,-3.4935,-3.5184,-3.5169,0.0,0.0,0.0,0.0,0.0,0.0,-2.3127,-2.352,-2.3929,-2.4002,-2.5029,-2.5927,-2.6015,-2.6572,-2.7026,-2.7026,-2.6974,-2.6922,-2.6884,-2.6884,-2.6884,-2.6922,-2.7041,-2.7144,-2.7144,-2.7802,-2.8315,-2.8562,-2.9774,-3.1071,-3.2407,-3.2949,-3.3182,-3.3182,-3.3182,-3.3182,-3.3182,-3.3182,-3.3182,-3.3182,-3.3251,-3.3303,-3.3303,-3.3303,-3.3303,-3.3303,-3.3303,-3.3303,-3.3303,-3.3355,-3.3683,-3.4108,-3.4162,-3.5071,-3.6346,-3.6883,-3.7621,-3.8463,-3.8995,-3.9206,-3.9272,-3.9272,-3.9325,-3.9325,-3.9432,-3.9501,-3.959,-3.9729,-3.9833,-3.9935,-4.0087,-4.007,-4.007,-4.007,-4.007,-4.007,-4.007,-3.9986,-3.9901,-3.9781,-3.9729,-3.9729,-3.9729,-3.9729,-3.9677,-3.9537,-3.9501,-3.9484,-3.9325,-3.9325,-3.9077,-3.8463,-3.8407,-3.8181,-3.7663,-3.7605,-3.7605,-3.7472,-3.7488,-3.7131,-3.6383,-3.6321,-3.6006,-3.5169,-3.5314,-3.5524,-3.5748,-3.5264,-3.5052,-3.5001,-3.5721,-3.5737,0.0,0.0,0.0,0.0,0.0,0.0,-2.3275,-2.3569,-2.4055,0.0,-2.562,-2.6595,-2.7134,-2.7842,-2.8304,-2.8304,-2.8158,-2.783,-2.7335,-2.7299,-2.7372,-2.7665,-2.7913,-2.8076,-2.8189,-2.8539,-2.9026,-2.9637,-3.0947,-3.2144,-3.3008,-3.3145,-3.3182,-3.3182,-3.3182,-3.3182,-3.3182,-3.3182,-3.3182,-3.3198,-3.3697,-3.3917,-3.3917,-3.3917,-3.3917,-3.3917,-3.3917,-3.3917,-3.3984,-3.4382,-3.4117,-3.3456,-3.3922,-3.4981,-3.6233,-3.6252,-3.7461,-3.9065,-3.8557,-3.8791,-3.9272,-3.9272,-3.9379,-3.9448,-3.9501,-3.9642,-3.9849,-3.9969,-4.0037,-4.0087,-4.007,-4.007,-4.007,-4.007,-4.007,-4.007,-4.007,-4.0087,-4.0037,-4.0037,-3.9833,-3.9729,-3.9849,-3.9781,-3.9677,-3.9677,-3.9677,-3.9625,-3.9501,-3.9448,-3.9379,-3.9148,-3.9077,-3.9077,-3.8914,-3.8914,-3.8733,-3.8165,-3.8108,-3.7822,-3.7191,-3.7191,-3.7071,-3.6935,-3.6951,-3.7011,-3.7027,-3.6415,-3.5894,-3.5424,-3.66,-3.6768,0.0,0.0,0.0,-2.403,0.0,0.0,0.0,-2.3653,-2.3985,-2.4303,-2.5287,-2.6146,-2.6476,-2.7423,-2.8171,-2.8171,-2.8216,-2.8304,-2.8319,-2.7929,-2.7745,-2.8046,-2.8304,-2.8463,-2.8654,-2.8904,-2.9407,-3.0448,-3.15,-3.2526,-3.3582,-3.3885,-3.4036,-3.4036,-3.4036,-3.4036,-3.4036,-3.4036,-3.4036,-3.4036,-3.4333,-3.4497,-3.4497,-3.4497,-3.4497,-3.4497,-3.4497,-3.4497,-3.4497,-3.4804,-3.4578,-3.4102,-3.4382,-3.5152,-3.6088,-3.6009,-3.692,-3.8195,-3.8212,-3.8444,-3.8808,-3.9156,-3.9379,-3.9501,-3.959,-3.9781,-4.0037,-4.0087,-4.007,-4.007,-4.007,-4.007,-4.007,-4.007,-4.007,-4.007,-4.007,-4.007,-4.007,-4.007,-3.9969,-3.9935,-3.9986,-3.9935,-3.9884,-3.9781,-3.9781,-3.9746,-3.9642,-3.9537,-3.9501,-3.9395,-3.9325,-3.9272,-3.9272,-3.9272,-3.9148,-3.8827,-3.8772,-3.8535,-3.7895,-3.7822,-3.7881,-3.7951,-3.7951,-3.7951,-3.7951,-3.7891,-3.7416,-3.6492,-3.7429,-3.7546,0.0,0.0,0.0,0.0,0.0,-2.4702,0.0,0.0,0.0,-2.4641,-2.5503,0.0,0.0,0.0,0.0,0.0,0.0,0.0,0.0,-2.867,0.0,-2.8575,-2.8732,-2.8889,-2.9136,-2.9257,-2.9874,-3.1102,-3.1803,-3.2704,-3.3974,-3.4577,-3.4899,-3.4899,-3.4899,-3.4899,-3.4899,-3.4899,-3.4899,-3.4899,-3.4899,-3.4899,-3.4899,-3.4899,-3.4899,-3.4899,-3.4899,-3.4899,-3.4899,-3.4899,-3.4899,-3.4899,-3.4899,-3.5346,-3.5976,-3.5843,-3.634,-3.7168,-3.7632,-3.798,-3.8311,-3.8927,-3.9315,-3.959,-3.9729,-3.9935,-4.007,-4.0087,-4.0087,-4.007,-4.0087,-4.0087,-4.007,-4.007,-4.007,-4.007,-4.007,-4.007,-4.007,-4.007,-4.007,-4.007,-4.007,-4.007,-4.007,-3.9935,-3.9952,-3.9884,-3.9781,-3.9642,-3.9554,-3.9537,-3.9432,-3.9379,-3.9379,-3.9511,-3.9594,-3.9594,-3.9727,-3.9506,-3.8998,-3.8925,-3.8974,-3.9086,-3.9042,-3.9042,-3.9042,-3.9444,-3.8834,-3.7429,-3.8181,-3.8181,0.0,0.0,0.0,0.0,-2.5864,0.0,0.0,0.0,-2.7292,-2.7292,0.0,0.0,0.0,0.0,0.0,0.0,0.0,0.0,-2.9179,-2.9389,-2.9617,-2.9617,-2.9853,-3.0017,-3.006,-3.0215,-3.0688,-3.1495,-3.2227,-3.2954,-3.3779,-3.4488,-3.4899,-3.4899,-3.4899,-3.4899,-3.4899,-3.4899,-3.4899,-3.4899,-3.4899,-3.4899,-3.4899,-3.4899,-3.4899,-3.4899,-3.4899,-3.4899,-3.4899,-3.4899,-3.4899,-3.4899,-3.4899,-3.5346,-3.5926,-3.5263,-3.5909,-3.7036,-3.6456,-3.7119,-3.8228,-3.845,-3.9107,-3.9901,-4.0037,-4.0087,-4.0087,-3.9952,-3.9986,-4.007,-3.9935,-3.9986,-4.007,-4.007,-4.007,-4.007,-4.007,-4.007,-4.007,-4.007,-4.007,-4.007,-4.007,-4.007,-4.007,-4.0087,-4.0087,-4.0037,-3.9884,-3.9849,-3.9798,-3.9677,-3.9677,-3.9677,-3.9677,-4.0227,-4.0612,-4.0612,-4.1121,-4.1361,-4.1305,-4.116,-4.108,-4.1049,-4.1049,-4.1049,-4.1049,-4.0552,-3.9267,-3.7429,-3.8606,-3.8843,0.0,0.0,0.0,0.0,0.0,0.0,-2.6882,0.0,-2.7697,0.0,0.0,0.0,0.0,0.0,0.0,0.0,-2.9839,0.0,0.0,0.0,-3.0044,0.0,0.0,0.0,-3.0359,-3.0443,-3.0824,-3.1527,-3.1901,-3.2381,-3.311,-3.3856,-3.4253,-3.4253,-3.4667,-3.4899,-3.4899,-3.4899,-3.4899,-3.4899,-3.4899,-3.4899,-3.4899,-3.4899,-3.4899,-3.4899,-3.4899,-3.4899,-3.4899,-3.4899,-3.4899,-3.4899,-3.4899,-3.5081,-3.5313,-3.5015,-3.5297,-3.5909,-3.6456,-3.7086,-3.7835,-3.889,-3.9546,-3.9952,-4.0087,-4.007,-4.007,-4.0037,-4.0037,-4.0087,-4.0037,-4.0087,-4.007,-4.007,-4.007,-4.007,-4.007,-4.007,-4.007,-4.007,-4.007,-4.007,-4.007,-4.007,-4.007,-4.007,-4.007,-4.0087,-4.0037,-3.9935,-3.9901,-3.9833,-3.9729,-3.9677,-3.9677,-3.9962,-4.033,-4.0766,-4.1414,-4.1777,-4.1722,-4.1705,-4.1849,-4.2185,-4.2299,-4.2339,-4.2339,-4.1638,-4.0597,-3.9378,-3.933,-3.9148,-2.9303,0.0,0.0,0.0,0.0,0.0,0.0,0.0,0.0,0.0,0.0,0.0,0.0,0.0,0.0,0.0,0.0,-3.0234,0.0,-3.0227,0.0,0.0,0.0,0.0,0.0,-3.0526,-3.0742,-3.1288,-3.1477,-3.1851,-3.2365,-3.3292,-3.3789,-3.3789,-3.4518,-3.4899,-3.4899,-3.4899,-3.4899,-3.4899,-3.4899,-3.4899,-3.4899,-3.4947,-3.4947,-3.4947,-3.4994,-3.4994,-3.4994,-3.4994,-3.4994,-3.4947,-3.4947,-3.4947,-3.4899,-3.4899,-3.5032,-3.5346,-3.6472,-3.7253,-3.7937,-3.9429,-3.9935,-3.9986,-4.0087,-4.007,-4.007,-4.0037,-4.0087,-4.007,-4.0037,-4.0087,-4.007,-4.007,-4.007,-4.007,-4.007,-4.007,-4.007,-4.007,-4.007,-4.007,-4.007,-4.007,-4.007,-4.007,-4.007,-4.007,-4.007,-4.0037,-3.9935,-3.9935,-3.9884,-3.9833,-3.9833,-4.0017,-4.0486,-4.1389,-4.1942,-4.2272,-4.2378,-4.2434,-4.2685,-4.3139,-4.3237,-4.3294,-4.3294,-4.2557,-4.1921,-4.1368,-4.0001,-3.9531,0.0,0.0,0.0,-2.9207,0.0,0.0,0.0,0.0,-3.0402,0.0,0.0,0.0,0.0,0.0,0.0,0.0,0.0,0.0,0.0,0.0,0.0,0.0,0.0,0.0,0.0,-3.0526,-3.0526,-3.0543,-3.1222,-3.1593,-3.1609,-3.3011,-3.3789,-3.3789,-3.4518,-3.4899,-3.4899,-3.4899,-3.4899,-3.4899,-3.4899,-3.4899,-3.4899,-3.5041,-3.5088,-3.5088,-3.5245,-3.5291,-3.5291,-3.5291,-3.5198,-3.5088,-3.5088,-3.4994,-3.4899,-3.4899,-3.5346,-3.5976,-3.6187,-3.7334,-3.8874,-3.9648,-3.9986,-4.007,-4.007,-4.007,-4.007,-3.9935,-3.9986,-4.0087,-3.9952,-3.9986,-4.007,-4.007,-4.007,-4.007,-4.007,-4.007,-4.007,-4.007,-4.007,-4.007,-4.007,-4.007,-4.007,-4.007,-4.007,-4.007,-4.007,-4.0087,-4.007,-4.007,-4.007,-4.007,-4.007,-4.0747,-4.169,-4.3065,-4.3182,-4.339,-4.3997,-4.403,-4.4047,-4.4064,-4.4064,-4.4064,-4.4064,-4.331,-4.2925,-4.2858,-4.0682,-4.0062,0.0,0.0,-3.0435,-3.0351,0.0,0.0,0.0,0.0,0.0,0.0,0.0,0.0,0.0,0.0,0.0,0.0,0.0,0.0,0.0,0.0,0.0,0.0,0.0,0.0,0.0,0.0,0.0,-3.0526,-3.0716,-3.0849,-3.0849,-3.1818,-3.258,-3.3044,-3.3773,-3.4402,-3.4899,-3.4994,-3.5041,-3.5041,-3.5105,-3.5135,-3.5152,-3.5198,-3.5245,-3.5245,-3.5291,-3.5291,-3.5291,-3.5291,-3.5198,-3.5088,-3.5088,-3.4994,-3.4899,-3.4899,-3.5112,-3.5557,-3.6781,-3.7917,-3.8925,-3.975,-4.007,-4.007,-4.007,-4.007,-4.007,-4.0037,-4.0087,-4.007,-4.0037,-4.0087,-4.007,-4.007,-4.007,-4.007,-4.007,-4.007,-4.007,-4.007,-4.007,-4.0221,-4.0531,-4.058,-4.0434,-4.0121,-4.007,-4.007,-4.007,-4.007,-4.007,-4.007,-4.007,-4.007,-4.007,-4.1204,-4.2354,-4.3242,-4.3855,-4.4187,-4.4253,-4.4384,-4.4384,-4.4253,-4.4384,-4.4457,-4.4457,-4.3625,-4.3002,-4.2496,-4.1791,-4.1466,-3.0992,-3.1032,0.0,-3.0952,-3.0975,0.0,-3.0912,0.0,-3.0773,0.0,0.0,0.0,0.0,0.0,0.0,0.0,0.0,0.0,0.0,-3.0692,0.0,0.0,0.0,0.0,0.0,-3.0526,-3.0526,-3.0526,-3.0526,-3.0526,0.0,-3.147,-3.2216,-3.2663,-3.3657,-3.4466,-3.4994,-3.5041,-3.5135,-3.5198,-3.5245,-3.5291,-3.5291,-3.5354,-3.5383,-3.5383,-3.5383,-3.5429,-3.5429,-3.5429,-3.5337,-3.5245,-3.5245,-3.5152,-3.5041,-3.4947,-3.5374,-3.6183,-3.79,-3.884,-3.9362,-3.9935,-4.007,-4.007,-4.007,-4.007,-4.007,-4.007,-4.007,-4.007,-4.007,-4.007,-4.007,-4.007,-4.007,-4.007,-4.007,-4.007,-4.0171,-4.0303,-4.0353,-4.0483,-4.0972,-4.1065,-4.0972,-4.0659,-4.0611,-4.0611,-4.0611,-4.0611,-4.0611,-4.0611,-4.0851,-4.1126,-4.1449,-4.1971,-4.2715,-4.3622,-4.3986,-4.4226,-4.4423,-4.4514,-4.4514,-4.444,-4.4514,-4.4587,-4.4587,-4.4079,-4.3572,-4.3098,-4.3098,-4.3044]}]]